[[{"header":{"parameterUnit":"m.s-1","parameterCategory":1,"la1":30.6,"la2":28.766,"lo1":-90.7593,"lo2":-88.6598,"dy":0.0162,"dx":0.0183,"nx":116,"ny":114,"refTime":"2024-04-06T00:00:00:Z","depth":0,"parameterNumber":2,"parameterNumberName":"U-component_of_WINDS"},"data":[0.0,0.0,0.0,0.0,0.0,0.0,0.0,0.0,0.0,0.0,0.0,0.0,0.0,0.0,0.0,0.0,0.0,0.0,0.0,0.0,0.0,0.0,0.0,0.0,0.0,0.0,0.0,0.0,0.0,0.0,0.0,0.0,0.0,0.0,0.0,0.0,0.0,0.0,0.0,0.0,0.0,0.0,0.0,0.0,0.0,0.0,0.0,0.0,0.0,0.0,0.0,0.0,0.0,0.0,0.0,0.0,0.0,0.0,0.0,0.0,0.0,0.0,0.0,0.0,0.0,0.0,0.0,0.0,0.0,0.0,0.0,0.0,0.0,0.0,0.0,0.0,0.0,0.0,0.0,0.0,0.0,0.0,0.0,0.0,0.0,0.0,0.0,0.0,0.0,0.0,0.0,0.0,0.0,0.0,0.0,0.0,0.0,0.0,0.0,0.0,0.0,0.0,0.0,0.0,0.0,0.0,0.0,0.0,0.0,0.0,0.0,0.0,0.0,0.0,0.0,0.0,0.0,0.0,0.0,0.0,0.0,0.0,0.0,0.0,0.0,0.0,0.0,0.0,0.0,0.0,0.0,0.0,0.0,0.0,0.0,0.0,0.0,0.0,0.0,0.0,0.0,0.0,0.0,0.0,0.0,0.0,0.0,0.0,0.0,0.0,0.0,0.0,0.0,0.0,0.0,0.0,0.0,0.0,0.0,0.0,0.0,0.0,0.0,0.0,0.0,0.0,0.0,0.0,0.0,0.0,0.0,0.0,0.0,0.0,0.0,0.0,0.0,0.0,0.0,0.0,0.0,0.0,0.0,0.0,0.0,0.0,0.0,0.0,0.0,0.0,0.0,0.0,0.0,0.0,0.0,0.0,0.0,0.0,0.0,0.0,0.0,0.0,0.0,0.0,0.0,0.0,0.0,0.0,0.0,0.0,0.0,0.0,0.0,0.0,0.0,0.0,0.0,0.0,0.0,0.0,0.0,0.0,0.0,0.0,0.0,0.0,0.0,0.0,0.0,0.0,0.0,0.0,0.0,0.0,0.0,0.0,0.0,0.0,0.0,0.0,0.0,0.0,0.0,0.0,0.0,0.0,0.0,0.0,0.0,0.0,0.0,0.0,0.0,0.0,0.0,0.0,0.0,0.0,0.0,0.0,0.0,0.0,0.0,0.0,0.0,0.0,0.0,0.0,0.0,0.0,0.0,0.0,0.0,0.0,0.0,0.0,0.0,0.0,0.0,0.0,0.0,0.0,0.0,0.0,0.0,0.0,0.0,0.0,0.0,0.0,0.0,0.0,0.0,0.0,0.0,0.0,0.0,0.0,0.0,0.0,0.0,0.0,0.0,0.0,0.0,0.0,0.0,0.0,0.0,0.0,0.0,0.0,0.0,0.0,0.0,0.0,0.0,0.0,0.0,0.0,0.0,0.0,0.0,0.0,0.0,0.0,0.0,0.0,0.0,0.0,0.0,0.0,0.0,0.0,0.0,0.0,0.0,0.0,0.0,0.0,0.0,0.0,0.0,0.0,0.0,0.0,0.0,0.0,0.0,0.0,0.0,0.0,0.0,0.0,0.0,0.0,0.0,0.0,0.0,0.0,0.0,0.0,0.0,0.0,0.0,0.0,0.0,0.0,0.0,0.0,0.0,0.0,0.0,0.0,0.0,0.0,0.0,0.0,0.0,0.0,0.0,0.0,0.0,0.0,0.0,0.0,0.0,0.0,0.0,0.0,0.0,0.0,0.0,0.0,0.0,0.0,0.0,0.0,0.0,0.0,0.0,0.0,0.0,0.0,0.0,0.0,0.0,0.0,0.0,0.0,0.0,0.0,0.0,0.0,0.0,0.0,0.0,0.0,0.0,0.0,0.0,0.0,0.0,0.0,0.0,0.0,0.0,0.0,0.0,0.0,0.0,0.0,0.0,0.0,0.0,0.0,0.0,0.0,0.0,0.0,0.0,0.0,0.0,0.0,0.0,0.0,0.0,0.0,0.0,0.0,0.0,0.0,0.0,0.0,0.0,0.0,0.0,0.0,0.0,0.0,0.0,0.0,0.0,0.0,0.0,0.0,0.0,0.0,0.0,0.0,0.0,0.0,0.0,0.0,0.0,0.0,0.0,0.0,0.0,0.0,0.0,0.0,0.0,0.0,0.0,0.0,0.0,0.0,0.0,0.0,0.0,0.0,0.0,0.0,0.0,0.0,0.0,0.0,0.0,0.0,0.0,0.0,0.0,0.0,0.0,0.0,0.0,0.0,0.0,0.0,0.0,0.0,0.0,0.0,0.0,0.0,0.0,0.0,0.0,0.0,0.0,0.0,0.0,0.0,0.0,0.0,0.0,0.0,0.0,0.0,0.0,0.0,0.0,0.0,0.0,0.0,0.0,0.0,0.0,0.0,0.0,0.0,0.0,0.0,0.0,0.0,0.0,0.0,0.0,0.0,0.0,0.0,0.0,0.0,0.0,0.0,0.0,0.0,0.0,0.0,0.0,0.0,0.0,0.0,0.0,0.0,0.0,0.0,0.0,0.0,0.0,0.0,0.0,0.0,0.0,0.0,0.0,0.0,0.0,0.0,0.0,0.0,0.0,0.0,0.0,0.0,0.0,0.0,0.0,0.0,0.0,0.0,0.0,0.0,0.0,0.0,0.0,0.0,0.0,0.0,0.0,0.0,0.0,0.0,0.0,0.0,0.0,0.0,0.0,0.0,0.0,0.0,0.0,0.0,0.0,0.0,0.0,0.0,0.0,0.0,0.0,0.0,0.0,0.0,0.0,0.0,0.0,0.0,0.0,0.0,0.0,0.0,0.0,0.0,0.0,0.0,0.0,0.0,0.0,0.0,0.0,0.0,0.0,0.0,0.0,0.0,0.0,0.0,0.0,0.0,0.0,0.0,0.0,0.0,0.0,0.0,0.0,0.0,0.0,0.0,0.0,0.0,0.0,0.0,0.0,0.0,0.0,0.0,0.0,0.0,0.0,0.0,0.0,0.0,0.0,0.0,0.0,0.0,0.0,0.0,0.0,0.0,0.0,0.0,0.0,0.0,0.0,0.0,0.0,0.0,0.0,0.0,0.0,0.0,0.0,0.0,0.0,0.0,0.0,0.0,0.0,0.0,0.0,0.0,0.0,0.0,0.0,0.0,0.0,0.0,0.0,0.0,0.0,0.0,0.0,0.0,0.0,0.0,0.0,0.0,0.0,0.0,0.0,0.0,0.0,0.0,0.0,0.0,0.0,0.0,0.0,0.0,0.0,0.0,0.0,0.0,0.0,0.0,0.0,0.0,0.0,0.0,0.0,0.0,0.0,0.0,0.0,0.0,0.0,0.0,0.0,0.0,0.0,0.0,0.0,0.0,0.0,0.0,0.0,0.0,0.0,0.0,0.0,0.0,0.0,0.0,0.0,0.0,0.0,0.0,0.0,0.0,0.0,0.0,0.0,0.0,0.0,0.0,0.0,0.0,0.0,0.0,0.0,0.0,0.0,0.0,0.0,0.0,0.0,0.0,0.0,0.0,0.0,0.0,0.0,0.0,0.0,0.0,0.0,0.0,0.0,0.0,0.0,0.0,0.0,0.0,0.0,0.0,0.0,0.0,0.0,0.0,0.0,0.0,0.0,0.0,0.0,0.0,0.0,0.0,0.0,0.0,0.0,0.0,0.0,0.0,0.0,0.0,0.0,0.0,0.0,0.0,0.0,0.0,0.0,0.0,0.0,0.0,0.0,0.0,0.0,0.0,0.0,0.0,0.0,0.0,0.0,0.0,0.0,0.0,0.0,0.0,0.0,0.0,0.0,0.0,0.0,0.0,0.0,0.0,0.0,0.0,0.0,0.0,0.0,0.0,0.0,0.0,0.0,0.0,0.0,0.0,0.0,0.0,0.0,0.0,0.0,0.0,0.0,0.0,0.0,0.0,0.0,0.0,0.0,0.0,0.0,0.0,0.0,0.0,0.0,0.0,0.0,0.0,0.0,0.0,0.0,0.0,0.0,0.0,0.0,0.0,0.0,0.0,0.0,0.0,0.0,0.0,0.0,0.0,0.0,0.0,0.0,0.0,0.0,0.0,0.0,0.0,0.0,0.0,0.0,0.0,0.0,0.0,0.0,0.0,0.0,0.0,0.0,0.0,0.0,0.0,0.0,0.0,0.0,0.0,0.0,0.0,0.0,0.0,0.0,0.0,0.0,0.0,0.0,0.0,0.0,0.0,0.0,0.0,0.0,0.0,0.0,0.0,0.0,0.0,0.0,0.0,0.0,0.0,0.0,0.0,0.0,0.0,0.0,0.0,0.0,0.0,0.0,0.0,0.0,0.0,0.0,0.0,0.0,0.0,0.0,0.0,0.0,0.0,0.0,0.0,0.0,0.0,0.0,0.0,0.0,0.0,0.0,0.0,0.0,0.0,0.0,0.0,0.0,0.0,0.0,0.0,0.0,0.0,0.0,0.0,0.0,0.0,0.0,0.0,0.0,0.0,0.0,0.0,0.0,0.0,0.0,0.0,0.0,0.0,0.0,0.0,0.0,0.0,0.0,0.0,0.0,0.0,0.0,0.0,0.0,0.0,0.0,0.0,0.0,0.0,0.0,0.0,0.0,0.0,0.0,0.0,0.0,0.0,0.0,0.0,0.0,0.0,0.0,0.0,0.0,0.0,0.0,0.0,0.0,0.0,0.0,0.0,0.0,0.0,0.0,0.0,0.0,0.0,0.0,0.0,0.0,0.0,0.0,0.0,0.0,0.0,0.0,0.0,0.0,0.0,0.0,0.0,0.0,0.0,0.0,0.0,0.0,0.0,0.0,0.0,0.0,0.0,0.0,0.0,0.0,0.0,0.0,0.0,0.0,0.0,0.0,0.0,0.0,0.0,0.0,0.0,0.0,0.0,0.0,0.0,0.0,0.0,0.0,0.0,0.0,0.0,0.0,0.0,0.0,0.0,0.0,0.0,0.0,0.0,0.0,0.0,0.0,0.0,0.0,0.0,0.0,0.0,0.0,0.0,0.0,0.0,0.0,0.0,0.0,0.0,0.0,0.0,0.0,0.0,0.0,0.0,0.0,0.0,0.0,0.0,0.0,0.0,0.0,0.0,0.0,0.0,0.0,0.0,0.0,0.0,0.0,0.0,0.0,0.0,0.0,0.0,0.0,0.0,0.0,0.0,0.0,0.0,0.0,0.0,0.0,0.0,0.0,0.0,0.0,0.0,0.0,0.0,0.0,0.0,0.0,0.0,0.0,0.0,0.0,0.0,0.0,0.0,0.0,0.0,0.0,0.0,0.0,0.0,0.0,0.0,0.0,0.0,0.0,0.0,0.0,0.0,0.0,0.0,0.0,0.0,0.0,0.0,0.0,0.0,0.0,0.0,0.0,0.0,0.0,0.0,0.0,0.0,0.0,0.0,0.0,0.0,0.0,0.0,0.0,0.0,0.0,0.0,0.0,0.0,0.0,0.0,0.0,0.0,0.0,0.0,0.0,0.0,0.0,0.0,0.0,0.0,0.0,0.0,0.0,0.0,0.0,0.0,0.0,0.0,0.0,0.0,0.0,0.0,0.0,0.0,0.0,0.0,0.0,0.0,0.0,0.0,0.0,0.0,0.0,0.0,0.0,0.0,0.0,0.0,0.0,0.0,0.0,0.0,0.0,0.0,0.0,0.0,0.0,0.0,0.0,0.0,0.0,0.0,0.0,0.0,0.0,0.0,0.0,0.0,0.0,0.0,0.0,0.0,0.0,0.0,0.0,0.0,0.0,0.0,0.0,0.0,0.0,0.0,0.0,0.0,0.0,0.0,0.0,0.0,0.0,0.0,0.0,0.0,0.0,0.0,0.0,0.0,0.0,0.0,0.0,0.0,0.0,0.0,0.0,0.0,0.0,0.0,0.0,0.0,0.0,0.0,0.0,0.0,0.0,0.0,0.0,0.0,0.0,0.0,0.0,0.0,0.0,0.0,0.0,0.0,0.0,0.0,0.0,0.0,0.0,0.0,0.0,0.0,0.0,0.0,0.0,0.0,0.0,0.0,0.0,0.0,0.0,0.0,0.0,0.0,0.0,0.0,0.0,0.0,0.0,0.0,0.0,0.0,0.0,0.0,0.0,0.0,0.0,0.0,0.0,0.0,0.0,0.0,1.4723,1.4476,0.0,0.0,0.0,0.0,0.0,0.0,0.0,0.0,0.0,0.0,0.0,0.0,0.0,0.0,0.0,0.0,0.0,0.0,0.0,0.0,0.0,0.0,0.0,2.7085,2.7411,2.7593,2.7853,2.7938,2.7696,0.0,0.0,0.0,0.0,0.0,2.7606,2.7352,2.7231,2.7129,2.6955,2.6646,2.6256,2.542,2.4873,2.4626,0.0,0.0,0.0,0.0,0.0,0.0,0.0,0.0,0.0,0.0,0.0,0.0,0.0,0.0,0.0,0.0,0.0,0.0,0.0,0.0,0.0,0.0,0.0,0.0,0.0,0.0,0.0,0.0,0.0,0.0,0.0,0.0,0.0,0.0,0.0,0.0,0.0,0.0,0.0,0.0,0.0,0.0,0.0,0.0,0.0,0.0,0.0,0.0,0.0,0.0,0.0,0.0,0.0,0.0,0.0,0.0,0.0,0.0,0.0,0.0,0.0,0.0,0.0,0.0,0.0,0.0,0.0,0.0,0.0,0.0,1.54,1.4909,0.0,0.0,0.0,0.0,0.0,0.0,0.0,0.0,0.0,0.0,0.0,0.0,0.0,0.0,0.0,0.0,0.0,0.0,0.0,0.0,0.0,2.6622,2.7609,2.7801,2.7963,2.8211,2.8331,2.8322,2.8103,2.8197,0.0,0.0,2.8463,2.848,2.8551,2.8487,2.8248,2.79,2.781,2.7493,2.683,2.6535,2.6167,2.5724,2.5125,0.0,0.0,0.0,0.0,0.0,0.0,0.0,0.0,0.0,0.0,0.0,0.0,0.0,0.0,0.0,0.0,0.0,0.0,0.0,0.0,0.0,0.0,0.0,0.0,0.0,0.0,0.0,0.0,0.0,0.0,0.0,0.0,0.0,0.0,0.0,0.0,0.0,0.0,0.0,0.0,0.0,0.0,0.0,0.0,0.0,0.0,0.0,0.0,0.0,0.0,0.0,0.0,0.0,0.0,0.0,0.0,0.0,0.0,0.0,0.0,0.0,0.0,0.0,1.5668,1.5706,1.5782,1.5782,1.5971,1.6273,1.5923,1.5358,1.4795,1.4657,0.0,0.0,0.0,0.0,0.0,0.0,0.0,0.0,0.0,0.0,0.0,0.0,0.0,0.0,0.0,0.0,0.0,0.0,0.0,2.7055,2.7657,2.8138,2.8426,2.8419,2.8931,2.9032,2.8869,2.932,2.9437,2.9291,2.906,2.9021,2.9005,2.866,2.8604,2.8924,2.9161,2.9137,2.8943,2.8726,2.8333,2.7679,2.5664,2.502,2.5243,0.0,0.0,0.0,0.0,0.0,0.0,0.0,0.0,0.0,0.0,0.0,0.0,0.0,0.0,0.0,0.0,0.0,0.0,0.0,0.0,0.0,0.0,0.0,0.0,0.0,0.0,0.0,0.0,0.0,0.0,0.0,0.0,0.0,0.0,0.0,0.0,0.0,0.0,0.0,0.0,0.0,1.8009,1.8203,0.0,0.0,0.0,0.0,0.0,0.0,0.0,0.0,0.0,0.0,0.0,0.0,0.0,1.6891,1.6108,1.6108,1.6157,1.6103,1.6103,1.6292,1.6642,1.6642,1.667,1.6717,1.666,0.0,1.5903,1.562,0.0,0.0,0.0,0.0,0.0,0.0,0.0,0.0,0.0,0.0,0.0,0.0,0.0,0.0,0.0,0.0,0.0,0.0,0.0,0.0,0.0,2.8961,2.9358,2.9358,2.9682,2.9891,2.9808,2.9882,2.9976,3.0005,2.9918,3.005,3.0368,3.0189,3.008,3.0187,3.0141,2.9991,2.9599,2.9303,2.9132,2.8938,2.7394,2.6661,2.6527,2.5957,0.0,0.0,0.0,0.0,0.0,0.0,0.0,0.0,0.0,0.0,0.0,0.0,0.0,0.0,0.0,0.0,0.0,0.0,0.0,0.0,0.0,0.0,0.0,0.0,0.0,0.0,0.0,0.0,0.0,0.0,0.0,0.0,0.0,0.0,0.0,0.0,0.0,0.0,0.0,1.8106,1.8173,1.8447,1.8232,1.8208,0.0,0.0,0.0,0.0,0.0,0.0,0.0,0.0,0.0,1.7558,1.7164,1.6867,1.6822,1.6548,1.6492,1.6538,1.6538,1.6632,1.6802,1.6802,1.6868,1.6972,1.6972,1.6889,1.6833,1.6017,1.5328,1.5032,0.0,0.0,0.0,0.0,1.4148,1.4075,0.0,0.0,0.0,0.0,0.0,0.0,0.0,0.0,0.0,0.0,0.0,0.0,2.9016,2.964,3.004,3.0163,3.0489,3.0699,3.0699,3.0798,3.0879,3.1089,3.1144,3.1305,3.1739,3.167,3.1596,3.1465,3.1149,3.0888,3.0629,3.0327,3.0215,3.0202,2.9353,2.8492,2.766,2.7255,2.6715,2.6102,0.0,0.0,0.0,0.0,0.0,0.0,0.0,0.0,0.0,0.0,0.0,0.0,0.0,0.0,0.0,0.0,0.0,0.0,0.0,0.0,0.0,0.0,0.0,0.0,0.0,0.0,0.0,0.0,0.0,0.0,0.0,0.0,0.0,0.0,0.0,0.0,0.0,1.828,1.8395,1.8594,1.841,1.8361,0.0,0.0,0.0,0.0,0.0,0.0,1.794,1.7537,1.7416,1.7734,1.7196,1.7067,1.7233,1.6949,1.6831,1.6878,1.6934,1.6991,1.7038,1.7095,1.7209,1.7341,1.7341,1.7435,1.7405,1.6232,1.5624,1.5325,1.472,1.4538,1.4505,1.4505,1.4473,1.4432,0.0,0.0,0.0,0.0,0.0,0.0,0.0,0.0,0.0,0.0,0.0,2.8737,2.9819,2.9966,3.0163,3.0737,3.122,3.154,3.154,3.2235,3.2641,3.2665,3.2759,3.2768,3.2816,3.2348,3.2287,3.2801,3.2499,3.2561,3.2918,3.262,3.219,3.1692,3.1433,3.015,2.8428,2.768,2.7074,2.6564,2.6545,0.0,0.0,0.0,0.0,0.0,0.0,0.0,0.0,0.0,0.0,0.0,0.0,0.0,0.0,0.0,0.0,0.0,0.0,0.0,0.0,0.0,0.0,0.0,0.0,0.0,0.0,0.0,0.0,0.0,0.0,0.0,0.0,0.0,0.0,0.0,0.0,0.0,0.0,1.8707,1.8373,0.0,0.0,0.0,0.0,1.8713,1.8507,1.8477,1.8477,1.8051,1.7769,1.7497,1.7351,1.7214,1.6802,1.6802,1.6897,1.7095,1.7294,1.7492,1.7681,1.7889,1.7993,1.8002,1.8002,1.8002,1.7826,1.6644,1.6177,1.6024,1.525,1.4838,1.4692,1.4692,1.4586,1.4432,0.0,0.0,0.0,0.0,0.0,0.0,2.6166,2.6627,2.7261,2.8069,2.9012,2.9762,3.0158,3.0885,3.1464,3.1639,3.2425,3.2772,3.2772,3.3285,3.3588,3.3588,3.3417,3.3479,3.3862,3.4035,3.407,3.4131,3.3821,3.3563,3.3391,3.3399,3.3267,3.2902,3.2658,3.194,3.0892,2.9619,2.8711,2.799,2.7612,2.695,0.0,0.0,0.0,0.0,0.0,0.0,0.0,0.0,0.0,0.0,0.0,0.0,0.0,0.0,0.0,0.0,0.0,0.0,0.0,0.0,0.0,0.0,0.0,0.0,0.0,0.0,0.0,0.0,0.0,0.0,0.0,0.0,0.0,0.0,0.0,0.0,0.0,1.8809,1.8589,0.0,1.8877,1.8699,1.8486,1.857,1.8363,1.8112,1.8112,1.7819,1.7595,1.7595,1.7288,1.7273,1.7398,1.7398,1.7501,1.7709,1.7785,1.7861,1.7936,1.8012,1.805,1.805,1.805,1.7882,1.7557,1.6948,1.6581,1.6425,1.5631,1.5285,1.5228,1.5228,1.5187,1.513,0.0,0.0,0.0,0.0,0.0,2.59,2.6603,2.7286,2.7975,2.8593,2.9692,3.0498,3.0673,3.158,3.2365,3.2742,3.3296,3.3707,3.3881,3.4222,3.4428,3.4428,3.4426,3.4655,3.5032,3.5317,3.5445,3.5478,3.5161,3.4916,3.4712,3.4714,3.4463,3.4218,3.3968,3.3508,3.2772,3.1721,3.0505,2.9231,2.8719,2.8026,2.7302,0.0,0.0,0.0,0.0,0.0,0.0,0.0,0.0,0.0,0.0,0.0,0.0,0.0,0.0,0.0,0.0,0.0,0.0,0.0,0.0,0.0,0.0,0.0,0.0,0.0,0.0,0.0,0.0,0.0,0.0,0.0,0.0,0.0,0.0,0.0,1.8523,1.8779,1.8616,1.8513,1.8821,1.8623,1.8371,1.8371,1.8148,1.7931,1.8011,1.7712,1.766,1.7731,1.7578,1.7558,1.7832,1.7832,1.7908,1.805,1.8116,1.8154,1.8154,1.8229,1.8258,1.8258,1.8258,1.7938,1.7609,1.7137,1.6977,1.6638,1.588,1.5512,1.5512,1.5512,1.5512,1.5512,0.0,0.0,0.0,0.0,0.0,2.6578,2.7113,2.805,2.8923,2.9369,3.0124,3.0834,3.1361,3.1913,3.2717,3.3796,3.3922,3.4173,3.47,3.5119,3.5258,3.5282,3.5819,3.6206,3.6435,3.6255,3.626,3.6758,3.6541,3.6607,3.6901,3.6556,3.6092,3.5509,3.5157,3.4686,3.4093,3.3735,3.2246,3.0115,2.9741,2.9244,2.8487,0.0,0.0,0.0,0.0,0.0,0.0,0.0,0.0,0.0,0.0,0.0,0.0,0.0,0.0,0.0,0.0,0.0,0.0,0.0,0.0,0.0,0.0,0.0,0.0,0.0,0.0,0.0,0.0,0.0,0.0,0.0,0.0,0.0,1.8638,1.8838,1.8801,1.8778,1.857,1.856,1.8581,1.8346,1.8319,1.833,1.8079,1.8143,1.8358,1.7893,1.7832,1.804,1.805,1.805,1.8059,1.8059,1.8059,1.8068,1.8267,1.8361,1.8371,1.8579,1.8673,1.8673,1.8673,1.8346,1.8019,1.7536,1.7044,1.6673,1.5827,1.5536,1.5536,1.5536,1.5536,1.5536,0.0,0.0,0.0,0.0,0.0,2.6651,2.7484,2.8276,2.9048,3.0177,3.0753,3.1386,3.1913,3.3038,3.3832,3.4161,3.4894,3.54,3.5552,3.6207,3.6718,3.6922,3.7494,3.7808,3.7855,3.7926,3.824,3.8493,3.7938,3.763,3.7565,3.7354,3.6949,3.6382,3.6132,3.5607,3.4909,3.4327,3.3355,3.2213,3.1245,3.0449,2.9776,0.0,0.0,0.0,0.0,0.0,0.0,0.0,0.0,0.0,0.0,0.0,0.0,0.0,0.0,0.0,0.0,0.0,0.0,0.0,0.0,0.0,0.0,0.0,0.0,0.0,0.0,0.0,0.0,0.0,0.0,0.0,1.9037,1.8883,1.8883,1.8812,1.8842,1.8822,1.878,1.8787,1.8815,1.8449,1.8394,1.8552,1.8154,1.8055,1.8112,1.7965,1.7983,1.805,1.805,1.8116,1.8267,1.8267,1.8352,1.8503,1.856,1.8588,1.8588,1.8645,1.8673,1.8673,1.8337,1.8092,1.7723,1.7233,1.6985,1.6566,1.604,1.5902,1.5902,1.5902,1.5902,1.5902,0.0,0.0,0.0,0.0,0.0,2.714,2.8052,2.8699,2.9551,3.0507,3.114,3.1776,3.2331,3.3563,3.4525,3.4754,3.557,3.6182,3.6412,3.6995,3.7635,3.8341,3.8589,3.8931,3.9055,3.9272,3.9478,3.9698,3.9024,3.878,3.8757,3.8562,3.8216,3.7857,3.7508,3.6972,3.6223,3.5728,3.4964,3.4003,3.3075,3.2097,3.0953,2.9756,2.8785,2.8202,2.7419,2.6573,2.577,2.5219,0.0,0.0,0.0,0.0,0.0,0.0,0.0,0.0,0.0,0.0,0.0,0.0,0.0,0.0,0.0,0.0,0.0,0.0,0.0,0.0,0.0,0.0,0.0,0.0,1.916,1.8899,1.8864,1.8849,1.8937,1.9009,1.8833,1.8724,1.8767,1.8485,1.8231,1.8356,1.8207,1.8087,1.8172,1.8172,1.822,1.8305,1.8314,1.8371,1.8484,1.8484,1.855,1.8673,1.8673,1.8721,1.8806,1.8806,1.8688,1.8597,1.8422,1.7987,1.7423,1.7255,1.6825,1.656,0.0,0.0,0.0,0.0,1.6154,1.6146,0.0,0.0,0.0,2.6311,2.7066,2.7829,2.8624,2.9351,3.0005,3.0608,3.1352,3.2047,3.2599,3.3922,3.4904,3.5391,3.6006,3.6713,3.7262,3.7661,3.8256,3.9322,3.9496,3.971,4.0152,4.0158,4.0255,4.0588,3.9955,3.9873,4.0163,3.987,3.9656,3.9463,3.9066,3.8438,3.7806,3.7445,3.6684,3.5636,3.4831,3.3629,3.2148,3.0734,3.0035,2.9846,2.8399,2.7398,2.661,2.6042,0.0,0.0,0.0,0.0,0.0,0.0,0.0,0.0,0.0,0.0,0.0,0.0,0.0,0.0,0.0,0.0,0.0,0.0,0.0,0.0,0.0,0.0,0.0,0.0,1.9051,1.899,1.8957,1.8839,1.8912,1.9108,1.8722,1.8475,1.869,1.8236,1.8097,1.8116,1.8116,1.8201,1.838,1.839,0.0,0.0,0.0,1.8673,1.8673,1.8673,1.8692,1.8711,1.8711,1.8815,1.9014,1.9014,1.8773,1.8603,1.8434,1.7935,1.7281,1.7111,1.6958,1.6633,1.6592,1.6584,1.656,1.6397,1.6332,1.6308,0.0,0.0,0.0,2.6551,2.7212,2.7977,2.8775,2.9428,3.0156,3.111,3.158,3.2199,3.3132,3.4658,3.5579,3.5683,3.6638,3.7577,3.839,3.9005,3.9546,3.9905,4.036,4.0601,4.0724,4.0942,4.1174,4.1347,4.1205,4.1046,4.0761,4.0699,4.0218,3.9712,3.9192,3.8438,3.7806,3.7445,3.6891,3.6105,3.5275,3.4193,3.2986,3.1482,3.0528,2.9922,2.9046,2.8223,2.7432,2.6864,2.6104,2.5357,2.448,2.362,0.0,0.0,0.0,0.0,0.0,0.0,0.0,0.0,0.0,0.0,0.0,0.0,0.0,0.0,0.0,0.0,0.0,0.0,0.0,1.977,1.937,1.8988,1.9396,1.8845,1.8404,1.8444,1.8485,1.8542,1.8436,1.8455,1.8371,1.8541,1.856,1.8569,1.8607,1.8617,1.8636,1.8673,1.8673,1.8673,1.8673,1.8673,1.8758,1.8919,1.8919,0.0,1.9231,1.8885,1.8566,1.8603,1.7756,1.7503,1.7476,1.6968,1.6885,1.6982,1.669,1.6584,1.6576,1.6544,1.6527,1.6519,0.0,0.0,0.0,2.6943,2.7458,2.8151,2.9151,2.9603,3.0259,3.1423,3.1792,3.2388,3.3623,3.5072,3.5947,3.5947,3.7274,3.8376,3.9136,3.9633,4.0002,4.0465,4.0974,4.1347,4.1304,4.1693,4.2051,4.225,4.1962,4.1757,4.1774,4.1545,4.1181,4.0806,4.03,3.9664,3.9024,3.8529,3.7863,3.7115,3.6091,3.51,3.3988,3.2343,3.1351,3.0812,2.9916,2.8902,2.8002,2.7454,2.6646,2.5926,2.5133,2.4428,2.3792,0.0,0.0,0.0,0.0,0.0,0.0,0.0,0.0,0.0,0.0,0.0,0.0,0.0,0.0,1.9702,1.9678,0.0,1.9514,1.973,1.9543,1.917,1.9244,1.8856,1.8681,1.8681,1.862,1.8606,1.8494,1.8513,1.856,1.8664,1.8673,1.8673,1.8673,1.8673,1.8673,1.8673,1.8673,1.8721,1.8825,1.8825,1.8928,1.9136,1.9136,1.9081,1.9108,1.8937,1.847,1.8225,1.7707,1.7413,1.7322,1.6982,1.7031,1.7096,1.6917,1.6844,1.6836,1.6747,1.6714,1.6706,0.0,0.0,0.0,2.7311,2.7804,2.845,2.9628,2.9804,3.0259,3.1584,3.1954,3.2632,3.3959,3.5331,3.6201,3.6436,3.7848,3.8972,3.9573,3.9927,4.0301,4.087,4.1463,4.1732,4.1732,4.2188,4.2698,4.2922,4.2438,4.2377,4.255,4.2397,4.2177,4.1934,4.1421,4.0928,4.0279,3.9473,3.8735,3.7984,3.6983,3.5932,3.4999,3.334,3.2306,3.1683,3.0672,2.9646,2.8469,2.789,2.7229,2.6377,2.5678,2.5294,2.4877,2.4156,2.37,0.0,0.0,0.0,0.0,0.0,0.0,0.0,0.0,0.0,2.0221,1.9894,1.9912,1.9922,1.9459,1.9679,1.9966,1.9618,1.9496,1.9306,1.9088,1.8937,1.8862,1.8901,1.8579,1.8484,1.8654,1.8673,1.8673,1.8673,1.8673,1.8673,1.8673,1.8673,1.8692,1.873,1.873,1.8834,1.9032,1.9042,1.9146,1.9354,1.9184,1.9126,1.8977,1.8804,1.8374,1.7822,1.7647,1.7463,1.7112,1.7112,1.7112,1.7112,1.7112,1.7112,1.7096,1.6958,1.6901,1.6885,0.0,0.0,0.0,0.0,0.0,2.8975,2.9704,2.9804,3.0259,3.1584,3.1954,3.2632,3.3959,3.5331,3.6541,3.7612,3.8318,3.8972,3.9573,4.0122,4.0473,4.0844,4.1672,4.197,4.1732,4.2188,4.2698,4.2922,4.3037,4.2976,4.2919,4.3145,4.2879,4.2166,4.155,4.0928,4.0279,3.9473,3.8925,3.8555,3.739,3.6395,3.563,3.4744,3.3311,3.1759,3.1308,3.0272,2.9022,2.8603,2.7744,2.6793,2.5846,2.5258,2.476,2.3952,2.3464,2.2989,2.2289,2.1968,2.1505,2.1128,2.0928,2.0844,0.0,0.0,2.0178,2.0063,1.9895,1.986,1.9959,1.9752,1.9639,2.007,1.9552,1.9108,1.9502,1.8964,1.8589,1.8779,1.8645,1.8645,1.8673,1.8673,1.8673,1.8673,1.8673,1.8673,1.8673,1.8673,1.8758,1.8938,1.8947,1.9042,1.9259,1.9259,1.9363,1.9562,1.9228,1.8986,1.9177,1.8313,1.7805,1.7822,1.7288,1.7112,1.7112,1.7112,1.7112,1.7112,1.7112,1.7112,1.7112,1.7088,1.708,1.708,0.0,0.0,0.0,0.0,0.0,2.9126,2.9704,2.9804,3.0337,3.1826,3.2034,3.2632,3.41,3.5331,3.6436,3.7299,3.8187,3.8972,3.9573,4.0122,4.0572,4.1071,4.1905,4.2288,4.197,4.2604,4.3012,4.3128,4.3321,4.3384,4.3309,4.334,4.3075,4.257,4.1678,4.1187,4.0799,3.9888,3.9341,3.8904,3.7805,3.6697,3.5711,3.4883,3.3564,3.2119,3.1747,3.0678,0.0,2.887,2.7887,2.6881,2.6177,2.5512,2.4916,2.4068,2.3825,2.3529,2.2846,2.2198,0.0,0.0,2.1002,2.0809,2.0835,2.0629,2.038,2.0248,2.0127,1.997,1.9774,1.9875,1.9984,0.0,1.9657,1.9421,1.9614,1.895,1.8579,1.8664,1.8673,1.8673,1.8673,1.8673,1.8673,1.8673,1.8673,1.873,1.8843,1.8853,1.8947,1.9155,1.9165,1.9259,1.9467,1.9477,1.9581,1.9788,1.9259,1.8958,1.8689,1.8173,1.7647,1.7463,1.7112,1.7112,1.7112,1.7112,1.7112,1.7112,1.7112,1.7112,1.7112,1.7112,1.7112,1.7112,0.0,0.0,0.0,0.0,0.0,2.9302,2.9729,2.9856,3.0416,3.1906,3.2114,3.2791,3.4502,3.5521,3.6358,3.6959,3.7926,3.8736,3.9311,3.9886,4.0461,4.1036,4.1879,4.2239,4.2076,4.2805,4.3199,4.3333,4.3407,4.35,4.3675,4.3298,4.306,4.2949,4.1934,4.1444,4.1187,4.0279,3.954,3.8997,3.8005,3.6876,3.555,3.4972,3.3809,3.2384,3.2062,3.0991,2.9687,2.9101,2.8234,2.7102,2.6587,2.5886,2.5265,2.4515,2.4052,2.365,2.2972,0.0,0.0,2.1538,2.123,2.1108,2.1241,2.0946,2.0468,2.0363,2.0162,1.9894,1.9596,1.993,2.0231,2.0296,2.0022,1.9824,1.9715,1.9219,1.8837,1.8673,1.8673,1.8673,1.8673,1.8673,1.8673,1.8673,1.873,1.8825,1.8966,1.9032,1.9165,1.9373,1.9382,1.9477,1.9684,1.9684,1.976,1.9737,1.9214,1.8689,1.8339,1.7814,1.7463,1.7112,1.7112,1.7112,1.7112,1.7112,1.7112,1.7112,1.7112,1.7112,1.7112,1.7112,1.7112,1.7112,0.0,0.0,0.0,0.0,0.0,2.9779,2.9804,2.9934,3.0546,3.188,3.23,3.3109,3.5077,3.5783,3.6358,3.6959,3.756,3.8161,3.871,3.9311,3.9886,4.0409,4.1256,4.1827,4.2076,4.2449,4.2846,4.3333,4.3037,4.3252,4.3917,4.2942,4.2832,4.32,4.2166,4.155,4.1315,4.0539,3.9606,3.8529,3.8119,3.68,3.5107,3.5107,3.3936,3.2422,3.2403,3.1248,2.9758,2.974,2.8841,2.7664,2.7283,2.6631,2.5976,2.5221,2.4057,2.3014,2.2635,2.2191,2.181,2.1658,2.1659,2.1525,2.1533,2.1061,2.0649,2.066,2.0269,1.9833,1.9833,2.0048,2.0285,2.0511,2.0443,2.0185,2.0089,1.9632,1.9153,1.8673,1.8673,1.8673,0.0,1.8673,1.8673,1.8673,1.8853,1.8966,1.8976,1.9174,1.9382,1.9581,1.959,1.9694,1.9911,1.9911,1.9737,1.9204,1.8689,1.8339,1.7822,1.7288,1.7112,1.7112,1.7112,1.7112,1.7112,1.7112,1.7112,1.7112,1.7112,1.7112,1.7112,1.7112,1.7112,1.7112,0.0,0.0,0.0,0.0,0.0,0.0,2.9804,2.9934,3.0546,3.188,3.3027,0.0,0.0,0.0,0.0,0.0,3.6959,3.7717,3.8658,3.9285,3.986,4.0383,4.1432,4.1931,4.1827,4.2541,4.2881,4.2821,4.2896,4.2977,4.3228,4.2616,4.2394,4.2315,4.1453,4.0831,4.033,3.9825,3.9082,3.7997,3.7551,3.6497,3.5067,3.4765,3.3681,3.2422,0.0,3.1433,3.013,2.9864,2.8904,2.7615,2.7256,2.6408,2.5282,2.4597,2.3865,2.3245,2.2916,2.2506,2.2051,2.1735,2.1549,2.1545,2.1679,2.1202,2.0717,2.09,2.0402,1.9898,2.0059,2.0285,2.0522,2.0748,2.0676,2.0372,2.012,1.9642,1.9153,1.8673,1.8673,0.0,0.0,0.0,1.873,1.8862,1.8938,1.9099,1.9373,1.9458,1.959,1.9807,1.9807,1.9845,1.9921,1.9921,1.9737,1.9204,1.8339,1.7822,1.7288,1.7112,1.7112,1.7112,1.7112,1.7112,1.7112,1.7112,1.7112,1.7112,1.7112,1.7112,1.7112,1.7112,1.7112,1.7112,0.0,0.0,0.0,0.0,0.0,0.0,0.0,0.0,0.0,0.0,0.0,0.0,0.0,0.0,0.0,0.0,0.0,3.7403,3.837,3.8972,3.9547,4.0095,4.1036,4.1615,4.1724,4.2134,4.2404,4.262,4.2438,4.2528,4.2922,4.2327,4.1994,4.1821,4.119,4.0578,3.9837,3.9566,3.8707,3.7508,3.721,3.6248,3.4825,3.4524,3.3544,0.0,3.2251,3.1396,3.0325,2.993,2.8939,2.7866,2.7376,2.6257,2.4862,2.4271,2.3792,2.3323,2.2939,2.2458,2.2089,2.2007,2.1775,2.1691,2.1957,2.1562,2.1015,2.1026,2.0609,2.0049,2.0048,2.035,2.0608,2.0759,2.09,2.0627,2.0292,1.9805,1.9316,1.9,1.8837,1.8673,0.0,0.0,0.0,1.8966,1.9051,1.924,1.9581,1.9675,1.9779,1.9911,1.9921,1.9921,1.9921,1.9921,1.9563,1.8855,1.7989,1.7463,1.7112,1.7112,1.7112,1.7112,1.7112,1.7112,1.7112,1.7112,1.7112,1.7112,1.7112,1.7112,1.7112,1.7112,1.7112,1.7112,0.0,0.0,0.0,0.0,0.0,0.0,0.0,0.0,0.0,0.0,0.0,0.0,0.0,0.0,0.0,0.0,0.0,0.0,3.7821,3.8397,3.8972,3.9547,4.0122,4.0833,4.1621,4.1415,4.1664,4.2518,4.1693,4.1791,4.2823,4.1894,4.1591,4.1727,4.1341,4.0732,3.9747,3.9747,3.8715,3.7061,3.7061,3.6019,3.4383,3.4383,3.3505,3.2308,3.1891,3.1119,3.0307,2.9917,2.9151,2.813,2.7334,2.613,2.4902,2.4224,2.3693,2.3351,2.2828,2.2486,2.2203,2.231,2.2166,2.1957,2.2211,2.196,2.1522,2.1222,2.0759,2.0447,0.0,0.0,2.0565,2.0576,2.0974,2.1114,2.0627,2.0292,1.9805,0.0,0.0,0.0,0.0,0.0,0.0,1.8995,1.9193,1.9401,1.9599,1.9807,1.9921,1.9921,1.9921,1.9921,1.9921,1.9921,1.9388,1.8514,1.7639,1.7112,1.7112,1.7112,1.7112,1.7112,1.7112,1.7112,1.7112,1.7112,1.7112,1.7112,1.7112,1.7112,1.7112,1.7112,1.7112,1.7112,0.0,0.0,0.0,0.0,0.0,0.0,0.0,0.0,0.0,0.0,0.0,0.0,0.0,0.0,0.0,0.0,0.0,0.0,3.7194,3.8161,3.8789,3.8919,3.9886,4.0441,4.0754,4.1106,4.1386,4.1667,4.1031,4.1053,4.1717,4.1015,4.0616,4.0622,4.0505,3.9794,3.8761,3.8761,3.7923,3.6593,3.6593,3.5581,3.394,3.394,3.2878,3.1475,3.1361,3.053,2.9545,2.9427,2.8555,0.0,0.0,2.5727,2.4902,0.0,0.0,2.3623,2.2587,2.2497,2.2708,2.2129,2.2165,2.2174,2.2247,2.196,2.166,2.151,2.121,2.0815,0.0,0.0,0.0,2.0791,2.1082,0.0,2.0627,2.0465,0.0,1.9316,0.0,1.9,1.8673,1.8862,0.0,0.0,1.9401,1.9618,1.9826,1.9892,1.9921,1.9921,1.9921,1.9921,1.9921,1.9214,1.8689,1.8514,1.7639,1.7112,1.7112,1.7112,1.7112,1.7112,1.7112,1.7112,1.7112,1.7112,1.7112,1.7112,1.7112,1.7112,1.7112,1.7112,1.7112,1.7112,0.0,0.0,0.0,0.0,0.0,0.0,0.0,0.0,0.0,0.0,0.0,0.0,0.0,0.0,0.0,0.0,0.0,0.0,0.0,3.7612,3.8187,3.8684,3.9311,3.9816,4.0213,4.0462,4.0722,4.1129,4.0401,4.0389,4.0955,4.0377,3.9849,3.9541,3.9541,3.8874,3.773,3.773,3.7,0.0,0.0,3.4914,3.3477,3.3477,3.2588,3.1134,3.0963,2.991,2.8515,2.8545,0.0,2.6666,2.628,2.5457,2.451,2.4102,0.0,2.348,2.2615,2.2688,2.2911,2.2153,2.215,2.2259,2.2259,2.2109,2.196,2.166,2.151,0.0,2.095,2.1164,0.0,0.0,0.0,0.0,2.0941,2.079,2.0465,0.0,1.9479,0.0,1.9,1.9104,1.9165,0.0,1.9486,1.9694,1.9911,1.9921,1.9921,1.9921,1.9921,1.9921,1.9921,1.9214,1.8689,1.8514,1.7814,1.7288,1.7112,1.7112,1.7112,1.7112,1.7112,1.7112,1.7112,1.7112,1.7112,1.7112,1.7112,1.7112,1.7112,1.7112,1.7112,1.7112,0.0,0.0,0.0,0.0,0.0,0.0,0.0,0.0,0.0,0.0,3.3143,3.3718,0.0,0.0,0.0,0.0,0.0,0.0,0.0,0.0,3.7482,3.8553,3.8684,3.9086,3.9783,3.9642,4.0006,4.0692,3.9929,3.9824,4.0389,3.9733,3.9181,3.8671,3.8671,3.8019,3.6901,3.6901,3.6187,3.4997,3.4997,3.4247,3.3015,0.0,3.2133,3.0963,3.0483,2.9161,2.7582,2.766,2.6966,2.6084,2.613,2.5187,2.3966,2.3966,2.3666,2.3306,2.2846,2.2853,2.2999,2.2496,2.2408,2.2259,2.2259,2.2259,2.2259,2.181,2.181,2.166,2.1222,2.1265,2.1505,2.129,0.0,2.1486,2.1405,2.0952,2.0627,2.0627,1.9805,1.9316,1.9316,1.9385,1.9297,1.9297,1.9514,1.9722,1.9911,1.9921,1.9921,1.9921,1.9921,1.9921,1.9921,1.9388,1.903,1.8514,1.7998,1.7471,1.7112,1.7112,1.7112,1.7112,1.7112,1.7112,1.7112,1.7112,1.7112,1.7112,1.7112,1.7112,1.7112,1.7112,1.7112,1.7112,0.0,0.0,0.0,0.0,0.0,0.0,0.0,0.0,0.0,0.0,3.2777,3.3247,0.0,0.0,0.0,0.0,0.0,0.0,0.0,0.0,0.0,3.8004,3.8475,3.8721,3.8644,3.9257,3.9648,3.9576,3.9183,3.9259,3.98,3.9153,3.8847,3.8671,3.8671,3.8019,3.6901,3.6901,3.6187,3.4997,3.4997,3.408,3.2572,3.2572,0.0,0.0,2.8864,2.8078,2.7548,2.7234,2.647,2.5764,2.6054,2.5187,2.3966,2.3966,2.3817,2.3559,2.3184,2.3284,2.3239,2.2843,2.2558,2.2259,2.2259,2.2259,0.0,0.0,2.2259,2.2109,2.166,2.172,2.1812,2.1757,0.0,0.0,0.0,0.0,2.0952,0.0,0.0,0.0,0.0,0.0,0.0,0.0,1.9647,1.9883,1.9921,1.9921,1.9921,1.9921,1.9921,1.9921,1.9921,1.9388,1.903,1.8514,1.7998,1.7471,1.7112,1.7112,1.7112,1.7112,1.7112,1.7112,1.7112,1.7112,1.7112,1.7112,1.7112,1.7112,1.7112,1.7112,1.7112,1.7112,0.0,0.0,0.0,0.0,0.0,0.0,0.0,3.0368,3.0933,3.2463,3.2698,3.3117,3.4267,3.4397,3.4397,0.0,0.0,0.0,0.0,0.0,0.0,3.7403,3.7978,3.8236,3.8144,3.8466,3.8707,3.8641,0.0,3.8546,3.8712,3.8369,3.8095,3.7872,3.7762,3.71,3.614,3.614,3.5439,3.4295,3.4295,3.3455,3.2109,3.2109,0.0,0.0,2.8498,2.7764,2.7486,2.701,2.636,2.5835,2.6111,2.5187,2.4224,2.4102,2.3873,2.3708,2.33,2.3352,2.3408,2.3264,2.2856,2.2558,2.2558,0.0,0.0,0.0,2.2259,2.2259,2.2109,2.2067,0.0,0.0,0.0,0.0,0.0,0.0,0.0,0.0,0.0,0.0,0.0,0.0,1.9466,1.9297,1.9684,1.9921,1.9921,1.9921,1.9921,1.9921,1.9921,1.9921,1.9921,1.9737,1.9388,1.8864,1.8339,1.7989,1.7463,1.7288,1.7112,1.7112,1.7112,1.7112,1.7112,1.7112,1.7112,1.7112,1.7112,1.7112,1.7112,1.7112,1.7112,1.7112,0.0,0.0,0.0,0.0,0.0,0.0,3.0368,3.0471,3.1061,3.2489,3.2803,3.3273,3.4293,3.4397,3.4397,0.0,0.0,0.0,0.0,0.0,0.0,0.0,0.0,0.0,3.7775,0.0,0.0,3.7715,3.7789,0.0,0.0,0.0,0.0,0.0,3.682,3.6168,3.5423,3.5312,3.4646,0.0,0.0,3.282,3.1787,0.0,0.0,0.0,0.0,2.7762,2.7453,2.6744,2.6356,2.6118,2.5973,2.5398,2.4495,2.4088,2.3901,2.3773,2.3324,2.3353,2.352,2.3446,2.3252,2.3005,2.3005,2.2707,0.0,2.2558,2.2558,2.2558,2.2408,2.2408,2.2343,0.0,2.2247,0.0,0.0,0.0,0.0,0.0,0.0,0.0,0.0,0.0,0.0,1.9466,1.9684,1.9921,1.9921,1.9921,1.9921,1.9921,1.9921,1.9921,1.9921,1.9921,1.9737,1.9204,1.8689,1.8164,1.7822,1.7288,1.7112,1.7112,1.7112,1.7112,1.7112,1.7112,1.7112,1.7112,1.7112,1.7112,1.7112,1.7112,1.7112,1.7112,0.0,0.0,0.0,0.0,0.0,0.0,3.0368,3.0804,3.1499,3.2541,3.3169,3.3744,3.4345,3.4397,3.4397,0.0,0.0,0.0,0.0,0.0,0.0,0.0,0.0,0.0,0.0,0.0,0.0,3.6945,3.7121,0.0,0.0,0.0,0.0,0.0,0.0,3.595,3.5423,3.5091,0.0,0.0,0.0,0.0,0.0,0.0,0.0,0.0,0.0,2.7762,2.7453,2.6744,0.0,2.6071,2.5681,2.5353,2.4766,2.4224,0.0,0.0,2.3354,2.3483,2.3627,2.3653,2.3408,2.329,2.329,0.0,2.3302,2.3302,2.3302,2.3154,2.2856,2.2856,2.2793,2.2609,2.2555,2.2362,0.0,0.0,0.0,0.0,0.0,0.0,0.0,2.0206,1.9962,1.9793,1.9847,1.9921,1.9921,1.9921,1.9921,1.9921,1.9921,1.9921,1.9921,1.9921,1.9737,1.9204,1.8689,1.8164,1.7822,1.7288,1.7112,1.7112,1.7112,1.7112,1.7112,1.7112,1.7112,1.7112,1.7112,1.7112,1.7112,1.7112,1.7112,1.7112,0.0,0.0,0.0,0.0,0.0,0.0,3.0139,3.0778,3.1498,3.2382,3.3141,3.3796,3.4345,3.4397,3.4397,3.4397,3.4397,0.0,0.0,0.0,0.0,0.0,0.0,0.0,0.0,0.0,3.6779,3.6326,3.6579,0.0,0.0,0.0,0.0,0.0,0.0,3.573,3.5423,3.4869,0.0,0.0,0.0,0.0,0.0,0.0,0.0,0.0,0.0,0.0,2.7677,2.66,0.0,0.0,2.5732,2.5434,0.0,0.0,2.4186,2.3915,2.3678,2.3487,2.343,2.3615,2.3445,2.3284,2.3452,0.0,2.3248,2.3413,2.3438,2.3302,2.3302,2.3005,2.2893,2.2854,2.2766,2.2769,2.2408,0.0,0.0,0.0,0.0,0.0,0.0,0.0,2.0239,1.999,1.9826,1.9921,1.9921,1.9921,1.9921,1.9921,1.9921,1.9921,1.9921,1.9921,1.9746,1.9563,1.9214,1.8689,1.8164,1.7814,1.7288,1.7112,1.7112,1.7112,1.7112,1.7112,1.7112,1.7112,1.7112,1.7112,1.7112,1.7112,1.7112,1.7112,0.0,0.0,0.0,0.0,0.0,2.9856,3.0088,3.0828,3.1598,3.2249,3.3109,3.3814,3.4178,3.423,3.423,3.423,3.423,0.0,0.0,0.0,0.0,0.0,0.0,0.0,0.0,0.0,3.6263,3.5908,3.5989,3.5966,0.0,0.0,3.6015,3.6075,0.0,0.0,0.0,0.0,0.0,0.0,0.0,0.0,0.0,0.0,0.0,0.0,0.0,0.0,0.0,0.0,0.0,0.0,0.0,0.0,2.5555,0.0,2.4374,2.4144,2.3942,2.3664,2.3507,2.3722,2.3559,2.3392,0.0,0.0,2.3284,2.3555,2.3619,2.3645,2.3574,2.3302,2.3005,2.2856,2.2998,2.2889,2.2412,2.2553,0.0,0.0,0.0,0.0,0.0,2.0703,2.0478,1.9883,1.9921,1.9921,1.9921,1.9921,1.9921,1.9921,1.9921,1.9921,1.9921,1.9921,1.9921,1.9921,1.9388,1.903,1.8514,1.7998,1.7471,1.7112,1.7112,1.7112,1.7112,1.7112,1.7112,1.7112,1.7112,1.7112,1.7112,1.7112,1.7112,1.7112,0.0,0.0,0.0,0.0,0.0,2.9856,3.0088,3.108,3.1898,3.2085,3.3034,3.37,3.3725,3.3725,3.3725,3.3725,3.3979,0.0,0.0,0.0,0.0,0.0,0.0,0.0,0.0,0.0,3.5908,3.562,3.5332,3.521,3.5218,3.4917,3.4996,3.5201,0.0,0.0,0.0,0.0,0.0,0.0,0.0,0.0,0.0,0.0,0.0,0.0,0.0,0.0,0.0,0.0,0.0,0.0,0.0,2.5848,2.5936,2.5219,2.4766,2.436,2.4102,2.3915,2.3858,2.3858,2.3823,2.3768,0.0,0.0,2.3861,2.4142,2.4209,2.4143,2.3992,2.3735,2.3302,2.3005,2.2998,2.2889,2.2412,2.2553,0.0,0.0,0.0,0.0,0.0,2.0869,2.0478,1.9883,1.9921,1.9921,1.9921,1.9921,1.9921,1.9921,1.9921,1.9921,1.9921,1.9921,1.9921,1.9921,1.9388,1.903,1.8514,1.7998,1.7471,1.7112,1.7112,1.7112,1.7112,1.7112,1.7112,1.7112,1.7112,1.7112,1.7112,1.7112,1.7112,1.7112,0.0,0.0,0.0,0.0,0.0,0.0,3.036,3.12,3.1945,3.2434,3.3181,3.3725,3.3725,3.3725,3.3725,3.3725,3.381,0.0,0.0,0.0,0.0,0.0,0.0,0.0,0.0,3.6098,3.5812,3.5332,3.5017,3.4822,3.4695,3.4551,3.4481,3.436,3.4261,3.3972,0.0,0.0,0.0,0.0,0.0,0.0,0.0,0.0,0.0,0.0,0.0,0.0,0.0,0.0,0.0,0.0,0.0,0.0,0.0,2.5348,2.5145,2.4766,2.436,2.4172,2.3969,2.3969,2.3763,2.3623,2.3827,0.0,2.3607,2.4102,2.4209,2.4289,2.4435,2.4044,2.3748,2.3302,2.3302,2.334,2.2889,0.0,0.0,0.0,0.0,0.0,0.0,0.0,2.0478,2.0404,2.0095,1.9921,1.9921,1.9921,1.9921,1.9921,1.9921,1.9921,1.9921,1.9921,1.9921,1.9921,1.9737,1.9388,1.903,1.8514,1.7989,1.7647,1.7288,1.7112,1.7112,1.7112,1.7112,1.7112,1.7112,1.7112,1.7112,1.7112,1.7112,1.7112,0.0,0.0,0.0,0.0,0.0,0.0,3.0532,3.1221,3.1833,3.2415,3.3056,3.3471,3.3471,3.3471,3.3471,3.3471,3.3471,0.0,0.0,0.0,0.0,0.0,0.0,0.0,3.5812,3.5716,3.5524,3.5017,3.4823,3.4433,3.4162,3.4193,3.3931,3.3549,3.3637,3.3331,0.0,0.0,0.0,0.0,0.0,0.0,2.9394,0.0,0.0,0.0,0.0,0.0,0.0,0.0,0.0,0.0,0.0,0.0,0.0,0.0,2.5317,2.5159,2.4873,2.4495,2.4224,2.4224,2.3952,2.3598,2.3639,0.0,2.3453,2.3915,2.4035,2.4168,2.4569,2.4341,2.3883,2.3451,2.3454,2.3495,2.3198,0.0,0.0,0.0,0.0,0.0,0.0,2.0874,2.0737,2.0588,2.0095,1.9921,1.9921,1.9921,1.9921,1.9921,1.9921,1.9921,1.9921,1.9921,1.9921,1.9921,1.9921,1.9563,1.9204,1.8864,1.8339,1.7822,1.7463,1.7288,0.0,1.7112,1.7112,1.7112,1.7112,1.7112,1.7112,1.7112,1.7112,1.7112,0.0,0.0,0.0,0.0,0.0,0.0,0.0,3.111,3.1637,3.219,3.2742,3.3068,3.3068,3.3068,3.3068,3.3068,3.3068,0.0,0.0,0.0,0.0,0.0,0.0,0.0,3.5596,3.5332,3.5017,3.4726,3.4531,3.4162,3.3668,3.3714,3.3438,3.2959,3.3128,3.2649,0.0,0.0,0.0,0.0,2.9026,2.8858,0.0,0.0,0.0,0.0,0.0,0.0,0.0,0.0,0.0,0.0,0.0,0.0,0.0,0.0,0.0,0.0,0.0,2.4902,2.451,2.451,2.4238,2.3952,2.3543,0.0,0.0,2.3789,2.3768,2.3941,2.4529,2.4341,2.3896,2.3451,2.3606,2.3495,2.3198,0.0,0.0,0.0,0.0,0.0,2.1442,2.1176,2.0898,2.0598,2.0269,1.9921,1.9921,1.9921,1.9921,1.9921,1.9921,1.9921,1.9921,1.9921,1.9921,1.9921,1.9921,1.9737,1.9204,1.9204,1.8689,1.7822,1.7822,1.7471,1.7112,1.7112,1.7112,1.7112,1.7112,1.7112,1.7112,1.7112,1.7112,1.7112,0.0,0.0,0.0,0.0,0.0,0.0,0.0,0.0,0.0,0.0,3.2993,3.3068,3.3068,3.3068,3.3068,0.0,0.0,0.0,0.0,0.0,0.0,0.0,0.0,0.0,3.5307,3.5017,3.4726,3.4531,3.4064,3.3767,3.3691,3.366,3.3436,3.3151,3.3331,3.274,0.0,0.0,0.0,0.0,2.8834,2.8466,0.0,0.0,0.0,0.0,2.7669,2.7771,0.0,0.0,0.0,0.0,0.0,0.0,0.0,0.0,2.518,2.5191,2.5128,0.0,2.4916,2.4916,2.4645,2.4224,0.0,2.3679,0.0,0.0,0.0,2.3941,2.4529,2.4488,2.4193,2.3587,2.3757,2.3803,2.3198,0.0,0.0,0.0,0.0,0.0,2.1776,2.1515,2.1412,2.1108,2.0781,2.0269,1.9921,1.9921,1.9921,1.9921,1.9921,1.9921,1.9921,1.9921,1.9921,1.9921,1.9921,1.9921,1.9746,1.9388,1.903,1.8864,1.8173,1.7822,1.7647,1.7288,1.7112,1.7112,1.7112,1.7112,1.7112,1.7112,1.7112,1.7128,0.0,0.0,0.0,0.0,0.0,0.0,0.0,0.0,0.0,0.0,3.3068,3.3068,3.3068,3.2982,3.2896,0.0,0.0,0.0,0.0,0.0,0.0,0.0,3.4789,3.4919,3.4823,3.4726,3.4433,3.4064,3.3866,3.3684,3.3614,3.3583,3.3524,3.3354,3.3068,3.2276,3.1296,3.0657,2.9962,2.9026,2.8834,0.0,0.0,0.0,0.0,0.0,2.7472,2.7576,0.0,2.7246,2.6709,2.6327,0.0,0.0,0.0,0.0,2.5014,2.4842,2.5046,2.51,2.5052,2.5052,2.4916,2.4645,2.4102,0.0,0.0,0.0,0.0,2.4102,2.4556,2.4488,2.4232,2.3616,2.3833,2.3736,0.0,0.0,0.0,0.0,0.0,2.1825,0.0,2.1948,2.1687,2.1292,2.0955,2.0443,1.9921,1.9921,1.9921,1.9921,1.9921,1.9921,1.9921,1.9921,1.9921,1.9921,1.9921,1.9921,1.9921,1.9563,1.9388,1.9204,1.8689,1.8173,1.7822,1.7471,1.7288,1.7112,1.7112,1.7112,1.7112,1.7112,1.7161,1.725,0.0,0.0,0.0,0.0,0.0,0.0,0.0,0.0,0.0,0.0,0.0,0.0,0.0,0.0,0.0,0.0,0.0,0.0,0.0,0.0,0.0,3.4435,3.4896,3.4823,3.4433,3.4335,3.4064,3.3668,3.3661,3.3715,3.3594,3.365,3.3675,3.3526,3.2749,3.1951,3.1186,3.0566,2.985,2.9126,2.8747,0.0,0.0,0.0,0.0,0.0,0.0,0.0,0.0,2.7125,2.6779,2.6571,2.6205,0.0,0.0,0.0,0.0,0.0,2.5031,2.5054,2.4993,2.5052,2.5052,2.4916,2.4238,0.0,0.0,0.0,0.0,0.0,0.0,0.0,0.0,2.3807,2.3666,2.3585,0.0,0.0,0.0,0.0,0.0,0.0,2.1965,2.2065,2.1995,2.1475,2.0955,2.0434,2.0095,1.9921,1.9921,1.9921,1.9921,1.9921,1.9921,1.9921,1.9921,1.9921,1.9921,1.9921,1.9921,1.9921,1.9737,1.9388,1.9204,1.8689,1.7998,1.7822,1.7647,1.7112,1.7112,1.7112,1.7112,1.7145,1.725,1.7396,0.0,0.0,0.0,0.0,0.0,0.0,0.0,0.0,0.0,0.0,0.0,0.0,0.0,0.0,0.0,0.0,0.0,0.0,0.0,0.0,0.0,3.4364,3.4483,3.4433,3.4433,3.4064,3.3767,3.3668,3.3582,3.3629,3.3617,3.3927,3.4054,3.3982,3.3311,3.2588,3.1774,3.0852,3.0008,2.9263,2.833,0.0,0.0,0.0,0.0,0.0,0.0,0.0,0.0,2.6796,2.6559,2.6571,2.6205,0.0,0.0,0.0,0.0,0.0,2.5031,2.4889,2.4715,2.4993,2.5052,2.4916,2.4238,2.419,0.0,0.0,0.0,0.0,0.0,0.0,0.0,0.0,0.0,2.3332,0.0,0.0,0.0,0.0,0.0,2.1986,2.1965,2.2395,2.2341,2.1995,2.1475,2.0955,2.0434,2.0095,1.9921,1.9921,1.9921,1.9921,1.9921,1.9921,1.9921,1.9921,1.9921,1.9921,1.9921,1.9921,1.9921,1.9746,1.9388,1.9204,1.8855,1.8173,1.7822,1.7647,1.7288,1.7112,1.7128,1.7291,1.7364,1.7429,0.0,0.0,0.0,0.0,0.0,0.0,0.0,0.0,0.0,0.0,0.0,0.0,0.0,0.0,0.0,0.0,0.0,0.0,0.0,3.3098,3.3458,3.4213,3.4064,3.4064,3.4064,3.3767,3.3707,3.366,3.3583,3.3659,3.3883,3.4076,3.3982,3.3861,3.3409,3.2684,3.1758,3.0883,3.0108,2.9362,0.0,0.0,0.0,0.0,0.0,0.0,0.0,0.0,0.0,0.0,2.6508,2.6571,2.6205,0.0,0.0,0.0,0.0,0.0,2.4985,2.471,2.4423,2.4935,2.4916,2.4689,2.4299,2.4303,0.0,0.0,0.0,0.0,0.0,0.0,0.0,0.0,0.0,0.0,0.0,0.0,0.0,0.0,0.0,2.1976,2.1965,2.2406,2.2514,2.1995,2.1822,2.1302,2.0607,2.0443,2.0095,1.9921,1.9921,1.9921,1.9921,1.9921,1.9921,1.9921,1.9921,1.9921,1.9921,1.9921,1.9921,1.9921,1.9737,1.9388,1.9204,1.8689,1.8339,1.7822,1.7647,1.7288,1.7145,1.7421,1.7591,1.7713,0.0,0.0,0.0,0.0,0.0,0.0,0.0,0.0,0.0,0.0,0.0,0.0,0.0,0.0,0.0,0.0,0.0,0.0,0.0,3.2936,3.3315,3.3941,3.379,3.3668,3.3668,3.3592,3.3522,3.3594,3.3605,3.3749,3.4186,3.4026,3.3861,3.3523,3.3182,3.252,3.1584,3.0701,2.9948,2.9282,0.0,0.0,0.0,0.0,0.0,0.0,0.0,0.0,0.0,0.0,0.0,0.0,0.0,0.0,0.0,2.5226,2.4673,2.436,2.4955,2.4665,2.4335,2.4771,2.4781,2.4445,2.4482,0.0,0.0,0.0,0.0,0.0,0.0,0.0,0.0,0.0,0.0,0.0,0.0,2.2728,2.2406,2.1761,2.185,2.1976,2.1965,2.2406,2.2514,2.2168,2.1995,2.1649,2.0955,2.0781,2.0443,2.0095,1.9921,1.9921,1.9921,1.9921,1.9921,1.9921,1.9921,1.9921,1.9921,1.9921,1.9921,1.9921,1.9921,1.9737,1.9388,1.9204,1.8864,1.8173,1.7822,1.7521,1.7274,1.7591,1.7819,1.7997,0.0,0.0,0.0,0.0,0.0,0.0,0.0,0.0,0.0,0.0,0.0,0.0,0.0,0.0,0.0,0.0,0.0,0.0,0.0,3.3173,3.3402,3.3767,3.3668,3.3668,3.3668,3.3192,3.3118,3.3594,3.3548,3.3746,3.4155,3.3727,3.3523,3.3182,3.2612,3.2113,3.1687,3.0505,2.9682,2.9007,2.7853,0.0,0.0,0.0,0.0,0.0,0.0,0.0,0.0,0.0,0.0,0.0,0.0,0.0,2.5488,2.5226,2.4844,2.4665,2.5031,2.483,2.4613,2.4559,2.4495,0.0,2.4482,2.4385,0.0,0.0,0.0,0.0,0.0,0.0,0.0,0.0,0.0,0.0,2.2728,0.0,2.2245,2.1438,2.1696,2.1986,2.1965,2.2406,2.2686,2.2686,2.2168,2.1995,2.1822,2.1128,2.0607,2.0607,2.0095,1.9921,1.9921,1.9921,1.9921,1.9921,1.9921,1.9921,1.9921,1.9921,1.9921,1.9921,1.9921,1.9921,1.9746,1.9379,1.9204,1.903,1.8164,1.767,1.7624,1.7827,1.8005,1.816,0.0,0.0,0.0,0.0,0.0,0.0,0.0,0.0,0.0,0.0,0.0,3.2138,3.2025,0.0,0.0,0.0,0.0,0.0,3.2371,3.2814,3.3157,3.3469,3.3292,3.3192,3.3192,3.2992,3.3073,3.3548,3.3726,3.3963,3.4086,3.3636,3.3182,3.282,3.2477,3.2018,3.1381,3.0393,2.9682,2.9045,2.7872,2.7206,0.0,0.0,0.0,0.0,0.0,0.0,0.0,0.0,2.583,2.5724,2.5968,2.5717,2.5226,2.5119,2.4859,2.4695,2.5031,2.4844,2.4509,2.4559,2.4516,0.0,0.0,2.4249,0.0,0.0,0.0,0.0,0.0,0.0,0.0,0.0,0.0,0.0,2.2728,2.2567,2.2245,2.1438,2.1696,2.1976,2.1986,2.2406,2.2686,2.2686,2.2514,2.2341,2.1995,2.1649,2.1128,2.0607,2.0443,2.0269,1.9921,1.9921,1.9921,1.9921,1.9921,1.9921,1.9921,1.9921,1.9921,1.9921,1.9921,1.9921,1.9921,1.9746,1.9388,1.9048,1.8294,1.804,1.8184,1.8075,1.803,1.8176,0.0,0.0,0.0,0.0,0.0,0.0,0.0,0.0,3.2463,0.0,0.0,0.0,0.0,3.1673,0.0,0.0,0.0,0.0,3.2088,3.2665,3.3123,3.317,3.2992,3.2791,3.2667,3.2667,3.2958,3.352,3.3944,3.3974,3.3749,3.3409,3.2955,3.2571,3.2248,3.1787,3.1265,3.0167,2.9458,2.8821,2.7763,2.7098,0.0,0.0,0.0,0.0,0.0,0.0,0.0,0.0,2.5629,2.5456,2.5918,2.5594,2.5103,2.5103,2.4937,2.4833,2.5062,2.4919,2.464,2.4452,2.4398,0.0,2.414,2.4139,2.4289,0.0,0.0,0.0,0.0,0.0,0.0,0.0,2.384,2.352,2.2728,2.2567,2.2245,2.1438,2.1685,2.1976,2.1986,2.2406,2.2686,2.2686,2.2686,2.2514,2.2168,2.2168,2.1649,2.1128,2.0781,2.0434,2.0095,1.9921,1.9921,1.9921,1.9921,1.9921,1.9921,1.9921,1.9921,1.9921,1.9921,1.9921,1.9921,1.9921,1.96,1.9332,1.8884,1.8785,1.8651,1.835,1.8264,1.8176,0.0,0.0,0.0,0.0,0.0,0.0,0.0,0.0,3.2025,3.2025,3.1849,0.0,0.0,0.0,0.0,0.0,0.0,0.0,3.2111,3.2794,3.3192,3.2891,3.2891,3.2566,3.2015,3.2015,3.2524,3.352,3.3833,3.3749,3.3203,3.3182,3.2841,3.2248,3.1903,3.1556,3.1149,2.9715,2.8897,2.8596,2.7434,2.6899,2.6591,0.0,0.0,0.0,0.0,0.0,0.0,0.0,2.5461,2.5126,2.5836,2.5594,2.5103,2.5103,2.5109,2.5123,2.5123,2.5084,2.4916,2.4238,0.0,0.0,2.391,2.3995,2.4143,2.3992,0.0,0.0,0.0,0.0,0.0,2.3804,2.384,2.352,2.2728,2.2567,2.2245,2.1438,2.1685,2.1965,2.1965,2.2395,2.2675,2.2686,2.2686,2.2686,2.2686,2.2341,2.1995,2.1995,2.1128,2.0607,2.0607,2.0095,1.9921,1.9921,1.9921,1.9921,1.9921,1.9921,1.9921,1.9921,1.9921,1.9921,1.9921,1.9921,1.9693,1.956,1.9961,1.9568,1.8676,1.8862,1.8549,1.8176,0.0,0.0,0.0,0.0,0.0,0.0,0.0,0.0,3.1937,3.1849,3.1761,0.0,0.0,0.0,0.0,0.0,0.0,0.0,3.1945,3.262,3.2992,3.2891,3.2465,3.2139,3.2015,3.1935,3.2206,3.2857,3.2937,3.3092,3.3203,3.2727,3.2363,3.1903,3.1556,3.1325,3.0937,2.9601,2.8897,2.8596,2.7434,2.6899,2.6591,0.0,0.0,0.0,0.0,0.0,0.0,0.0,0.0,0.0,2.5836,2.5594,2.5103,2.5103,2.5109,2.5123,2.5123,2.5084,0.0,0.0,0.0,0.0,0.0,0.0,0.0,0.0,0.0,0.0,0.0,0.0,0.0,2.3828,2.384,2.368,2.305,2.2728,2.2406,2.1761,2.1698,2.1782,2.1954,2.2256,2.2503,2.2675,2.2686,2.2686,2.2686,2.2514,2.2341,2.1995,2.1649,2.1302,2.0607,2.0434,2.0269,1.9921,1.9921,1.9921,1.9921,1.9921,1.9921,1.9921,1.9921,1.9921,1.993,2.0072,2.0084,2.012,2.0198,1.9831,1.941,1.9099,1.8549,1.8176,0.0,0.0,0.0,0.0,0.0,0.0,3.1937,3.1849,3.1849,3.1761,3.1673,3.1673,0.0,0.0,0.0,3.1176,3.1646,0.0,3.1956,3.2537,3.2768,3.2566,3.224,3.1913,3.1732,3.1499,3.1655,3.202,3.2395,3.2629,3.2841,3.2477,3.2018,3.1556,3.1441,3.1112,3.084,2.9488,2.8897,2.8596,2.7325,2.6791,2.6591,0.0,0.0,0.0,0.0,0.0,0.0,0.0,0.0,0.0,2.5836,2.5594,2.5103,2.5103,2.5109,2.5123,2.5123,0.0,0.0,0.0,0.0,0.0,0.0,0.0,0.0,0.0,0.0,0.0,2.3538,2.3731,0.0,2.384,2.384,2.368,2.3211,2.305,2.2567,2.1922,2.197,2.1882,2.1954,2.2191,2.2428,2.2665,2.2686,2.2686,2.2686,2.2686,2.2514,2.2341,2.2168,2.1649,2.1128,2.0781,2.0434,2.0269,1.9921,1.9921,1.9921,1.9921,1.9921,1.9921,1.9921,1.9968,2.0053,2.0261,2.0469,2.0686,2.0528,2.0308,1.9851,1.9488,1.893,1.8363,0.0,0.0,3.2313,3.2025,0.0,0.0,3.1761,3.1673,3.1673,3.1673,3.1673,3.1584,0.0,0.0,0.0,3.1344,3.1667,3.1888,3.2075,3.2596,3.2566,3.2015,3.1913,3.1732,3.1116,3.0931,3.0852,3.1105,3.1986,3.2321,3.2187,3.2227,3.1903,3.1325,3.1208,3.1112,3.0723,2.9298,2.871,2.8484,2.716,2.6628,2.6591,2.6245,0.0,0.0,0.0,0.0,0.0,0.0,0.0,0.0,2.5852,2.5717,2.5103,2.5103,2.5109,2.5123,0.0,0.0,0.0,0.0,0.0,0.0,0.0,0.0,0.0,0.0,0.0,0.0,2.3744,2.384,2.384,2.384,2.384,2.368,2.3359,2.3199,2.2889,2.2073,2.2111,2.2179,2.2099,2.2169,2.2395,2.2632,2.2675,2.2686,2.2686,2.2686,2.2686,2.2686,2.2341,2.1995,2.1995,2.1128,2.0607,2.0607,2.0095,1.9921,1.9921,1.9921,1.9921,1.9921,1.994,2.0053,2.0233,2.0469,2.0677,2.0866,2.1083,2.0788,2.0408,1.9851,1.9488,1.893,0.0,0.0,3.1849,3.1761,0.0,0.0,3.1673,3.1673,3.1673,3.1673,3.1496,3.1383,3.1318,3.0937,0.0,3.1344,3.1667,3.1888,3.2075,3.2374,3.2443,3.2015,3.1629,3.124,3.0931,3.0599,3.0622,3.0784,3.1345,3.1643,3.1717,3.1856,3.1672,3.1325,3.1112,3.0762,3.047,2.9604,2.8842,2.8295,2.7345,2.6866,2.6591,2.6026,2.5789,0.0,0.0,0.0,0.0,0.0,0.0,0.0,2.5957,2.5839,2.5488,2.5226,2.5109,2.5123,0.0,0.0,0.0,0.0,0.0,0.0,0.0,0.0,0.0,0.0,0.0,0.0,2.378,2.384,2.384,2.384,2.384,2.384,2.368,2.3359,2.3211,2.2889,2.2452,2.2089,2.2168,2.2088,2.2159,2.2395,2.2579,2.2686,2.2686,2.2686,2.2686,2.2686,2.2686,2.2341,2.1995,2.1822,2.1302,2.0607,2.0434,2.0269,1.9921,1.9921,1.9921,1.993,2.0091,2.0176,2.0251,2.062,2.08,2.0866,2.1083,2.0788,2.0408,2.0223,1.9666,1.893,0.0,0.0,0.0,0.0,0.0,0.0,0.0,0.0,3.1649,3.1496,3.1383,3.1205,3.1026,3.0991,0.0,0.0,3.1823,3.2036,3.2239,3.2286,3.2037,3.1629,3.1322,3.1013,3.062,3.0495,3.0412,3.0346,3.0694,3.1031,3.1349,3.1251,3.1242,3.1112,3.0995,3.0762,3.0353,2.9583,2.9049,2.848,2.7731,2.7343,2.716,2.6695,2.6359,2.6246,2.5683,0.0,0.0,0.0,0.0,0.0,0.0,0.0,2.5488,2.5226,2.5109,2.5052,0.0,0.0,0.0,0.0,0.0,0.0,0.0,0.0,0.0,0.0,0.0,2.4145,2.4111,2.4012,2.384,2.384,2.384,2.384,2.384,2.368,2.3371,2.3199,2.2717,2.2497,2.2583,2.2345,2.2419,2.266,2.2718,2.2686,2.2686,2.2686,2.2686,2.2686,2.2686,2.2514,2.2341,2.2168,2.1822,2.1302,2.0955,2.0607,2.0269,1.9921,1.9921,1.993,2.0129,2.028,2.0403,2.0715,2.0904,2.1007,2.1121,2.0983,2.0788,2.0408,2.0037,1.9488,0.0,0.0,0.0,0.0,0.0,0.0,0.0,0.0,0.0,3.1437,3.1347,3.1215,3.0924,3.1251,3.1529,0.0,0.0,0.0,3.2398,3.2117,3.1732,3.1219,3.1137,3.0909,3.0391,3.0391,3.0183,2.9994,3.0028,3.0316,3.0902,3.0724,3.0774,3.0781,3.0859,3.0645,3.0255,2.9659,2.9122,2.8681,2.8118,2.782,2.7765,2.7441,2.7097,2.6867,2.6504,2.6157,2.5994,2.6354,0.0,0.0,0.0,0.0,2.561,2.5226,2.5109,2.5076,0.0,0.0,0.0,0.0,0.0,0.0,0.0,0.0,0.0,0.0,2.4649,2.4302,2.4602,2.4172,2.3852,2.3852,2.384,2.384,2.384,2.384,2.368,2.3359,2.3211,2.3132,2.3004,2.2774,2.2688,2.2932,2.2834,2.2815,2.2675,2.2686,2.2686,2.2686,2.2686,2.2686,2.2686,2.2341,2.2168,2.1995,2.1475,2.1128,2.0607,2.0269,1.994,1.9987,2.0185,2.0393,2.0611,2.0818,2.1007,2.1168,2.1168,2.1168,2.1168,2.0788,2.0408,2.0223,0.0,0.0,0.0,0.0,0.0,0.0,0.0,0.0,0.0,0.0,3.1642,3.153,3.1855,3.1806,3.1869,3.2059,3.2052,3.2104,3.2095,0.0,0.0,3.1219,3.0931,3.0724,3.0391,3.0203,2.9994,2.9994,2.9509,2.9474,2.9997,3.0446,3.0596,3.0312,3.0703,3.0528,2.9922,2.9865,2.9287,2.8505,2.8333,2.8095,2.7765,2.7441,2.7097,2.6867,2.6504,2.6157,2.5994,2.6354,2.6491,0.0,0.0,0.0,2.5961,2.5226,2.5109,0.0,0.0,0.0,0.0,0.0,0.0,0.0,0.0,0.0,0.0,0.0,2.5281,2.51,2.5079,2.4652,2.4332,2.4332,2.4012,2.384,2.384,2.384,2.384,2.368,2.3359,2.3222,2.3085,2.2993,2.2763,2.2688,2.2752,2.2813,2.2675,2.2686,2.2686,2.2686,2.2686,2.2686,2.2686,2.2686,2.2341,2.1995,2.1475,2.1128,2.0607,2.0607,2.0365,2.0195,2.0403,2.0611,2.0818,2.1036,2.114,2.1168,2.1168,2.1168,2.1168,2.1168,2.0788,2.0408,0.0,0.0,0.0,0.0,0.0,0.0,0.0,0.0,0.0,0.0,0.0,3.1785,3.1921,3.2103,3.2162,3.2075,3.227,3.2196,3.1812,3.1629,3.1424,3.1034,3.0827,3.062,3.0203,3.0099,2.9994,2.9994,2.9343,2.9232,2.9454,2.9897,3.0094,3.0215,3.0684,3.0528,2.9922,2.9922,2.9474,2.8718,2.8718,2.8608,2.8443,2.8345,2.7975,2.7505,2.7388,2.7033,2.6593,2.6765,2.6816,2.673,2.652,0.0,0.0,0.0,2.5214,0.0,0.0,0.0,0.0,0.0,0.0,0.0,0.0,0.0,0.0,2.5729,2.5611,2.5373,2.5516,2.513,2.4811,2.4811,2.4652,2.4492,2.4172,2.4172,2.4172,2.384,2.368,2.3532,2.3532,2.3434,2.3306,2.3093,2.3302,2.3235,2.2824,2.2955,2.3031,2.2686,2.2686,2.2686,2.2686,2.2686,2.2686,2.2341,2.1995,2.1649,2.1302,2.0781,2.0375,2.0233,2.045,2.0658,2.0856,2.1083,2.1168,2.1168,2.1168,2.1168,2.1168,2.1168,2.0983,2.0788,0.0,0.0,0.0,0.0,0.0,0.0,0.0,0.0,0.0,0.0,0.0,3.2175,3.2144,0.0,0.0,0.0,3.2419,3.224,3.1629,3.1629,3.1322,3.0827,3.0827,3.0516,2.9994,2.9994,2.9994,2.9994,2.9343,2.9132,2.9152,2.949,2.9726,3.0059,3.0644,3.0528,2.9922,2.9922,2.9568,2.8975,2.8975,2.8975,2.8975,2.8975,2.8618,2.814,2.802,2.7659,2.7194,2.7073,2.7073,2.7073,2.6692,2.6449,0.0,0.0,0.0,2.5266,0.0,0.0,0.0,0.0,0.0,0.0,0.0,0.0,0.0,0.0,2.5908,2.5819,2.6029,2.5555,2.5289,2.5289,2.513,2.497,2.4652,2.4652,2.4492,2.4,2.4012,2.4,2.384,2.3698,2.3679,2.3575,2.3677,2.3618,2.3179,2.3243,2.3204,2.2859,2.2686,2.2686,2.2686,2.2686,2.2686,2.2686,2.2341,2.2168,2.1995,2.1302,2.0754,2.0486,2.0469,2.0686,2.0941,2.1102,2.1168,2.1168,2.1168,2.1168,2.1168,2.1168,2.1168,2.1168,0.0,0.0,0.0,0.0,0.0,0.0,0.0,0.0,0.0,0.0,0.0,3.265,3.3155,3.3224,3.3024,3.2499,3.2521,3.224,3.1629,3.1629,3.1322,3.0827,3.0827,0.0,2.9994,2.9994,2.9994,2.9994,2.9343,2.9132,2.9152,2.949,2.959,2.9648,3.0508,3.0528,2.9922,2.9922,2.9568,2.8975,2.8975,2.8975,2.8975,2.8975,2.8755,2.8397,2.814,2.7762,2.7401,2.7194,2.7073,2.7073,2.6692,2.6571,2.6449,0.0,0.0,0.0,0.0,0.0,0.0,0.0,0.0,0.0,0.0,0.0,0.0,2.6206,2.6363,2.6669,2.6539,2.6042,2.5753,2.5753,2.5448,2.513,2.513,2.513,2.497,2.4492,2.4492,2.4332,2.384,2.3852,2.3812,2.3563,2.3833,2.3937,2.3687,2.3585,2.3376,2.3376,2.2859,2.2686,2.2686,2.2686,2.2686,2.2686,2.2686,2.2514,2.1995,2.1995,2.171,2.1054,2.0715,2.0771,2.1159,2.1168,2.1168,2.1168,2.1168,2.1168,2.1168,2.1168,2.1168,2.1168,0.0,0.0,0.0,0.0,0.0,0.0,0.0,0.0,0.0,0.0,0.0,0.0,0.0,3.3192,3.2869,3.2544,3.2139,3.1834,3.1629,3.1629,3.1322,3.0827,3.0827,3.0516,2.9994,2.9994,2.9994,2.9994,2.9343,2.9132,2.9152,2.949,2.957,2.9609,3.0488,3.0528,2.9922,2.9922,2.9568,2.8975,2.8975,2.8975,2.8975,2.8975,2.8755,2.8397,2.814,2.7762,2.7401,2.7194,2.7073,2.7073,2.6952,2.6813,2.6499,2.5993,2.6023,2.6215,2.6174,0.0,0.0,0.0,0.0,0.0,0.0,0.0,2.6324,2.6489,2.6495,2.657,2.6933,2.6813,2.6544,2.6228,2.607,2.5911,2.5594,2.5594,2.5435,2.497,2.4652,2.4492,2.4332,2.4012,2.3728,2.3651,2.3901,2.3998,2.3937,2.4024,2.3904,2.3365,2.3204,2.3031,2.2686,2.2686,2.2686,2.2686,2.2686,2.2686,2.2514,2.2315,2.2205,2.2158,2.176,2.1442,2.1168,2.1168,2.1168,2.1168,2.1168,2.1168,2.1168,2.1168,2.1168,2.1168,0.0,0.0,0.0,3.4823,0.0,3.4335,3.4162,3.3866,3.3568,3.3392,0.0,0.0,0.0,0.0,3.2768,3.2342,3.1936,3.1629,3.1629,3.1629,3.1322,3.0827,3.0827,3.0516,2.9994,2.9994,2.9994,2.9994,2.9343,2.9132,2.9152,2.949,2.957,2.9609,3.0488,3.0528,2.9922,2.9922,2.9568,2.8975,2.8975,2.9067,2.9177,2.9177,2.9148,2.9034,2.8653,2.841,2.8044,2.7678,2.7572,2.745,2.745,2.7204,2.6884,2.6876,2.6775,2.6778,2.674,2.6745,0.0,0.0,0.0,0.0,0.0,0.0,2.7027,2.71,2.692,2.6823,2.7098,2.713,2.7098,2.6819,2.6702,2.6544,2.6228,2.607,2.5911,2.5448,2.513,2.4811,2.4652,2.4332,2.4,2.4,2.4094,2.4184,2.4116,2.4388,2.4152,2.3709,2.3548,2.3204,2.2859,2.2859,2.2686,2.2686,2.2686,2.2686,2.2686,2.2574,2.2641,2.2694,2.2563,2.2059,2.1353,2.1353,2.1353,2.1168,2.1168,2.1168,2.1168,2.1168,2.1168,2.1168,3.4823,3.4823,3.4823,3.4823,3.4531,3.4335,3.4162,3.3889,3.3568,3.3269,0.0,0.0,0.0,0.0,0.0,3.2015,3.1732,3.1629,3.1629,3.1629,3.1322,3.0827,3.0827,3.0516,2.9994,2.9994,2.9994,2.9994,2.9343,2.9132,2.9172,2.949,2.957,2.9629,3.0508,3.0528,2.9922,2.9922,2.9568,2.8975,2.8993,2.9232,2.9562,2.958,2.9837,3.0204,2.9813,2.944,2.919,2.8797,2.8438,2.8186,2.8186,2.7933,2.7748,2.8118,2.7718,2.7279,0.0,0.0,0.0,0.0,0.0,0.0,2.7676,0.0,2.7985,2.7695,2.7804,2.7733,2.7006,2.7101,2.7364,2.7507,2.7319,2.7018,2.7018,2.6702,2.6228,2.5911,2.5753,2.5594,2.513,2.4811,2.4492,2.4492,2.4243,2.4335,2.4601,2.4388,2.4322,2.4052,2.372,2.3376,2.3376,2.3031,2.2686,2.2686,2.2686,2.2686,2.2697,2.2945,2.2829,2.2694,2.2924,2.2617,2.1908,2.1908,2.1723,2.1168,2.1168,2.1168,2.1168,2.1168,2.1168,2.1168,3.4823,3.4823,3.4823,3.4823,3.4457,3.4162,3.4064,3.3668,3.3392,0.0,0.0,0.0,3.3292,3.2869,3.2342,3.171,3.1629,3.1629,3.1629,3.1629,3.1322,3.0827,3.0827,3.0516,2.9994,2.9994,2.9994,2.9994,2.9343,2.9293,2.9635,2.9648,2.9726,3.0059,3.0625,3.0645,3.0274,3.0039,2.9686,2.935,2.9407,2.947,2.9599,2.991,3.0094,3.0204,2.9813,2.9689,2.944,2.8922,2.8672,2.8563,2.8312,2.8186,2.8128,2.8118,2.8106,2.793,2.8163,0.0,0.0,0.0,0.0,0.0,2.7679,2.786,2.813,2.7985,2.8061,2.8052,2.7703,2.7673,2.7865,2.7835,2.748,2.7001,2.6703,2.6724,2.6716,2.6228,2.5911,2.5753,2.5594,2.513,2.4811,2.4492,2.4406,2.4392,2.4323,2.4294,2.4491,2.4566,2.4064,2.372,2.3376,2.3204,2.3031,2.2686,2.2686,2.2686,2.2697,2.3117,2.3332,2.324,2.3646,2.3504,2.3015,2.2278,2.1908,2.1723,2.1353,2.1168,2.1168,2.1168,2.1168,2.1168,3.4823,3.4823,3.4823,3.4823,3.4457,3.4064,3.4064,3.3668,3.3292,0.0,0.0,0.0,3.3583,3.3276,3.2864,3.2323,3.2219,3.2219,3.2219,3.2219,3.1924,3.1125,3.1104,3.0706,2.9994,2.9994,2.9994,2.9994,2.9632,2.9554,2.9816,2.9885,2.9961,3.0215,3.0684,3.0762,3.0645,3.023,2.9949,2.9729,2.961,2.9782,3.0112,3.0351,3.0552,3.0699,3.0429,3.0302,3.0176,2.9542,2.916,2.8904,2.8776,2.8665,2.87,2.8663,2.8601,2.8521,2.8477,2.8263,2.7981,2.7981,0.0,0.0,2.8111,2.8365,2.8563,2.8418,2.8418,2.8335,2.8097,2.7981,2.8056,2.7807,2.7653,2.7293,2.6822,2.6835,2.6845,2.6513,2.6199,2.6095,2.6056,2.5594,2.5289,2.513,2.4652,2.4443,2.4226,2.4413,2.4782,2.4755,2.452,2.4235,2.3892,2.3548,2.3204,2.3031,2.2859,2.2686,2.2697,2.3181,2.3397,2.3429,2.3903,2.3924,2.3567,2.2831,2.2462,2.2093,2.1723,2.1538,2.1538,2.1353,2.1168,2.1168,0.0,3.4823,3.4823,3.4823,3.4457,3.4087,3.4158,3.3761,3.3384,0.0,3.3821,3.4051,3.3877,3.3944,3.371,3.3178,3.3071,3.3071,3.3071,3.3071,3.2661,3.1593,3.1572,3.1169,3.016,3.0139,3.0139,3.0139,2.9998,2.9896,2.9957,3.0181,3.0215,3.0293,3.0703,3.0918,3.0976,3.0634,3.0483,3.0214,2.9831,3.0149,3.0791,3.0882,3.1139,3.1451,3.1506,3.1395,3.1006,3.0763,3.0092,2.9436,2.9436,2.9402,2.9367,2.9367,2.9087,2.8807,2.8807,2.8675,2.8411,2.8444,2.8705,0.0,2.885,2.9103,2.9298,2.8851,2.8851,2.8707,2.8274,2.813,2.7985,2.7695,2.7789,2.7807,2.7381,2.6999,2.6669,2.6484,2.6553,2.652,2.6477,2.6056,2.5911,2.5753,2.497,2.4443,2.4226,2.4721,2.5011,2.5047,2.4791,2.4749,2.4749,2.3892,2.3548,2.3376,2.3031,2.2686,2.2697,2.3181,2.3397,2.3429,2.3903,2.4118,2.4118,2.3567,2.3199,2.2637,2.2093,2.1908,2.1908,2.1538,2.1353,2.1353,3.4823,3.4823,3.4823,3.4823,3.4457,3.4205,3.4604,3.4171,3.4027,3.444,3.4578,3.4462,3.3922,3.3944,3.371,3.3178,3.3071,3.3071,3.3071,3.3071,3.2813,3.2061,3.2061,3.1824,3.1112,3.1112,3.1112,3.1112,3.0847,3.0721,3.0862,3.0704,3.064,3.0762,3.0859,3.1074,3.1406,3.1107,3.1169,3.1445,3.0803,3.0644,3.0864,3.1524,3.1818,3.1928,3.2239,3.2368,3.2235,3.1835,3.13,3.0611,3.0611,3.0286,2.9778,2.9778,2.9556,2.9185,2.9185,2.8922,2.8742,2.916,2.9158,0.0,2.9576,2.9704,2.9712,2.9712,2.9425,2.8995,2.8707,2.8563,2.8418,2.813,2.8046,2.7759,2.7049,2.7022,2.7041,2.6655,2.657,2.6439,2.6507,2.641,2.6228,2.5753,2.497,2.4603,2.4714,2.4705,2.4818,2.5035,2.5131,2.5092,2.4749,2.4578,2.4064,2.3376,2.3376,2.3031,2.2697,2.3181,2.3397,2.3429,2.3903,2.4118,2.4118,2.3935,2.3751,2.3189,2.2637,2.2452,2.2452,2.1908,2.1723,2.1723,3.4823,3.4823,3.4823,3.4823,3.4572,3.4534,3.4769,3.4541,3.4486,3.4762,3.5014,3.5032,3.4854,3.4683,3.4467,3.4119,3.3901,3.3792,3.3792,3.3792,3.3464,3.279,3.2681,3.2247,3.1579,3.1491,3.1381,3.1381,3.1347,3.1238,3.1124,3.1023,3.1011,3.0898,3.1113,3.1328,3.1543,3.159,3.1665,3.1816,3.1295,3.1156,3.1433,3.1854,3.2129,3.2331,3.2533,3.2454,3.2338,3.2204,3.1801,3.1261,3.1108,3.0715,3.0425,3.0155,3.0018,2.9864,2.9864,2.9747,2.9664,2.9834,2.9883,0.0,0.0,3.0161,3.0157,3.0157,2.9871,2.9568,2.9282,2.9138,2.8851,2.8418,2.8418,2.8191,2.7482,2.7497,2.7213,2.6772,2.6626,2.6489,2.6334,2.6466,2.6226,2.5898,2.5435,2.5021,2.469,2.4788,2.4729,2.483,2.5096,2.5131,2.5092,2.4749,2.4407,2.4064,2.3548,2.3204,2.3042,2.3358,2.3397,2.3429,2.3903,2.4118,2.4118,2.4118,2.3935,2.3751,2.3199,2.3005,2.3015,2.2452,2.2268,2.2268,3.4823,3.4823,3.4847,3.4968,3.4932,3.4886,3.5074,3.5085,3.5073,3.506,3.552,3.5871,3.5954,3.5758,3.5603,3.5268,3.4909,3.4797,3.4797,3.4709,3.4379,3.3655,3.3215,3.278,3.207,3.174,3.1629,3.1629,3.1758,3.1697,3.1358,3.1397,3.1268,3.1133,3.1367,3.1601,3.1816,3.2254,3.2267,3.2043,3.1771,3.18,3.2019,3.2184,3.2441,3.2735,3.2808,3.271,3.244,3.244,3.2169,3.1897,3.1608,3.1283,3.1077,3.0805,3.0617,3.0565,3.0429,3.0429,3.0446,3.0515,3.0496,3.0594,0.0,0.0,0.0,3.0584,3.0299,2.9997,2.9997,2.9728,2.9298,2.8995,2.8851,2.8707,2.8274,2.7985,2.7655,2.7025,2.6815,2.6659,2.6323,2.6361,2.6364,2.5806,2.5885,2.5435,2.4811,2.4914,2.4849,2.479,2.4902,2.5168,2.5433,2.5092,2.4749,2.4749,2.4064,2.3548,2.3559,2.3534,2.3575,2.3607,2.3903,2.4118,2.4118,2.4118,2.4118,2.4118,2.3751,2.3567,2.3383,2.3005,2.2821,2.2637,3.4823,3.4823,3.4968,3.5449,3.527,3.5426,3.6062,3.6063,3.5931,3.6156,3.6553,3.6786,3.6498,3.668,3.6608,3.6263,3.6033,3.5801,3.5801,3.5386,3.4989,3.4604,3.3877,3.3417,3.3035,3.2695,3.2582,3.2582,3.2509,3.2416,3.2187,3.1883,3.1776,3.1919,3.1603,3.1934,3.2656,3.2754,3.2719,3.2895,3.2765,3.2432,3.2093,3.2808,3.312,3.3193,3.3541,3.367,3.367,3.367,3.3411,3.3134,3.2995,3.2606,3.1908,3.1495,3.1251,3.0837,3.0565,3.0429,3.0515,3.0857,3.0977,3.1097,3.1422,0.0,3.0852,3.0852,0.0,3.0299,3.0299,0.0,0.0,2.9712,2.9441,2.9138,2.8707,2.8563,2.8289,2.7595,2.7129,2.6723,2.6766,2.6544,2.6283,2.5999,2.5924,2.5753,2.5594,2.5223,2.5025,2.5285,2.507,2.5168,2.5433,2.5263,2.5092,2.4749,2.4578,2.4407,2.4075,2.4062,2.393,2.3963,2.4085,2.4118,2.4118,2.4118,2.4118,2.4118,2.4118,2.3935,2.3935,2.3557,2.3383,2.3199,3.5648,3.5379,3.5449,3.5978,3.6135,3.6185,3.632,3.6479,3.6593,3.6691,3.715,3.7471,3.7359,3.7224,3.7109,3.6764,0.0,3.6187,0.0,3.5758,3.5648,3.5533,3.4992,3.441,3.379,3.356,3.3205,3.2727,3.2727,3.2612,3.2248,3.2165,3.2153,3.2018,3.2152,3.2461,3.2832,3.332,3.3367,3.3065,3.3577,3.3385,3.2753,3.3101,3.3505,3.3963,3.4367,3.4513,3.4513,3.4513,3.4372,3.423,3.4088,3.3819,3.3357,3.272,3.2526,3.221,3.1548,3.1358,3.1392,3.1285,3.1337,3.1371,3.1525,3.1418,3.1294,3.1294,0.0,0.0,0.0,0.0,0.0,0.0,2.9712,2.9585,2.9138,2.8851,2.8418,2.7695,2.7378,2.71,2.6843,2.6349,2.6044,2.6243,2.6066,2.5898,2.574,2.5551,2.5261,2.505,2.5169,2.5106,2.5204,2.5361,2.5263,2.5092,2.4749,2.4578,2.4418,2.4413,2.4285,2.4141,2.4437,2.4291,2.4118,2.4118,2.4118,2.4118,2.4118,2.4118,2.4118,2.3935,2.3751,2.3751,3.66,3.613,3.6002,3.6531,3.6757,3.6906,3.6873,3.7014,3.7192,3.7219,3.7678,3.7999,3.7999,3.7885,0.0,0.0,3.6933,3.6699,0.0,3.6238,3.6173,3.6173,3.5786,3.5199,3.4487,3.4276,3.3759,3.3099,3.3099,3.2984,3.2752,3.2707,3.2574,3.2495,3.2765,3.293,3.3184,3.3809,3.3811,3.3576,3.4183,3.4209,3.3707,3.3596,3.3982,3.4623,3.4917,3.5027,3.5027,3.5027,3.5027,3.5027,3.4721,3.4577,3.4523,3.3804,3.3572,3.3518,3.279,3.2561,3.2543,3.2173,3.1997,3.1838,3.1718,3.17,3.1559,3.1559,3.1435,0.0,0.0,0.0,3.0442,3.0283,0.0,2.9855,2.9585,2.9138,2.8563,2.7985,2.7695,2.7348,2.67,2.622,2.602,2.6293,2.6175,2.6052,2.578,2.5872,2.5564,2.5213,2.5325,2.5268,2.5203,2.5301,2.5433,2.5433,2.5092,2.4921,2.4932,2.494,2.4829,2.4497,2.48,2.4829,2.4291,2.4291,2.4291,2.4118,2.4118,2.4118,2.4118,2.4118,2.4118,2.4118,3.7882,3.7054,3.6555,3.7084,3.718,3.7331,3.7816,3.7699,3.7576,3.7701,3.8229,3.855,0.0,0.0,0.0,0.0,0.0,3.7714,3.733,3.6915,3.6675,3.6675,3.5982,3.5349,3.4976,3.4762,3.4407,3.4031,3.4031,3.4031,3.4031,3.3435,3.3316,3.3739,3.3021,3.3262,3.4023,3.4062,3.4289,3.4701,3.4869,3.4976,3.4935,3.4513,3.4623,3.5009,3.5027,3.5027,3.5027,3.5027,3.5027,3.5027,3.5027,3.5027,3.4883,3.4559,3.4415,3.4397,3.3963,3.3801,3.373,3.3358,3.2966,3.2593,3.2192,3.1841,3.1559,3.1559,3.1559,3.1559,3.1559,3.1277,3.101,3.101,3.0425,0.0,0.0,2.9585,2.9154,2.8707,2.7985,2.726,2.6546,2.6686,2.6425,2.5718,2.6252,2.627,2.5972,2.5924,2.5883,2.6196,2.5653,2.5421,2.5694,2.5471,2.5433,2.5433,2.5433,2.5433,2.5458,2.5477,2.5536,2.5383,2.5523,2.5195,2.4818,2.4818,2.4463,2.4118,2.4118,2.4118,2.4118,2.4118,2.4118,2.4118,3.8832,3.8215,3.7726,3.7685,3.8022,3.8287,3.8429,3.8494,3.8457,3.8298,3.9033,0.0,0.0,3.9877,4.0053,0.0,0.0,3.9076,3.8706,3.8328,3.8117,3.8117,3.7514,3.6881,3.5976,3.5516,3.496,3.4072,3.4072,3.4072,3.4072,3.378,3.3638,3.3799,3.3757,3.3809,3.4121,3.4707,3.4851,3.4758,3.4916,3.5123,3.5412,3.5265,3.5302,3.5449,3.5724,3.5815,3.5815,3.5815,3.5815,3.5815,3.5815,3.5815,3.576,3.534,3.5267,3.5067,3.4505,3.4288,3.4252,3.3839,3.3659,3.3335,3.3051,3.2537,3.2221,3.1936,3.1748,3.1559,3.1559,3.1418,3.1294,3.101,3.0868,3.0425,0.0,2.9585,2.9154,2.8691,2.7985,2.742,2.6838,2.6632,2.6333,2.6098,2.6199,2.6221,2.5945,2.6069,2.6122,2.5896,2.604,2.6007,2.5434,2.5711,2.5775,2.5433,2.5433,2.5433,2.5458,2.5814,2.5878,2.556,2.5896,2.5742,2.5377,2.5377,2.5012,2.4646,2.4646,2.4291,2.4118,2.4118,2.4118,2.4118,3.9556,3.9389,3.9038,3.8524,3.8827,3.9053,3.9108,3.9286,3.9337,0.0,3.9933,0.0,4.0318,0.0,4.0701,0.0,3.9938,3.9712,3.9463,3.8963,0.0,3.8838,3.8532,3.7978,3.7181,3.6737,3.5987,3.5039,3.4918,3.4714,3.4548,3.4371,3.4225,3.4262,3.4338,3.4367,3.457,3.5156,3.5432,3.551,3.566,3.568,3.5852,3.5999,3.6054,3.6091,3.6347,3.6531,3.6641,3.6641,3.6641,3.6641,3.6641,3.6641,3.6567,3.6164,3.6054,3.5962,3.5248,3.5139,3.4957,3.4685,3.4358,3.4177,3.3872,3.3371,3.3051,3.2619,3.2165,3.1907,3.1765,3.1662,3.1559,3.1277,3.1135,3.071,0.0,2.9585,2.9154,2.8691,2.813,2.755,2.7274,2.6838,2.6471,2.6228,2.6238,2.6101,2.6094,2.6235,2.6122,2.607,2.6222,2.6195,2.5792,2.5899,2.5834,2.5604,2.5433,2.5433,2.5446,2.588,2.5958,2.5725,2.6163,2.6206,2.5924,2.5924,2.556,2.5012,2.4818,2.4646,2.4291,2.4107,2.4118,2.4118,4.0234,4.036,4.0256,3.9418,3.954,3.9714,3.9902,0.0,4.0341,0.0,4.067,4.0869,4.0892,4.0915,4.0815,4.0445,4.022,3.9846,3.9619,3.922,0.0,3.8947,3.8925,3.8755,3.8355,3.7954,3.7466,3.6645,3.6268,3.5914,3.548,3.5107,3.4977,3.5127,3.4764,3.5001,3.5391,3.5449,3.5957,3.6677,3.6799,3.6623,3.6292,3.6714,3.6879,3.6897,3.6879,3.7099,3.7429,3.7429,3.7429,3.7429,3.7429,3.7429,3.7356,3.6971,3.6861,3.6787,3.6384,3.6274,3.6182,3.5779,3.5394,3.4992,3.4577,3.4179,3.3872,3.3436,3.2994,3.2589,3.2141,3.1833,3.1593,3.1576,3.1277,3.071,2.9997,2.9585,2.9154,2.8851,2.8418,2.7985,2.7695,2.7274,2.6838,2.6399,2.6228,2.6238,2.6115,2.6107,2.6092,2.6373,2.6373,2.6339,2.6626,2.607,2.5831,2.6103,2.5604,2.5433,2.5446,2.5711,2.5977,2.623,2.652,2.6425,2.63,2.63,2.6118,2.556,2.5012,2.4818,2.4818,2.4291,2.4118,2.4118,4.1021,4.1037,4.1065,4.095,4.058,4.0386,4.0949,4.0952,0.0,0.0,4.1299,4.1535,4.1903,4.2293,4.266,4.2875,4.2662,0.0,0.0,4.1639,4.1089,4.0454,4.0105,3.9605,3.8873,3.8125,3.7615,3.7149,3.6746,3.6556,3.6453,3.607,3.5875,3.561,3.554,3.5554,3.543,3.6074,3.6557,3.6818,3.7042,3.7053,3.6714,3.7118,3.7448,3.7668,3.7374,3.7338,3.7429,3.7429,3.7429,3.7429,3.7429,3.7429,3.7411,3.7301,3.7283,3.7246,3.7136,3.7118,3.7026,3.6622,3.6381,3.6121,3.5555,3.5082,3.4591,3.3856,3.3395,3.2884,3.2176,3.2056,3.1902,3.1611,3.1277,3.0868,3.0299,3.0014,2.9585,2.9138,2.8851,2.8274,2.7695,2.7565,2.7114,2.6399,2.6538,2.6552,2.6115,2.6262,2.6405,2.6373,2.652,2.665,2.6626,2.6568,2.6516,2.6103,2.5933,2.5775,2.5446,2.5711,2.5977,2.623,2.652,2.6606,2.6845,2.6845,2.6482,2.6106,2.5924,2.5377,2.4818,2.4291,2.4118,2.4118,4.1706,4.2027,4.2273,4.233,4.1953,4.1721,4.1994,4.1899,4.1989,4.214,4.2404,4.2558,4.2913,4.3234,4.351,4.3785,4.3545,4.3171,4.2794,4.2527,4.2015,4.1328,4.1044,4.0541,3.9953,3.913,3.8399,3.7868,3.7353,3.7011,3.6804,3.6547,3.6391,3.6073,3.623,3.6281,3.6016,3.6855,3.719,3.7099,3.7516,3.7484,0.0,3.7539,3.7814,3.8016,3.7979,3.7961,3.7961,3.7961,3.7961,3.7961,3.7961,3.7961,3.7924,3.7741,3.7686,3.7649,3.7466,3.7429,3.7374,3.7154,3.7099,3.6837,3.6267,3.6012,3.5664,3.489,3.4239,3.3611,3.2964,3.2509,3.2004,3.1628,3.1277,3.0868,3.0442,3.0157,2.9712,2.9298,2.9138,2.8707,2.813,2.784,2.7405,2.6692,2.6704,2.6489,2.6212,2.6211,2.6357,2.6199,2.648,2.668,2.6941,2.6783,2.6736,2.6796,2.6273,2.5933,2.5775,2.559,2.5868,2.623,2.6387,2.6677,2.7027,2.7027,2.6845,2.6664,2.63,2.5742,2.5012,2.4646,2.4291,2.4118,4.2595,4.3037,4.354,4.333,4.3357,4.3335,4.3168,4.3142,4.3203,4.3475,4.3636,4.3739,4.3986,4.39,4.3946,4.4015,4.375,4.3374,4.2973,4.2727,4.2279,4.1786,4.1786,4.1568,4.1109,4.0421,3.9614,3.8784,3.8089,3.7467,3.7074,3.7074,3.6889,3.6596,3.7038,3.7092,3.6894,3.7676,3.7827,3.7535,3.7989,3.7952,3.7539,3.7943,3.8089,3.8144,3.8566,3.8676,3.864,3.864,3.864,3.864,3.864,3.864,3.8566,3.8199,3.8089,3.8016,3.7686,3.7576,3.7576,3.7521,3.7503,3.7393,3.7007,3.6916,3.6636,3.5767,3.5127,3.4433,3.4031,3.2982,3.2073,3.1696,3.1361,3.1061,3.0584,3.014,2.9871,2.9441,2.9298,0.0,2.8707,2.813,2.755,2.7129,2.6692,2.6381,2.6234,2.6253,2.6112,2.6101,2.6239,2.6667,2.7255,2.6941,2.6913,2.7487,2.6613,2.6273,2.6103,2.5604,2.5723,2.6218,2.6218,2.6532,2.7027,2.7027,2.7027,2.7027,2.6482,2.6118,2.556,2.5195,2.4646,2.4291,4.4192,4.4136,0.0,0.0,4.4378,4.4572,4.4659,4.417,4.385,4.4247,4.4279,4.4426,4.4804,4.4585,4.4635,4.5048,4.5094,4.4687,4.4141,4.4004,4.3414,4.2311,4.2289,4.207,4.159,4.0915,4.0422,4.0252,3.9062,3.8564,3.8481,3.8481,3.8118,3.7521,3.7964,3.7987,3.7734,3.8242,3.8271,3.7989,3.8766,3.8644,3.7961,3.8383,3.853,3.8585,3.8988,3.8915,3.864,3.864,3.864,3.864,3.864,3.864,3.8621,3.8548,3.853,3.8511,3.8456,3.8438,3.8346,3.7998,3.7906,3.7814,3.7411,3.7319,3.7056,3.62,3.5753,3.5069,3.4136,3.3189,3.2467,3.209,3.1895,3.1633,3.1044,3.0584,3.0157,2.9871,2.9441,2.9138,2.8707,2.8274,2.7855,2.755,2.7129,2.6822,2.668,2.6706,2.6558,2.6411,2.6397,2.6667,2.7255,2.7268,2.7231,2.7487,2.7304,2.6796,2.6103,2.5933,2.6056,2.6218,2.6218,2.6532,2.7027,2.7027,2.7027,2.7027,2.6845,2.6664,2.6118,2.6106,2.5742,2.5206,4.502,0.0,0.0,0.0,4.5798,4.5865,4.5755,4.5549,4.539,4.5395,4.5243,4.5318,4.5843,4.5665,4.5599,4.6104,4.615,4.6012,4.5315,4.5152,4.4509,4.3463,4.3302,4.2813,4.2092,4.1388,4.0869,4.0635,3.9583,3.9206,3.9206,3.9206,3.8794,3.8085,3.8127,3.8255,3.8594,3.8809,3.8831,3.8728,3.9126,3.8943,3.8383,3.8786,3.8951,3.9006,3.941,3.9428,3.9263,3.9263,3.9263,3.9263,3.9263,3.9263,3.9263,3.9263,3.9263,3.9226,3.9006,3.8951,3.886,3.8438,3.8346,3.8236,3.7833,3.7723,3.7458,3.6922,3.621,3.5228,3.3856,3.3266,3.2861,3.2484,3.2261,3.1929,3.133,3.0843,3.0299,2.9997,2.9585,2.9154,2.8995,2.8418,2.7985,2.7695,2.7274,2.691,2.6614,2.6922,2.6794,2.6334,2.6629,2.6759,2.7028,2.7188,2.7317,2.7588,2.7577,2.7304,2.6796,2.6273,2.6155,2.6374,2.6333,2.6447,2.6834,2.6979,2.7027,2.7027,2.7027,2.6845,2.6664,2.6482,2.6118,2.5742,4.6043,4.6351,0.0,4.6737,4.7008,4.7125,4.6591,4.6891,4.7016,4.6502,4.6177,4.6335,4.6887,4.6566,4.6588,4.6839,4.6885,4.6721,4.6297,4.5849,4.5408,4.4746,4.4299,4.3665,4.29,4.2075,4.1444,4.1082,4.0063,3.9682,3.9682,3.9682,3.9368,3.8829,3.8334,3.8633,3.9355,3.9453,3.943,3.9315,3.9485,3.928,3.8805,3.9208,3.9355,3.941,3.9832,3.9978,3.9997,4.007,3.9978,3.985,3.985,3.985,3.985,3.985,3.985,3.9777,3.9447,3.9355,3.9281,3.897,3.8823,3.8676,3.8346,3.8199,3.8034,3.7477,3.6462,3.5234,3.3782,3.3511,3.3357,3.2878,3.257,3.2185,3.1743,3.1026,3.0381,3.0014,2.9585,2.9298,2.9298,2.8707,2.813,2.7695,2.7274,2.6838,2.6546,2.6986,2.7027,2.6281,2.6717,2.701,2.6814,2.7121,2.7415,2.7696,2.768,2.7656,2.7487,2.6783,2.6436,2.671,2.646,2.6411,2.6737,2.6942,2.7027,2.7027,2.7027,2.7027,2.7027,2.6664,2.6482,2.63,4.8201,4.8005,4.7658,4.7483,4.783,4.7947,4.728,4.8026,4.8379,4.7497,4.7456,4.7685,4.7863,4.7493,4.7237,4.6862,4.6885,4.6721,4.6297,4.5849,4.5564,4.5091,4.4804,4.4473,4.4386,4.3236,4.2571,4.2529,4.0834,4.0158,4.0158,4.0158,4.0167,4.0197,3.9357,3.9355,3.9863,4.0234,3.999,3.9372,4.011,3.9954,3.9226,3.963,3.9777,3.9832,4.0253,4.0418,4.0473,4.0822,4.0455,3.985,3.985,3.985,3.985,3.985,3.985,3.9832,3.9795,3.9777,3.9777,3.974,3.9447,3.9171,3.9135,3.8841,3.8317,3.7602,3.6426,3.5262,3.4521,3.4282,3.4042,3.334,3.3186,3.2929,3.2227,3.137,3.0805,3.0332,2.9728,2.9298,2.9298,2.8851,2.8418,2.813,2.742,2.6998,2.6983,2.715,2.7027,2.671,2.6859,2.701,2.6814,2.7121,2.7415,2.7696,2.8003,2.7981,2.7487,2.7487,2.729,2.7043,2.6984,2.6876,2.6991,2.7015,2.7027,2.7027,2.7027,2.7027,2.7027,2.7027,2.6845,2.6845,4.8578,4.8584,4.8686,4.8309,4.8779,4.9116,4.8592,4.8962,4.9228,4.9053,4.8571,4.8278,4.838,4.817,4.7862,4.7757,4.778,4.778,4.7637,4.6893,4.6469,4.6033,4.531,4.4888,4.4604,4.3687,4.3146,4.3146,4.2063,4.1441,4.1441,4.1441,4.1191,4.078,3.9908,3.9863,4.0273,4.0449,4.0357,4.0054,4.0375,4.0179,3.9648,4.0052,4.0217,4.0272,4.0675,4.0822,4.084,4.1005,4.084,4.0565,4.0565,4.0565,4.0565,4.0565,4.0565,4.0529,4.029,4.0217,4.0162,3.9905,3.9722,3.9593,3.9268,3.8959,3.8471,3.7828,3.6835,3.5661,3.4968,3.4556,3.4282,3.3991,3.3563,3.3169,3.2861,3.2166,3.1459,3.0805,3.0323,2.9809,2.9314,2.8995,2.8563,2.813,2.771,2.7274,2.6983,2.7449,2.7481,2.7027,2.7325,2.7244,2.6878,2.7189,2.7321,2.7442,2.7909,2.815,2.7981,2.7643,2.7551,2.7457,2.7059,2.7066,2.7377,2.7208,2.7027,2.7027,2.7027,2.7027,2.7027,2.7027,2.7027,2.7027,4.9186,4.952,4.9647,4.9391,4.9912,5.0141,4.9717,4.994,5.002,5.0108,4.9547,4.9129,4.9062,4.8826,4.8562,4.8499,4.8546,4.84,4.84,4.7648,4.7029,4.6693,4.594,4.5347,4.5019,4.4138,4.3635,4.3635,4.2753,4.2249,4.2249,4.2101,4.1739,4.1263,4.0381,4.0391,4.0898,4.0898,4.0839,4.0697,4.083,4.0572,4.007,4.0492,4.0639,4.0675,4.095,4.106,4.106,4.106,4.106,4.106,4.106,4.106,4.106,4.106,4.106,4.0837,4.0563,4.0305,4.0232,3.9941,3.9777,3.954,3.921,3.8886,3.8401,3.7806,3.6937,3.5884,3.5207,3.4898,3.4642,3.4419,3.3939,3.3528,3.3306,3.2736,3.199,3.1168,3.0843,3.0276,2.9488,2.9152,2.8816,2.8289,2.8076,2.77,2.713,2.7656,2.769,2.7473,2.7692,2.7647,2.7032,2.7297,2.7431,2.7268,2.7856,2.8136,2.8136,2.7812,2.7735,2.7669,2.7247,2.7371,2.7628,2.7172,2.7027,2.7027,2.7027,2.7027,2.7027,2.7027,2.7027,2.7027,5.0588,5.0793,5.0785,5.0393,5.087,5.1114,5.0687,5.0913,5.0847,5.0433,5.0616,5.053,5.0104,4.9795,4.9365,4.898,4.8691,4.84,4.84,4.7648,4.7186,4.7186,4.6448,4.598,4.598,4.4783,4.4082,4.4082,4.2899,4.2249,4.2249,4.1509,4.1304,4.1594,4.0813,4.0996,4.1777,4.1777,4.1554,4.1152,4.1587,4.1283,4.051,4.0895,4.106,4.106,4.106,4.106,4.106,4.106,4.106,4.106,4.106,4.106,4.106,4.106,4.0723,4.0403,4.0385,4.0046,3.9689,3.9689,3.9405,3.9121,3.9121,3.8802,3.823,3.7532,3.6662,3.596,3.5566,3.5498,3.5241,3.4505,3.4385,3.4111,3.3374,3.2974,3.2375,3.1564,3.1236,3.0663,2.9854,2.9822,2.9518,2.8722,2.8596,2.8206,2.7466,2.7773,2.7944,2.7788,2.8117,2.7819,2.7032,2.762,2.7758,2.7268,2.7856,2.8136,2.8136,2.8136,2.814,2.793,2.7695,2.7448,2.7355,2.7099,2.7027,2.7027,2.7027,2.7027,2.7027,2.7027,2.7027,2.7027,5.213,5.1921,5.1787,5.1367,5.1582,5.169,5.1259,5.1481,5.1534,5.1455,5.139,5.1369,5.1585,5.072,5.0068,4.9979,4.9707,4.9434,4.9434,4.8666,4.8194,4.8194,4.7462,4.7007,4.7007,4.6094,4.5379,4.506,4.4175,4.3504,4.3177,4.2564,4.2497,4.2604,4.1974,4.1973,4.2226,4.2226,4.1998,4.1569,4.172,4.1451,4.0895,4.1005,4.106,4.1097,4.139,4.1482,4.1519,4.1794,4.1886,4.1886,4.1541,4.0989,4.0554,4.0554,4.0216,3.9876,3.9876,3.9858,3.9689,3.9689,3.96,3.9342,3.919,3.8537,3.7733,3.6929,3.6706,3.6337,3.5977,3.5686,3.5429,3.5189,3.4727,3.4299,3.4059,3.3668,3.3061,3.2093,3.1762,3.1316,3.0203,3.0156,2.9976,2.9423,2.9072,2.8595,2.7911,2.8129,2.8177,2.8278,2.8273,2.8232,2.8287,2.8053,2.803,2.8071,2.813,2.8136,2.8136,2.8136,2.831,2.8446,2.8204,2.7964,2.7724,2.7628,2.7208,2.7027,2.7027,2.7027,2.7027,2.7027,2.7027,2.7027,5.2828,5.2722,5.2506,5.2215,5.2296,5.2341,5.2379,5.2149,5.2171,5.2543,5.2067,5.1994,5.2524,5.1526,5.0795,5.0764,5.0192,4.9916,4.9916,4.9141,4.8687,4.8687,4.7947,4.7488,4.7488,4.6695,4.6081,4.5784,4.5012,4.4411,4.4079,4.3609,4.3278,4.3221,4.2742,4.2519,4.2676,4.2676,4.2442,4.2004,4.2004,4.1769,4.1299,4.1299,4.139,4.1555,4.1812,4.1904,4.1941,4.2197,4.2097,4.1923,4.1575,4.0887,4.0322,4.0493,4.0132,3.9788,3.9788,3.9682,3.9406,3.9406,3.93,3.9007,3.8854,3.8202,3.7621,3.7142,3.6936,3.6731,3.6354,3.6097,3.5823,3.5549,3.5104,3.471,3.4419,3.4043,3.3449,3.2475,3.2123,3.1674,3.0553,3.0521,3.0324,3.0049,2.9559,2.9078,2.8567,2.8502,2.8491,2.8608,2.8487,2.859,2.8762,2.8417,2.8235,2.8386,2.8338,2.8136,2.8136,2.8136,2.8243,2.8457,2.8325,2.825,2.8104,2.7758,2.7558,2.7208,2.7027,2.7027,2.7027,2.7027,2.7027,2.7027,5.3062,5.3108,5.3094,5.2851,5.2901,5.3155,5.3683,5.3222,5.2878,5.3418,5.2768,5.2524,5.3053,5.2356,5.1695,5.1225,5.0457,5.0008,5.0008,4.9254,4.8776,4.8776,4.8036,4.7597,4.7597,4.6803,4.6315,4.6117,4.5315,4.5002,4.5043,4.4055,4.3758,4.3778,4.284,4.2734,4.3125,4.3164,4.2905,4.244,4.2478,4.2218,4.1739,4.1739,4.1959,4.2289,4.2307,4.2326,4.2326,4.2344,4.2014,4.1647,4.1491,4.0948,4.0245,4.0702,4.0333,3.9999,3.9999,3.9564,3.8957,3.8957,3.8666,3.8357,3.834,3.8049,3.7792,3.7758,3.7484,3.7124,3.6731,3.6645,3.6388,3.5703,3.5532,3.5258,3.4556,3.4145,3.3513,3.2687,3.2332,3.1743,3.1086,3.0902,3.0759,3.041,2.9942,2.9656,2.9656,2.8922,2.8593,2.8886,2.8886,2.8904,2.895,2.8579,2.8562,2.8413,2.8352,2.8136,2.8136,2.8136,2.8136,2.8177,2.8247,2.8321,2.8199,2.7875,2.7739,2.7739,2.7208,2.7027,2.7027,2.7027,2.7027,2.7027,5.4548,5.436,5.419,5.4219,5.4148,5.4012,5.4285,5.3935,5.3706,5.3959,5.3595,5.3348,5.3582,5.2878,5.2377,5.2259,5.1499,5.1064,5.1064,5.0271,4.9807,4.9807,4.9028,4.8558,4.8558,4.7748,4.6786,4.5837,4.5325,4.5009,4.5021,4.4401,4.424,4.4216,4.3562,4.3457,4.3574,4.3926,4.3639,4.2894,4.3197,4.2892,4.2142,4.2142,4.2197,4.2307,4.2619,4.2729,4.2766,4.2724,4.2655,4.2299,4.1585,4.1226,4.0942,4.0332,3.9999,3.9647,3.9647,3.9578,3.9333,3.9333,3.9059,3.87,3.8392,3.8255,3.8118,3.7827,3.769,3.7518,3.7142,3.6833,3.6559,3.6388,3.5874,3.5446,3.5258,3.4688,3.3898,3.3067,3.2708,3.2114,3.13,3.1268,3.1236,3.1141,3.0438,3.0007,3.0007,2.9249,2.8812,2.8886,2.8886,2.9164,2.9588,2.9177,2.8837,2.8714,2.8278,2.8136,2.8136,2.8136,2.8136,2.8177,2.8605,2.8683,2.8374,2.8246,2.8101,2.7739,2.7208,2.7027,2.7027,2.7027,2.7027,2.7027,5.583,5.5611,5.528,5.5175,5.4949,5.4708,5.5005,5.4652,5.4419,5.4525,5.4279,5.3932,5.3774,5.3068,5.2588,5.2588,5.187,5.1431,5.1431,5.0633,5.0165,5.0165,4.9381,4.8907,4.8907,4.8092,4.7006,4.5975,4.5954,4.5896,4.5982,4.5534,4.5263,4.5317,4.4651,4.4297,4.4316,4.457,4.4161,4.3311,4.3538,4.3229,4.2546,4.2546,4.2674,4.2858,4.3078,4.3151,4.3188,4.2854,4.2568,4.2209,4.1506,4.1145,4.0877,4.0462,4.0163,3.9967,3.9967,3.9864,3.9676,3.9505,3.9316,3.9059,3.8683,3.8597,3.8494,3.8101,3.8015,3.7895,3.7535,3.7296,3.7022,3.6679,3.6285,3.5892,3.5549,3.4869,3.4125,3.3463,3.2797,3.1996,3.1649,3.149,3.1395,3.1395,3.0608,3.0129,3.0129,2.9353,2.8886,2.8886,2.9032,2.9354,2.9851,2.9506,2.9159,2.8824,2.8318,2.8136,2.8136,2.8136,2.8217,2.8377,2.8845,2.8937,2.8921,2.8655,2.8294,2.792,2.7208,2.7027,2.7027,2.7027,2.7027,2.7027,5.6719,5.6548,5.6297,5.5956,5.551,5.5406,5.5559,5.5226,5.4964,5.4967,5.4719,5.4296,5.3918,5.3186,5.2753,5.2823,5.2102,5.1615,5.1546,5.0814,5.0367,5.0367,4.9579,4.9126,4.9126,4.8307,4.7343,4.6554,4.6947,4.7134,4.7154,4.6548,4.6394,4.6394,4.5359,4.5019,4.5039,4.5098,4.4605,4.3899,4.3784,4.351,4.3144,4.2968,4.3188,4.3499,4.3499,4.3499,4.3499,4.2927,4.2389,4.1849,4.1325,4.0946,4.0583,4.0583,4.0583,4.0583,4.0583,4.0361,4.0036,3.9642,3.9556,3.9453,3.9094,3.8957,3.882,3.8477,3.8375,3.822,3.7912,3.7792,3.7535,3.6833,3.6662,3.6388,3.5526,3.4802,3.4189,3.3668,3.2726,3.2046,3.1999,3.1729,3.1522,3.1474,3.0732,3.0266,3.0205,2.9472,2.9032,2.9032,2.9266,2.9559,2.9939,2.9699,2.9328,2.8824,2.8487,2.8305,2.8136,2.8136,2.831,2.8617,2.8911,2.9205,2.9513,2.8719,2.8474,2.8474,2.739,2.7027,2.7027,2.7027,2.7027,2.7027,5.6798,5.6798,5.6678,5.6444,5.638,5.6275,5.6138,5.6093,5.5826,5.5041,5.4892,5.4765,5.4447,5.3731,5.3458,5.3905,5.3144,5.2487,5.2097,5.1628,5.1375,5.1375,5.0572,5.0087,5.0087,4.9295,4.8312,4.7465,4.7548,4.7589,4.7589,4.6837,4.6394,4.6394,4.5359,4.5019,4.5058,4.541,4.5222,4.4741,4.4736,4.4397,4.3923,4.3567,4.3444,4.3499,4.3499,4.3499,4.3321,4.2389,4.2029,4.1849,4.0946,4.0583,4.0583,4.0583,4.0583,4.0583,4.0583,4.0549,4.0412,4.0036,3.995,3.9847,3.947,3.9145,3.8905,3.8837,3.8563,3.8306,3.8255,3.7981,3.7621,3.7193,3.6833,3.6311,3.5561,3.5025,3.4407,3.3708,3.3146,3.2682,3.2364,3.2285,3.2142,3.1856,3.1321,3.0877,3.0572,3.0037,2.972,2.972,2.95,2.9661,3.0276,3.0159,2.983,2.9314,2.8992,2.8487,2.8136,2.8136,2.831,2.8617,2.8911,2.9205,2.9513,2.8719,2.8474,2.8474,2.739,2.7027,2.7027,2.7027,2.7027,2.7027,5.766,5.7739,5.7536,5.7061,5.6969,5.6785,5.6314,5.647,5.635,5.5483,5.5729,5.5697,5.5154,5.4277,5.3928,5.4163,5.3654,5.3222,5.3015,5.2126,5.1599,5.1599,5.0792,5.0143,4.9674,4.9182,4.8522,4.7693,4.7941,4.8065,4.8065,4.7488,4.7098,4.7098,4.6068,4.5703,4.5723,4.5937,4.5667,4.5337,4.5002,4.4548,4.4193,4.3678,4.3499,4.3518,4.3738,4.3811,4.3668,4.2961,4.2668,4.2485,4.1551,4.1183,4.1183,4.1183,4.0892,4.0583,4.0583,4.0583,4.0549,4.0378,4.0327,4.0224,3.9864,3.9642,3.9402,3.8991,3.8768,3.858,3.8375,3.8186,3.7946,3.757,3.7027,3.6321,3.5769,3.4899,3.4229,3.3904,3.3387,3.2888,3.2714,3.2523,3.2348,3.2189,3.1554,3.1091,3.0938,3.026,2.9939,3.0115,2.9983,3.0129,3.0598,3.026,2.9998,2.9481,2.8992,2.8655,2.815,2.8323,2.8564,2.8858,2.9152,2.9446,2.9726,2.8783,2.8474,2.8474,2.739,2.7027,2.7027,2.7027,2.7027,2.7027,5.856,5.8523,5.8239,5.7523,5.7482,5.7295,5.6541,5.6872,5.6925,5.6024,5.6393,5.6382,5.5733,5.4822,5.4398,5.4516,5.4117,5.3865,5.3865,5.283,5.212,5.1958,5.1145,5.0327,4.9502,4.9337,4.9005,4.8171,4.8355,4.8541,4.8541,4.8057,4.7701,4.7701,4.6658,4.6308,4.6308,4.6308,4.6192,4.5918,4.5211,4.4913,4.4651,4.3954,4.3774,4.3811,4.4105,4.4215,4.4088,4.348,4.32,4.3015,4.2069,4.1697,4.1697,4.1697,4.1286,4.0806,4.0635,4.0583,4.0583,4.0583,4.0583,4.0515,4.0224,4.0087,3.9864,3.9299,3.9042,3.882,3.8529,3.8392,3.8203,3.7657,3.7199,3.6509,3.5708,3.4916,3.4228,3.3984,3.3401,3.3079,3.3079,3.2825,3.2618,3.2379,3.1833,3.1365,3.1128,3.0543,3.0203,3.0451,3.0466,3.0583,3.0817,3.0332,2.9998,2.9481,2.8992,2.8696,2.8257,2.8497,2.8804,2.9152,2.9379,2.9646,2.9913,2.8835,2.8474,2.8474,2.739,2.7027,2.7027,2.7027,2.7027,2.7027,5.8638,5.8523,5.8239,5.7523,5.7815,5.7856,5.712,5.7474,5.7524,5.659,5.6639,5.6529,5.6107,5.5368,5.5057,5.555,5.4812,5.437,5.437,5.3856,5.3505,5.2966,5.2182,5.1514,5.0989,5.0463,5.0125,4.9467,4.9168,4.9017,4.9017,4.8199,4.7701,4.7701,4.6658,4.6308,4.6308,4.6308,4.6523,4.6698,4.5808,4.5697,4.5838,4.4947,4.4581,4.46,4.4618,4.4636,4.4453,4.3569,4.32,4.3015,4.2069,4.1697,4.1697,4.1697,4.1662,4.1474,4.0772,4.0583,4.0583,4.0583,4.0583,4.0583,4.0549,4.0275,4.0018,3.9967,3.9402,3.8905,3.8871,3.858,3.8032,3.7335,3.7081,3.6475,3.4945,3.4666,3.4355,3.3688,3.346,3.3444,3.3444,3.3429,3.3107,3.2289,3.2242,3.1796,3.1003,3.0763,3.0759,3.0788,3.0788,3.0803,3.0817,3.0332,2.9998,2.9481,2.8992,2.8636,2.8577,2.8591,2.8911,2.9446,2.9472,2.9646,2.9913,2.8835,2.8474,2.8474,2.739,2.7027,2.7027,2.7027,2.7027,2.7027,5.8664,5.8523,5.8343,5.7986,5.8071,5.806,5.7674,5.7749,5.7794,5.7155,5.714,5.712,5.6684,5.5889,5.548,5.5668,5.4882,5.4416,5.4416,5.4385,5.3747,5.2769,5.2125,5.1623,5.1097,5.0569,5.0379,5.0162,4.9666,4.9638,4.9908,4.9209,4.8858,4.8526,4.78,4.7445,4.709,4.709,4.7187,4.7324,4.6247,4.5981,4.5932,4.5039,4.4673,4.471,4.4966,4.5058,4.491,4.4231,4.3945,4.3756,4.2795,4.2416,4.2364,4.2142,4.2056,4.1953,4.1423,4.1114,4.0892,4.0635,4.0583,4.0583,4.0583,4.0481,4.031,4.0087,3.9813,3.947,3.9008,3.8612,3.8045,3.7485,3.6737,3.5978,3.5362,3.4967,3.4359,3.3858,3.381,3.373,3.3508,3.3492,3.3265,3.2632,3.2428,3.1948,3.1317,3.0925,3.0817,3.0817,3.0817,3.0817,3.0817,3.0332,2.9998,2.9481,2.9184,2.8995,2.8617,2.8978,2.9272,2.9499,2.9673,2.982,2.9913,2.8835,2.8474,2.8474,2.739,2.7027,2.7027,2.7027,2.7027,2.7027,5.8874,5.8641,5.8537,5.8525,5.8488,5.8447,5.8253,5.8324,5.8186,5.772,5.757,5.7497,5.7021,5.634,5.595,5.595,5.5276,5.4898,5.4898,5.4698,5.4075,5.2901,5.2396,5.208,5.172,5.1188,5.0825,5.0818,5.0318,5.0115,5.0425,4.9875,4.9542,4.9029,4.8474,4.8116,4.7578,4.7578,4.7656,4.7773,4.6868,4.658,4.6328,4.5593,4.5243,4.5095,4.5388,4.548,4.5348,4.4678,4.4388,4.4198,4.3053,4.2861,4.281,4.2536,4.2467,4.2381,4.1988,4.1714,4.1405,4.0892,4.0772,4.0738,4.0618,4.0583,4.0515,4.0258,4.0121,3.9881,3.9174,3.8534,3.7932,3.7491,3.6469,3.5864,3.5564,3.4997,3.4541,3.4207,3.408,3.3921,3.3667,3.3391,3.3148,3.267,3.2174,3.1828,3.1316,3.0984,3.0817,3.0817,3.0817,3.0817,3.0817,3.0332,2.983,2.9481,2.9125,2.8987,2.8764,2.9259,2.9539,2.9633,2.9833,2.9913,2.9913,2.8835,2.8474,2.8474,2.739,2.7027,2.7027,2.7027,2.7027,2.7027,5.9398,5.9097,5.8843,5.9116,5.9258,5.9186,5.873,5.8848,5.8731,5.8286,5.7813,5.7497,5.7021,5.6695,5.6514,5.6514,5.6133,5.5931,5.5931,5.5088,5.4409,5.3897,5.3383,5.3211,5.3211,5.2347,5.1826,5.1826,5.0952,5.0425,5.0425,4.9896,4.9542,4.9029,4.8494,4.8136,4.7598,4.7598,4.7832,4.8203,4.7656,4.7373,4.7401,4.6822,4.6259,4.5883,4.5883,4.5883,4.5695,4.4768,4.4388,4.4198,4.3053,4.2861,4.2861,4.2861,4.2861,4.2775,4.2399,4.2296,4.2108,4.1354,4.1166,4.1063,4.0669,4.0583,4.0583,4.0583,4.0292,3.9856,3.9301,3.8695,3.7858,3.6964,3.6496,3.5967,3.5081,3.5033,3.4906,3.4557,3.4223,3.4016,3.4016,3.3203,3.267,3.2174,3.1828,3.1316,3.0817,3.0817,3.0817,3.0817,3.0817,3.0817,3.0832,2.9983,2.9481,2.9495,2.8968,2.8764,2.9058,2.9352,2.9646,2.9913,2.9913,2.9913,2.9734,2.8835,2.8474,2.8474,2.739,2.7027,2.7027,2.7027,2.7027,2.7027,5.9477,5.9383,5.9411,5.9707,5.9488,5.9288,5.9207,5.8787,5.8443,5.831,5.7996,5.7734,5.7574,5.7241,5.7055,5.7055,5.6341,5.6069,5.6436,5.5608,5.5251,5.5459,5.3928,5.3211,5.3211,5.2347,5.1975,5.2315,5.1433,5.1067,5.1398,5.1218,5.0658,4.9955,4.9773,4.9207,4.8476,4.8476,4.8555,4.8672,4.8119,4.764,4.7401,4.6822,4.6259,4.5883,4.5883,4.5883,4.5695,4.4768,4.4388,4.4198,4.3053,4.2861,4.2861,4.2861,4.2861,4.2827,4.2724,4.269,4.2501,4.1731,4.1354,4.1149,4.1029,4.0789,4.0583,4.0583,4.0317,3.9802,3.9351,3.8363,3.7434,3.682,3.6321,3.5716,3.543,3.5415,3.5287,3.4922,3.4795,3.4636,3.4382,3.3547,3.3026,3.251,3.1616,3.0984,3.0832,3.0817,3.0817,3.0817,3.0817,3.0767,3.0663,3.0142,2.9803,2.9803,2.9499,2.9272,2.9366,2.9659,2.9833,2.9913,2.9913,2.9734,2.9362,2.8835,2.8294,2.792,2.7208,2.7027,2.7027,2.7027,2.7027,2.7027,6.0013,5.9886,5.9856,6.0122,5.9769,5.9413,5.9458,5.8929,5.863,5.863,5.8273,5.8127,5.8127,5.7762,5.7572,5.7572,5.692,5.6666,5.6987,5.6128,5.5767,5.608,5.463,5.3779,5.3779,5.2906,5.2528,5.2804,5.1914,5.1522,5.1791,5.1791,5.1429,5.0519,5.0337,4.9971,4.9236,4.9032,4.8867,4.8867,4.8497,4.7941,4.7401,4.7009,4.6447,4.5883,4.5883,4.5883,4.5695,4.4939,4.437,4.4008,4.3053,4.2861,4.2861,4.2861,4.2861,4.2861,4.2861,4.2861,4.2741,4.2279,4.1885,4.1542,4.1234,4.0977,4.0772,4.0436,4.0055,3.9623,3.9026,3.8137,3.7419,3.6869,3.6179,3.5732,3.5589,3.5573,3.5494,3.5272,3.5113,3.4782,3.4391,3.3738,3.303,3.2339,3.1653,3.1212,3.1212,3.1212,3.1212,3.1212,3.1212,3.1131,3.0823,3.0423,3.0079,2.9783,2.9596,2.9486,2.9499,2.978,2.9913,2.9913,2.9913,2.9554,2.9182,2.8655,2.8113,2.7739,2.7208,2.7027,2.7027,2.7027,2.7027,2.7027,6.1006,6.0542,6.0122,6.0634,5.9946,5.9508,5.9558,5.9226,5.9122,5.9171,5.8831,5.8656,5.8656,5.8284,5.8089,5.8089,5.7708,5.747,5.747,5.6603,5.608,5.608,5.5203,5.4652,5.4652,5.3765,5.323,5.323,5.2333,5.1791,5.1791,5.1791,5.161,5.1066,5.0519,4.9971,4.9604,4.9052,4.8867,4.8867,4.8867,4.8312,4.7401,4.7401,4.6822,4.5902,4.5938,4.5938,4.5938,4.5372,4.4424,4.347,4.3053,4.2861,4.2861,4.2861,4.2861,4.2861,4.2861,4.2861,4.2861,4.2861,4.2604,4.2142,4.1388,4.1183,4.0879,4.0139,3.9873,3.9508,3.8591,3.8116,3.7579,3.6702,3.6336,3.5987,3.5669,3.5605,3.5573,3.5573,3.5287,3.4909,3.4392,3.3567,3.2855,3.1798,3.1798,3.1798,3.1798,3.1798,3.1798,3.1798,3.1798,3.1468,3.1153,3.0902,3.0378,2.9768,2.9555,2.9526,2.9526,2.9793,2.9913,2.9913,2.9913,2.9554,2.9182,2.8655,2.8113,2.7558,2.7208,2.7027,2.7027,2.7027,2.7027,2.7027,6.1084,6.0852,6.0583,6.0711,5.9946,5.9633,6.006,5.9474,5.9269,5.9687,5.9389,5.9209,5.9209,5.8853,5.8653,5.8653,5.7917,5.747,5.747,5.6603,5.608,5.608,5.5203,5.4652,5.4652,5.4121,5.3587,5.323,5.2692,5.2152,5.1791,5.1791,5.161,5.1066,5.0519,4.9971,4.9604,4.9052,4.8867,4.8867,4.8867,4.8497,4.796,4.7588,4.7009,4.6484,4.6421,4.6342,4.6152,4.5406,4.4639,4.401,4.3139,4.2861,4.2861,4.2861,4.2861,4.2861,4.2861,4.2861,4.2861,4.2861,4.2792,4.2536,4.1765,4.0984,4.0494,3.9957,3.9325,3.8591,3.8408,3.7751,3.728,3.7019,3.6495,3.6082,3.6002,3.5748,3.5573,3.5573,3.551,3.5288,3.4766,3.3762,3.2767,3.1812,3.1798,3.1798,3.1798,3.1798,3.1798,3.1798,3.1454,3.1224,3.0944,3.0488,3.0137,3.0069,2.9851,2.982,2.982,2.9887,2.9913,2.9913,2.9913,2.9375,2.8655,2.8474,2.7933,2.7208,2.7027,2.7027,2.7027,2.7027,2.7027,2.7027,6.123,6.0986,6.0584,6.0431,6.0173,5.9985,6.0286,5.9995,5.9982,6.0252,5.9922,5.9762,5.9762,5.9161,5.8647,5.8158,5.7814,5.747,5.747,5.6603,5.608,5.608,5.5203,5.4652,5.4652,5.4475,5.3943,5.323,5.2692,5.2333,5.1791,5.1791,5.161,5.1429,5.0702,5.0154,4.9991,4.9452,4.918,4.9199,4.9414,4.9118,4.8742,4.8158,4.7591,4.725,4.69,4.6782,4.659,4.5819,4.5239,4.4587,4.3817,4.3311,4.3084,4.2912,4.2861,4.2861,4.2861,4.2861,4.2861,4.2861,4.2861,4.2707,4.2108,4.1323,4.0579,3.9841,3.909,3.8408,3.804,3.7696,3.7337,3.7146,3.6829,3.6479,3.6145,3.5955,3.5764,3.5605,3.5399,3.505,3.4349,3.3496,3.2791,3.228,3.2266,3.2266,3.2266,3.2266,3.2266,3.2266,3.1742,3.1464,3.1077,3.056,3.0206,3.0028,3.0012,2.9913,2.9913,2.9913,2.9913,2.9913,2.9734,2.9195,2.8474,2.8294,2.7752,2.7027,2.7027,2.7027,2.7027,2.7027,2.7027,2.7027,6.1495,6.1041,6.0584,6.0125,6.0271,6.0362,6.0462,6.054,6.0744,6.0842,6.0407,6.0171,6.0171,5.9304,5.8477,5.7642,5.7561,5.7607,5.7607,5.6981,5.6525,5.6349,5.5446,5.5092,5.4893,5.4914,5.4294,5.323,5.2956,5.2437,5.1915,5.1998,5.204,5.204,5.1108,5.0558,5.0598,5.0032,4.9629,4.9668,5.0039,4.9986,4.9396,4.8805,4.8422,4.7865,4.7379,4.7259,4.7295,4.664,4.6038,4.5381,4.4605,4.3849,4.334,4.3049,4.2912,4.2861,4.2861,4.2861,4.2861,4.2861,4.2861,4.2775,4.2467,4.1663,4.0678,3.9938,3.902,3.8224,3.7855,3.7671,3.7575,3.7274,3.7162,3.6908,3.6273,3.6145,3.5971,3.5621,3.505,3.4525,3.3646,3.3117,3.2778,3.2778,3.2778,3.2778,3.2778,3.2778,3.2778,3.2586,3.2232,3.1685,3.1137,3.0794,3.0272,2.9913,2.9913,2.9913,2.9913,2.9913,2.9913,2.9913,2.9362,2.9002,2.8474,2.792,2.7377,2.7027,2.7027,2.7027,2.7027,2.7027,2.7027,2.6845,6.1495,6.1041,6.0584,6.0125,6.0271,6.0487,6.0989,6.0812,6.0892,6.1359,6.065,6.0171,6.0171,5.9327,5.8647,5.8134,5.8011,5.809,5.809,5.7975,5.787,5.7335,5.6798,5.628,5.5919,5.5919,5.4964,5.323,5.3475,5.3303,5.2412,5.2806,5.2992,5.2992,5.2415,5.1857,5.1504,5.0981,5.0456,5.0098,5.0156,5.0176,4.9986,4.8996,4.8613,4.846,4.7868,4.7827,4.8066,4.7129,4.6431,4.577,4.5007,4.4073,4.3392,4.334,4.3101,4.2861,4.2861,4.2861,4.2861,4.2861,4.2861,4.2844,4.2792,4.147,4.0303,3.9769,3.8651,3.7855,3.7671,3.7671,3.7655,3.7607,3.7337,3.6988,3.659,3.6288,3.5971,3.5621,3.4875,3.4174,3.347,3.3117,3.2778,3.2778,3.2778,3.2778,3.2778,3.2778,3.2586,3.2054,3.1685,3.1151,3.0616,3.0272,2.9913,2.9913,2.9913,2.9913,2.9913,2.9913,2.9913,2.9913,2.9362,2.9002,2.8474,2.792,2.7377,2.7027,2.7027,2.7027,2.7027,2.7027,2.6664,2.6482,6.1193,6.0889,6.0533,6.0221,6.0569,6.0989,6.1567,6.1283,6.1236,6.1482,6.0674,6.0171,6.0171,5.9588,5.9093,5.8576,5.8692,5.8641,5.8641,5.847,5.8073,5.7537,5.6998,5.6659,5.6116,5.6116,5.5535,5.4379,5.439,5.3787,5.2888,5.3095,5.3178,5.3178,5.2599,5.2226,5.1685,5.1359,5.1079,5.0547,5.0781,5.0879,5.0879,5.0089,4.9508,4.9158,4.8349,4.8139,4.8249,4.7887,4.7239,4.6789,4.5787,4.4951,4.4332,4.3529,4.3289,4.3118,4.2912,4.2861,4.2861,4.2861,4.2861,4.2861,4.2861,4.1672,4.0413,4.005,3.8958,3.7909,3.7702,3.7671,3.7671,3.7671,3.7528,3.7305,3.694,3.659,3.6,3.4937,3.4174,3.3646,3.3117,3.294,3.2778,3.2778,3.2778,3.2778,3.2778,3.2586,3.2232,3.2054,3.1329,3.0794,3.0616,3.0093,2.9913,2.9913,2.9913,2.9913,2.9913,2.9913,2.9734,2.9541,2.9015,2.8474,2.792,2.7558,2.7208,2.7027,2.7027,2.7027,2.7027,2.7027,2.6664,2.63]},{"header":{"parameterUnit":"m.s-1","parameterCategory":1,"la1":30.6,"la2":28.766,"lo1":-90.7593,"lo2":-88.6598,"dy":0.0162,"dx":0.0183,"nx":116,"ny":114,"refTime":"2024-04-06T00:00:00:Z","depth":0,"parameterNumber":3,"parameterNumberName":"V-component_of_WINDS"},"data":[0.0,0.0,0.0,0.0,0.0,0.0,0.0,0.0,0.0,0.0,0.0,0.0,0.0,0.0,0.0,0.0,0.0,0.0,0.0,0.0,0.0,0.0,0.0,0.0,0.0,0.0,0.0,0.0,0.0,0.0,0.0,0.0,0.0,0.0,0.0,0.0,0.0,0.0,0.0,0.0,0.0,0.0,0.0,0.0,0.0,0.0,0.0,0.0,0.0,0.0,0.0,0.0,0.0,0.0,0.0,0.0,0.0,0.0,0.0,0.0,0.0,0.0,0.0,0.0,0.0,0.0,0.0,0.0,0.0,0.0,0.0,0.0,0.0,0.0,0.0,0.0,0.0,0.0,0.0,0.0,0.0,0.0,0.0,0.0,0.0,0.0,0.0,0.0,0.0,0.0,0.0,0.0,0.0,0.0,0.0,0.0,0.0,0.0,0.0,0.0,0.0,0.0,0.0,0.0,0.0,0.0,0.0,0.0,0.0,0.0,0.0,0.0,0.0,0.0,0.0,0.0,0.0,0.0,0.0,0.0,0.0,0.0,0.0,0.0,0.0,0.0,0.0,0.0,0.0,0.0,0.0,0.0,0.0,0.0,0.0,0.0,0.0,0.0,0.0,0.0,0.0,0.0,0.0,0.0,0.0,0.0,0.0,0.0,0.0,0.0,0.0,0.0,0.0,0.0,0.0,0.0,0.0,0.0,0.0,0.0,0.0,0.0,0.0,0.0,0.0,0.0,0.0,0.0,0.0,0.0,0.0,0.0,0.0,0.0,0.0,0.0,0.0,0.0,0.0,0.0,0.0,0.0,0.0,0.0,0.0,0.0,0.0,0.0,0.0,0.0,0.0,0.0,0.0,0.0,0.0,0.0,0.0,0.0,0.0,0.0,0.0,0.0,0.0,0.0,0.0,0.0,0.0,0.0,0.0,0.0,0.0,0.0,0.0,0.0,0.0,0.0,0.0,0.0,0.0,0.0,0.0,0.0,0.0,0.0,0.0,0.0,0.0,0.0,0.0,0.0,0.0,0.0,0.0,0.0,0.0,0.0,0.0,0.0,0.0,0.0,0.0,0.0,0.0,0.0,0.0,0.0,0.0,0.0,0.0,0.0,0.0,0.0,0.0,0.0,0.0,0.0,0.0,0.0,0.0,0.0,0.0,0.0,0.0,0.0,0.0,0.0,0.0,0.0,0.0,0.0,0.0,0.0,0.0,0.0,0.0,0.0,0.0,0.0,0.0,0.0,0.0,0.0,0.0,0.0,0.0,0.0,0.0,0.0,0.0,0.0,0.0,0.0,0.0,0.0,0.0,0.0,0.0,0.0,0.0,0.0,0.0,0.0,0.0,0.0,0.0,0.0,0.0,0.0,0.0,0.0,0.0,0.0,0.0,0.0,0.0,0.0,0.0,0.0,0.0,0.0,0.0,0.0,0.0,0.0,0.0,0.0,0.0,0.0,0.0,0.0,0.0,0.0,0.0,0.0,0.0,0.0,0.0,0.0,0.0,0.0,0.0,0.0,0.0,0.0,0.0,0.0,0.0,0.0,0.0,0.0,0.0,0.0,0.0,0.0,0.0,0.0,0.0,0.0,0.0,0.0,0.0,0.0,0.0,0.0,0.0,0.0,0.0,0.0,0.0,0.0,0.0,0.0,0.0,0.0,0.0,0.0,0.0,0.0,0.0,0.0,0.0,0.0,0.0,0.0,0.0,0.0,0.0,0.0,0.0,0.0,0.0,0.0,0.0,0.0,0.0,0.0,0.0,0.0,0.0,0.0,0.0,0.0,0.0,0.0,0.0,0.0,0.0,0.0,0.0,0.0,0.0,0.0,0.0,0.0,0.0,0.0,0.0,0.0,0.0,0.0,0.0,0.0,0.0,0.0,0.0,0.0,0.0,0.0,0.0,0.0,0.0,0.0,0.0,0.0,0.0,0.0,0.0,0.0,0.0,0.0,0.0,0.0,0.0,0.0,0.0,0.0,0.0,0.0,0.0,0.0,0.0,0.0,0.0,0.0,0.0,0.0,0.0,0.0,0.0,0.0,0.0,0.0,0.0,0.0,0.0,0.0,0.0,0.0,0.0,0.0,0.0,0.0,0.0,0.0,0.0,0.0,0.0,0.0,0.0,0.0,0.0,0.0,0.0,0.0,0.0,0.0,0.0,0.0,0.0,0.0,0.0,0.0,0.0,0.0,0.0,0.0,0.0,0.0,0.0,0.0,0.0,0.0,0.0,0.0,0.0,0.0,0.0,0.0,0.0,0.0,0.0,0.0,0.0,0.0,0.0,0.0,0.0,0.0,0.0,0.0,0.0,0.0,0.0,0.0,0.0,0.0,0.0,0.0,0.0,0.0,0.0,0.0,0.0,0.0,0.0,0.0,0.0,0.0,0.0,0.0,0.0,0.0,0.0,0.0,0.0,0.0,0.0,0.0,0.0,0.0,0.0,0.0,0.0,0.0,0.0,0.0,0.0,0.0,0.0,0.0,0.0,0.0,0.0,0.0,0.0,0.0,0.0,0.0,0.0,0.0,0.0,0.0,0.0,0.0,0.0,0.0,0.0,0.0,0.0,0.0,0.0,0.0,0.0,0.0,0.0,0.0,0.0,0.0,0.0,0.0,0.0,0.0,0.0,0.0,0.0,0.0,0.0,0.0,0.0,0.0,0.0,0.0,0.0,0.0,0.0,0.0,0.0,0.0,0.0,0.0,0.0,0.0,0.0,0.0,0.0,0.0,0.0,0.0,0.0,0.0,0.0,0.0,0.0,0.0,0.0,0.0,0.0,0.0,0.0,0.0,0.0,0.0,0.0,0.0,0.0,0.0,0.0,0.0,0.0,0.0,0.0,0.0,0.0,0.0,0.0,0.0,0.0,0.0,0.0,0.0,0.0,0.0,0.0,0.0,0.0,0.0,0.0,0.0,0.0,0.0,0.0,0.0,0.0,0.0,0.0,0.0,0.0,0.0,0.0,0.0,0.0,0.0,0.0,0.0,0.0,0.0,0.0,0.0,0.0,0.0,0.0,0.0,0.0,0.0,0.0,0.0,0.0,0.0,0.0,0.0,0.0,0.0,0.0,0.0,0.0,0.0,0.0,0.0,0.0,0.0,0.0,0.0,0.0,0.0,0.0,0.0,0.0,0.0,0.0,0.0,0.0,0.0,0.0,0.0,0.0,0.0,0.0,0.0,0.0,0.0,0.0,0.0,0.0,0.0,0.0,0.0,0.0,0.0,0.0,0.0,0.0,0.0,0.0,0.0,0.0,0.0,0.0,0.0,0.0,0.0,0.0,0.0,0.0,0.0,0.0,0.0,0.0,0.0,0.0,0.0,0.0,0.0,0.0,0.0,0.0,0.0,0.0,0.0,0.0,0.0,0.0,0.0,0.0,0.0,0.0,0.0,0.0,0.0,0.0,0.0,0.0,0.0,0.0,0.0,0.0,0.0,0.0,0.0,0.0,0.0,0.0,0.0,0.0,0.0,0.0,0.0,0.0,0.0,0.0,0.0,0.0,0.0,0.0,0.0,0.0,0.0,0.0,0.0,0.0,0.0,0.0,0.0,0.0,0.0,0.0,0.0,0.0,0.0,0.0,0.0,0.0,0.0,0.0,0.0,0.0,0.0,0.0,0.0,0.0,0.0,0.0,0.0,0.0,0.0,0.0,0.0,0.0,0.0,0.0,0.0,0.0,0.0,0.0,0.0,0.0,0.0,0.0,0.0,0.0,0.0,0.0,0.0,0.0,0.0,0.0,0.0,0.0,0.0,0.0,0.0,0.0,0.0,0.0,0.0,0.0,0.0,0.0,0.0,0.0,0.0,0.0,0.0,0.0,0.0,0.0,0.0,0.0,0.0,0.0,0.0,0.0,0.0,0.0,0.0,0.0,0.0,0.0,0.0,0.0,0.0,0.0,0.0,0.0,0.0,0.0,0.0,0.0,0.0,0.0,0.0,0.0,0.0,0.0,0.0,0.0,0.0,0.0,0.0,0.0,0.0,0.0,0.0,0.0,0.0,0.0,0.0,0.0,0.0,0.0,0.0,0.0,0.0,0.0,0.0,0.0,0.0,0.0,0.0,0.0,0.0,0.0,0.0,0.0,0.0,0.0,0.0,0.0,0.0,0.0,0.0,0.0,0.0,0.0,0.0,0.0,0.0,0.0,0.0,0.0,0.0,0.0,0.0,0.0,0.0,0.0,0.0,0.0,0.0,0.0,0.0,0.0,0.0,0.0,0.0,0.0,0.0,0.0,0.0,0.0,0.0,0.0,0.0,0.0,0.0,0.0,0.0,0.0,0.0,0.0,0.0,0.0,0.0,0.0,0.0,0.0,0.0,0.0,0.0,0.0,0.0,0.0,0.0,0.0,0.0,0.0,0.0,0.0,0.0,0.0,0.0,0.0,0.0,0.0,0.0,0.0,0.0,0.0,0.0,0.0,0.0,0.0,0.0,0.0,0.0,0.0,0.0,0.0,0.0,0.0,0.0,0.0,0.0,0.0,0.0,0.0,0.0,0.0,0.0,0.0,0.0,0.0,0.0,0.0,0.0,0.0,0.0,0.0,0.0,0.0,0.0,0.0,0.0,0.0,0.0,0.0,0.0,0.0,0.0,0.0,0.0,0.0,0.0,0.0,0.0,0.0,0.0,0.0,0.0,0.0,0.0,0.0,0.0,0.0,0.0,0.0,0.0,0.0,0.0,0.0,0.0,0.0,0.0,0.0,0.0,0.0,0.0,0.0,0.0,0.0,0.0,0.0,0.0,0.0,0.0,0.0,0.0,0.0,0.0,0.0,0.0,0.0,0.0,0.0,0.0,0.0,0.0,0.0,0.0,0.0,0.0,0.0,0.0,0.0,0.0,0.0,0.0,0.0,0.0,0.0,0.0,0.0,0.0,0.0,0.0,0.0,0.0,0.0,0.0,0.0,0.0,0.0,0.0,0.0,0.0,0.0,0.0,0.0,0.0,0.0,0.0,0.0,0.0,0.0,0.0,0.0,0.0,0.0,0.0,0.0,0.0,0.0,0.0,0.0,0.0,0.0,0.0,0.0,0.0,0.0,0.0,0.0,0.0,0.0,0.0,0.0,0.0,0.0,0.0,0.0,0.0,0.0,0.0,0.0,0.0,0.0,0.0,0.0,0.0,0.0,0.0,0.0,0.0,0.0,0.0,0.0,0.0,0.0,0.0,0.0,0.0,0.0,0.0,0.0,0.0,0.0,0.0,0.0,0.0,0.0,0.0,0.0,0.0,0.0,0.0,0.0,0.0,0.0,0.0,0.0,0.0,0.0,0.0,0.0,0.0,0.0,0.0,0.0,0.0,0.0,0.0,0.0,0.0,0.0,0.0,0.0,0.0,0.0,0.0,0.0,0.0,0.0,0.0,0.0,0.0,0.0,0.0,0.0,0.0,0.0,0.0,0.0,0.0,0.0,0.0,0.0,0.0,0.0,0.0,0.0,0.0,0.0,0.0,0.0,0.0,0.0,0.0,0.0,0.0,0.0,0.0,0.0,0.0,0.0,0.0,0.0,0.0,0.0,0.0,0.0,0.0,0.0,0.0,0.0,0.0,0.0,0.0,0.0,0.0,0.0,0.0,0.0,0.0,0.0,0.0,0.0,0.0,0.0,0.0,0.0,0.0,0.0,0.0,0.0,0.0,0.0,0.0,0.0,0.0,0.0,0.0,0.0,0.0,0.0,0.0,0.0,0.0,0.0,0.0,0.0,0.0,0.0,0.0,0.0,0.0,0.0,0.0,0.0,0.0,0.0,0.0,0.0,0.0,0.0,0.0,0.0,0.0,0.0,0.0,0.0,0.0,0.0,0.0,0.0,0.0,0.0,0.0,0.0,0.0,0.0,0.0,0.0,0.0,0.0,0.0,0.0,0.0,0.0,0.0,0.0,0.0,0.0,0.0,0.0,0.0,0.0,0.0,0.0,0.0,0.0,0.0,0.0,0.0,0.0,0.0,0.0,0.0,0.0,0.0,0.0,0.0,0.0,0.0,0.0,0.0,0.0,0.0,0.0,0.0,0.0,0.0,0.0,0.0,0.0,0.0,0.0,0.0,0.0,0.0,0.0,0.0,0.0,0.0,0.0,0.0,0.0,0.0,0.0,0.0,0.0,0.0,-6.0741,-6.0881,0.0,0.0,0.0,0.0,0.0,0.0,0.0,0.0,0.0,0.0,0.0,0.0,0.0,0.0,0.0,0.0,0.0,0.0,0.0,0.0,0.0,0.0,0.0,-3.5298,-3.5885,-3.6286,-3.6628,-3.6907,-3.7089,0.0,0.0,0.0,0.0,0.0,-3.8702,-3.8882,-3.9253,-3.9844,-3.9962,-4.0449,-4.1214,-4.068,-4.0788,-4.1392,0.0,0.0,0.0,0.0,0.0,0.0,0.0,0.0,0.0,0.0,0.0,0.0,0.0,0.0,0.0,0.0,0.0,0.0,0.0,0.0,0.0,0.0,0.0,0.0,0.0,0.0,0.0,0.0,0.0,0.0,0.0,0.0,0.0,0.0,0.0,0.0,0.0,0.0,0.0,0.0,0.0,0.0,0.0,0.0,0.0,0.0,0.0,0.0,0.0,0.0,0.0,0.0,0.0,0.0,0.0,0.0,0.0,0.0,0.0,0.0,0.0,0.0,0.0,0.0,0.0,0.0,0.0,0.0,0.0,0.0,-6.2345,-6.2102,0.0,0.0,0.0,0.0,0.0,0.0,0.0,0.0,0.0,0.0,0.0,0.0,0.0,0.0,0.0,0.0,0.0,0.0,0.0,0.0,0.0,-3.4075,-3.5337,-3.5584,-3.5952,-3.66,-3.6755,-3.6909,-3.7125,-3.725,0.0,0.0,-3.8466,-3.8842,-3.9659,-3.9753,-3.9971,-4.0405,-4.0845,-4.1341,-4.1913,-4.2055,-4.2285,-4.2601,-4.2232,0.0,0.0,0.0,0.0,0.0,0.0,0.0,0.0,0.0,0.0,0.0,0.0,0.0,0.0,0.0,0.0,0.0,0.0,0.0,0.0,0.0,0.0,0.0,0.0,0.0,0.0,0.0,0.0,0.0,0.0,0.0,0.0,0.0,0.0,0.0,0.0,0.0,0.0,0.0,0.0,0.0,0.0,0.0,0.0,0.0,0.0,0.0,0.0,0.0,0.0,0.0,0.0,0.0,0.0,0.0,0.0,0.0,0.0,0.0,0.0,0.0,0.0,0.0,-6.2842,-6.2993,-6.3296,-6.3296,-6.4055,-6.5267,-6.3865,-6.336,-6.3454,-6.3486,0.0,0.0,0.0,0.0,0.0,0.0,0.0,0.0,0.0,0.0,0.0,0.0,0.0,0.0,0.0,0.0,0.0,0.0,0.0,-3.4629,-3.5399,-3.6014,-3.6384,-3.6538,-3.703,-3.7496,-3.7622,-3.8211,-3.8712,-3.8871,-3.9093,-3.9219,-3.9377,-3.9629,-4.0101,-4.0737,-4.243,-4.3813,-4.4781,-4.4874,-4.5123,-4.539,-4.3138,-4.2476,-4.3069,0.0,0.0,0.0,0.0,0.0,0.0,0.0,0.0,0.0,0.0,0.0,0.0,0.0,0.0,0.0,0.0,0.0,0.0,0.0,0.0,0.0,0.0,0.0,0.0,0.0,0.0,0.0,0.0,0.0,0.0,0.0,0.0,0.0,0.0,0.0,0.0,0.0,0.0,0.0,0.0,0.0,-5.5018,-5.6023,0.0,0.0,0.0,0.0,0.0,0.0,0.0,0.0,0.0,0.0,0.0,0.0,0.0,-6.1957,-6.2287,-6.2287,-6.304,-6.4585,-6.4585,-6.5343,-6.6746,-6.6746,-6.6859,-6.7049,-6.6821,0.0,-6.6885,-6.6992,0.0,0.0,0.0,0.0,0.0,0.0,0.0,0.0,0.0,0.0,0.0,0.0,0.0,0.0,0.0,0.0,0.0,0.0,0.0,0.0,0.0,-3.641,-3.6743,-3.6743,-3.7483,-3.7916,-3.7981,-3.8419,-3.8889,-3.9458,-3.9523,-4.006,-4.1041,-4.1173,-4.1783,-4.2714,-4.3652,-4.4464,-4.5146,-4.5339,-4.5728,-4.6311,-4.4923,-4.4591,-4.5033,-4.4959,0.0,0.0,0.0,0.0,0.0,0.0,0.0,0.0,0.0,0.0,0.0,0.0,0.0,0.0,0.0,0.0,0.0,0.0,0.0,0.0,0.0,0.0,0.0,0.0,0.0,0.0,0.0,0.0,0.0,0.0,0.0,0.0,0.0,0.0,0.0,0.0,0.0,0.0,0.0,-5.5315,-5.6772,-5.7627,-5.8269,-5.9094,0.0,0.0,0.0,0.0,0.0,0.0,0.0,0.0,0.0,-6.3313,-6.3502,-6.4067,-6.5047,-6.5158,-6.5535,-6.6329,-6.6329,-6.6708,-6.739,-6.739,-6.7655,-6.8072,-6.8072,-6.8374,-6.8791,-6.8022,-6.774,-6.7807,0.0,0.0,0.0,0.0,-6.656,-6.6216,0.0,0.0,0.0,0.0,0.0,0.0,0.0,0.0,0.0,0.0,0.0,0.0,-3.6316,-3.6767,-3.7096,-3.7248,-3.7989,-3.8421,-3.8421,-3.8892,-3.9524,-4.0152,-4.0405,-4.1168,-4.2504,-4.2604,-4.3289,-4.4729,-4.4902,-4.5365,-4.6057,-4.6257,-4.675,-4.7408,-4.7204,-4.6953,-4.6723,-4.6735,-4.6506,-4.6136,0.0,0.0,0.0,0.0,0.0,0.0,0.0,0.0,0.0,0.0,0.0,0.0,0.0,0.0,0.0,0.0,0.0,0.0,0.0,0.0,0.0,0.0,0.0,0.0,0.0,0.0,0.0,0.0,0.0,0.0,0.0,0.0,0.0,0.0,0.0,0.0,0.0,-5.7106,-5.8341,-5.9424,-6.0217,-6.1008,0.0,0.0,0.0,0.0,0.0,0.0,-6.3084,-6.3238,-6.3879,-6.5048,-6.5313,-6.5993,-6.7241,-6.7353,-6.7504,-6.7693,-6.7921,-6.8148,-6.8337,-6.8565,-6.902,-6.955,-6.955,-6.9929,-7.046,-6.8935,-6.8354,-6.8422,-6.8515,-6.8394,-6.8241,-6.8241,-6.8088,-6.7897,0.0,0.0,0.0,0.0,0.0,0.0,0.0,0.0,0.0,0.0,0.0,-3.5488,-3.6823,-3.7005,-3.7248,-3.7788,-3.8554,-3.8948,-3.8948,-4.0344,-4.1219,-4.125,-4.2119,-4.2705,-4.2767,-4.3122,-4.4236,-4.5985,-4.6198,-4.7155,-4.8803,-4.905,-4.9333,-4.9747,-4.9819,-4.8961,-4.7312,-4.6757,-4.6659,-4.6952,-4.6918,0.0,0.0,0.0,0.0,0.0,0.0,0.0,0.0,0.0,0.0,0.0,0.0,0.0,0.0,0.0,0.0,0.0,0.0,0.0,0.0,0.0,0.0,0.0,0.0,0.0,0.0,0.0,0.0,0.0,0.0,0.0,0.0,0.0,0.0,0.0,0.0,0.0,0.0,-6.1188,-6.1534,0.0,0.0,0.0,0.0,-6.5261,-6.6172,-6.6626,-6.6626,-6.6783,-6.6899,-6.7051,-6.7089,-6.7165,-6.739,-6.739,-6.7769,-6.8565,-6.9361,-7.0157,-7.0915,-7.1749,-7.2166,-7.2203,-7.2203,-7.2203,-7.2167,-7.0684,-7.0071,-7.0106,-7.0238,-6.9807,-6.912,-6.912,-6.8623,-6.7897,0.0,0.0,0.0,0.0,0.0,0.0,-3.3192,-3.3625,-3.4118,-3.4973,-3.5667,-3.6265,-3.6748,-3.7466,-3.8,-3.8211,-3.9335,-4.0111,-4.0111,-4.1104,-4.1663,-4.1663,-4.2199,-4.3044,-4.413,-4.5372,-4.6465,-4.7193,-4.7416,-4.7933,-4.8812,-4.9515,-5.0261,-5.1152,-5.1262,-5.1115,-5.066,-4.9785,-4.9232,-4.8972,-4.8557,-4.8123,0.0,0.0,0.0,0.0,0.0,0.0,0.0,0.0,0.0,0.0,0.0,0.0,0.0,0.0,0.0,0.0,0.0,0.0,0.0,0.0,0.0,0.0,0.0,0.0,0.0,0.0,0.0,0.0,0.0,0.0,0.0,0.0,0.0,0.0,0.0,0.0,0.0,-6.2994,-6.3263,0.0,-6.5295,-6.5752,-6.6096,-6.6397,-6.6779,-6.7009,-6.7009,-6.7088,-6.7429,-6.8035,-6.8073,-6.8641,-6.9778,-6.9778,-7.0195,-7.1029,-7.1332,-7.1635,-7.1938,-7.2241,-7.2393,-7.2393,-7.2393,-7.2394,-7.2434,-7.1977,-7.1822,-7.1858,-7.1994,-7.1909,-7.1642,-7.1642,-7.145,-7.1183,0.0,0.0,0.0,0.0,0.0,-3.2854,-3.3444,-3.3998,-3.4546,-3.5152,-3.6019,-3.667,-3.688,-3.7803,-3.8571,-3.902,-4.0034,-4.0708,-4.0919,-4.17,-4.2138,-4.2138,-4.2894,-4.3959,-4.5448,-4.6656,-4.7683,-4.8387,-4.8618,-4.9178,-5.0037,-5.0747,-5.1577,-5.2441,-5.2557,-5.2851,-5.3219,-5.2533,-5.153,-5.0375,-4.9994,-4.9535,-4.9001,0.0,0.0,0.0,0.0,0.0,0.0,0.0,0.0,0.0,0.0,0.0,0.0,0.0,0.0,0.0,0.0,0.0,0.0,0.0,0.0,0.0,0.0,0.0,0.0,0.0,0.0,0.0,0.0,0.0,0.0,0.0,0.0,0.0,0.0,0.0,-6.3038,-6.4428,-6.4923,-6.5642,-6.6733,-6.7153,-6.7384,-6.7384,-6.7728,-6.8109,-6.8411,-6.8489,-6.8906,-6.9815,-6.9853,-7.0422,-7.1521,-7.1521,-7.1824,-7.2393,-7.2658,-7.281,-7.281,-7.3113,-7.3227,-7.3227,-7.3227,-7.3306,-7.3345,-7.3497,-7.3534,-7.3531,-7.3139,-7.2979,-7.2979,-7.2979,-7.2979,-7.2979,0.0,0.0,0.0,0.0,0.0,-3.3414,-3.4086,-3.4485,-3.4931,-3.5627,-3.622,-3.6746,-3.7375,-3.8033,-3.899,-4.0277,-4.0427,-4.0726,-4.1354,-4.2226,-4.2771,-4.2801,-4.443,-4.5721,-4.6634,-4.6824,-4.7901,-4.9676,-4.9836,-5.085,-5.2701,-5.2941,-5.3258,-5.3649,-5.388,-5.4185,-5.456,-5.4782,-5.3402,-5.1125,-5.1254,-5.0909,-5.0351,0.0,0.0,0.0,0.0,0.0,0.0,0.0,0.0,0.0,0.0,0.0,0.0,0.0,0.0,0.0,0.0,0.0,0.0,0.0,0.0,0.0,0.0,0.0,0.0,0.0,0.0,0.0,0.0,0.0,0.0,0.0,0.0,0.0,-6.2922,-6.3597,-6.4503,-6.5486,-6.6397,-6.6927,-6.7002,-6.7877,-6.8369,-6.8407,-6.9281,-7.0153,-7.0985,-7.1103,-7.1521,-7.2355,-7.2393,-7.2393,-7.2431,-7.2431,-7.2431,-7.2469,-7.3265,-7.3644,-7.3682,-7.4516,-7.4895,-7.4895,-7.4895,-7.4975,-7.5055,-7.5209,-7.5322,-7.5205,-7.367,-7.3093,-7.3093,-7.3093,-7.3093,-7.3093,0.0,0.0,0.0,0.0,0.0,-3.3356,-3.3788,-3.4301,-3.5082,-3.6124,-3.6813,-3.7404,-3.8033,-3.9026,-3.9787,-4.0174,-4.1037,-4.1632,-4.1811,-4.315,-4.4148,-4.479,-4.5686,-4.6689,-4.7803,-4.8543,-4.9387,-5.0621,-5.1038,-5.1556,-5.2182,-5.3099,-5.3761,-5.4194,-5.511,-5.5357,-5.5061,-5.5472,-5.4968,-5.3878,-5.3044,-5.2739,-5.2629,0.0,0.0,0.0,0.0,0.0,0.0,0.0,0.0,0.0,0.0,0.0,0.0,0.0,0.0,0.0,0.0,0.0,0.0,0.0,0.0,0.0,0.0,0.0,0.0,0.0,0.0,0.0,0.0,0.0,0.0,0.0,-6.3252,-6.3746,-6.3746,-6.4541,-6.5711,-6.73,-6.7717,-6.8323,-6.9611,-7.0073,-7.0491,-7.1096,-7.1481,-7.1747,-7.1975,-7.2052,-7.2128,-7.2393,-7.2393,-7.2658,-7.3265,-7.3265,-7.3606,-7.4212,-7.444,-7.4553,-7.4553,-7.4781,-7.4895,-7.4895,-7.4937,-7.5358,-7.6008,-7.616,-7.6616,-7.7108,-7.5462,-7.4813,-7.4813,-7.4813,-7.4813,-7.4813,0.0,0.0,0.0,0.0,0.0,-3.3665,-3.403,-3.466,-3.5374,-3.6357,-3.6948,-3.7535,-3.8191,-3.9297,-4.0068,-4.0334,-4.1281,-4.1991,-4.2258,-4.3507,-4.4654,-4.5693,-4.6605,-4.7437,-4.8444,-4.9371,-5.0303,-5.1271,-5.1786,-5.2408,-5.3344,-5.4062,-5.4832,-5.5601,-5.6401,-5.6661,-5.6586,-5.69,-5.6778,-5.6311,-5.5319,-5.4763,-5.4432,-5.3134,-5.2198,-5.1405,-5.103,-4.9976,-4.8722,-4.8965,0.0,0.0,0.0,0.0,0.0,0.0,0.0,0.0,0.0,0.0,0.0,0.0,0.0,0.0,0.0,0.0,0.0,0.0,0.0,0.0,0.0,0.0,0.0,0.0,-6.4683,-6.537,-6.5786,-6.6278,-6.7146,-6.8546,-6.908,-6.9879,-7.1282,-7.1476,-7.1783,-7.2276,-7.2353,-7.2545,-7.2886,-7.2886,-7.3075,-7.3416,-7.3454,-7.3682,-7.4136,-7.4136,-7.4402,-7.4895,-7.4895,-7.5084,-7.5425,-7.5425,-7.5656,-7.6,-7.6002,-7.6387,-7.6999,-7.7036,-7.7491,-7.7908,0.0,0.0,0.0,0.0,-7.5997,-7.5959,0.0,0.0,0.0,-3.3077,-3.3573,-3.4061,-3.457,-3.5135,-3.5759,-3.6477,-3.6871,-3.7356,-3.8169,-3.9195,-4.0153,-4.0713,-4.142,-4.2048,-4.2865,-4.3708,-4.4793,-4.604,-4.707,-4.7959,-4.8709,-4.9813,-5.0835,-5.1717,-5.2306,-5.3396,-5.5027,-5.5383,-5.6112,-5.7152,-5.7377,-5.78,-5.8215,-5.8494,-5.8422,-5.8153,-5.7682,-5.6808,-5.5683,-5.46,-5.4185,-5.3844,-5.2853,-5.1528,-5.031,-5.0563,0.0,0.0,0.0,0.0,0.0,0.0,0.0,0.0,0.0,0.0,0.0,0.0,0.0,0.0,0.0,0.0,0.0,0.0,0.0,0.0,0.0,0.0,0.0,0.0,-6.5895,-6.7334,-6.8357,-6.8512,-6.8775,-6.9491,-7.0486,-7.1439,-7.2271,-7.2467,-7.2583,-7.2658,-7.2658,-7.2999,-7.372,-7.3757,0.0,0.0,0.0,-7.4895,-7.4895,-7.4895,-7.497,-7.5046,-7.5046,-7.5463,-7.6259,-7.6259,-7.6721,-7.7486,-7.7526,-7.7683,-7.7951,-7.7988,-7.8102,-7.8252,-7.8061,-7.8022,-7.7908,-7.7144,-7.6838,-7.6723,0.0,0.0,0.0,-3.2935,-3.3455,-3.3939,-3.4445,-3.507,-3.5938,-3.7075,-3.7139,-3.7534,-3.8792,-3.9694,-4.0393,-4.051,-4.1594,-4.2849,-4.4162,-4.487,-4.5693,-4.6723,-4.7465,-4.8386,-4.9402,-5.0334,-5.1302,-5.2213,-5.3217,-5.3979,-5.4585,-5.5506,-5.6384,-5.6979,-5.7291,-5.78,-5.8215,-5.8494,-5.8753,-5.8919,-5.8418,-5.7473,-5.628,-5.5928,-5.5074,-5.398,-5.4058,-5.308,-5.1864,-5.216,-5.1233,-5.0035,-5.047,-4.9799,0.0,0.0,0.0,0.0,0.0,0.0,0.0,0.0,0.0,0.0,0.0,0.0,0.0,0.0,0.0,0.0,0.0,0.0,0.0,-6.6743,-6.7551,-6.847,-6.9938,-7.0331,-7.0529,-7.068,-7.1476,-7.2349,-7.3263,-7.3338,-7.3682,-7.4364,-7.444,-7.4478,-7.4629,-7.4667,-7.4743,-7.4895,-7.4895,-7.4895,-7.4895,-7.4895,-7.5236,-7.588,-7.588,0.0,-7.7131,-7.7176,-7.7334,-7.7486,-7.7684,-7.8142,-7.8828,-7.8979,-7.9436,-7.9895,-7.8519,-7.8022,-7.7984,-7.7831,-7.7755,-7.7717,0.0,0.0,0.0,-3.3271,-3.3607,-3.3999,-3.4895,-3.528,-3.5902,-3.7118,-3.706,-3.7423,-3.8679,-3.9642,-4.0275,-4.0275,-4.1762,-4.3186,-4.4235,-4.4995,-4.5814,-4.655,-4.7763,-4.8625,-4.9224,-5.0577,-5.1698,-5.2642,-5.3469,-5.4419,-5.5436,-5.6144,-5.6942,-5.7739,-5.8093,-5.8529,-5.8958,-5.9329,-5.9433,-5.9396,-5.9476,-5.8705,-5.7413,-5.6877,-5.6269,-5.5586,-5.5098,-5.4356,-5.3506,-5.3306,-5.2579,-5.1717,-5.2107,-5.1794,-5.1315,0.0,0.0,0.0,0.0,0.0,0.0,0.0,0.0,0.0,0.0,0.0,0.0,0.0,0.0,-6.2966,-6.4364,0.0,-6.6411,-6.7691,-6.872,-6.9717,-7.0588,-7.1622,-7.2233,-7.2233,-7.2652,-7.326,-7.4174,-7.425,-7.444,-7.4857,-7.4895,-7.4895,-7.4895,-7.4895,-7.4895,-7.4895,-7.4895,-7.5084,-7.5501,-7.5501,-7.5918,-7.6752,-7.6752,-7.7248,-7.8087,-7.8128,-7.844,-7.8939,-7.9057,-7.9362,-7.9782,-7.9895,-8.0124,-8.043,-7.9589,-7.9245,-7.9207,-7.8787,-7.8634,-7.8596,0.0,0.0,0.0,-3.3727,-3.388,-3.4207,-3.531,-3.5519,-3.5902,-3.6981,-3.6921,-3.721,-3.8384,-3.9412,-4.0205,-4.0466,-4.2034,-4.3282,-4.395,-4.4734,-4.5552,-4.6195,-4.7908,-4.8862,-4.8862,-5.0725,-5.2027,-5.3004,-5.3591,-5.473,-5.6466,-5.6776,-5.7522,-5.8518,-5.8882,-5.9274,-5.9716,-6.0206,-6.022,-5.9911,-6.0351,-5.9801,-5.8538,-5.7746,-5.7392,-5.7158,-5.6198,-5.5464,-5.4981,-5.4444,-5.3729,-5.3194,-5.3535,-5.3631,-5.3654,-5.3939,-5.4184,0.0,0.0,0.0,0.0,0.0,0.0,0.0,0.0,0.0,-6.1775,-6.2619,-6.3637,-6.4657,-6.5694,-6.6973,-6.7947,-6.8415,-6.9708,-7.0814,-7.1237,-7.257,-7.3598,-7.3749,-7.3831,-7.4136,-7.4819,-7.4895,-7.4895,-7.4895,-7.4895,-7.4895,-7.4895,-7.4895,-7.497,-7.5122,-7.5122,-7.5539,-7.6335,-7.6373,-7.679,-7.7623,-7.7666,-7.8163,-7.9043,-7.9084,-7.9586,-8.0392,-8.043,-8.0431,-8.0506,-8.0506,-8.0506,-8.0506,-8.0506,-8.0506,-8.043,-7.978,-7.9513,-7.9436,0.0,0.0,0.0,0.0,0.0,-3.4685,-3.54,-3.5519,-3.5902,-3.6981,-3.6921,-3.721,-3.8384,-3.9412,-4.0583,-4.1773,-4.2557,-4.3282,-4.395,-4.456,-4.5346,-4.6166,-4.7727,-4.8709,-4.8862,-5.0725,-5.2027,-5.3004,-5.3863,-5.5007,-5.6186,-5.6996,-5.7684,-5.8303,-5.8792,-5.9274,-5.9716,-6.0206,-6.0515,-6.052,-6.0421,-5.9977,-5.9298,-5.869,-5.7988,-5.7294,-5.7364,-5.6636,-5.575,-5.5834,-5.5044,-5.4034,-5.4494,-5.4166,-5.3708,-5.4116,-5.4287,-5.4489,-5.4822,-5.6127,-5.7517,-5.7657,-5.9099,-6.0535,0.0,0.0,-6.3512,-6.3631,-6.5073,-6.6512,-6.7379,-6.7766,-6.849,-6.9992,-7.0503,-7.1312,-7.2784,-7.3329,-7.3869,-7.4626,-7.4781,-7.4781,-7.4895,-7.4895,-7.4895,-7.4895,-7.4895,-7.4895,-7.4895,-7.4895,-7.5236,-7.5956,-7.5994,-7.6373,-7.7244,-7.7244,-7.7661,-7.8457,-7.858,-7.9081,-7.9878,-8.0121,-8.0315,-8.0392,-8.0468,-8.0506,-8.0506,-8.0506,-8.0506,-8.0506,-8.0506,-8.0506,-8.0506,-8.0391,-8.0353,-8.0353,0.0,0.0,0.0,0.0,0.0,-3.4711,-3.54,-3.5519,-3.5836,-3.6773,-3.6851,-3.721,-3.8206,-3.9412,-4.0466,-4.1424,-4.2411,-4.3282,-4.395,-4.456,-4.5258,-4.6016,-4.7574,-4.8433,-4.8709,-5.0326,-5.1717,-5.2786,-5.3736,-5.4786,-5.5935,-5.6995,-5.7684,-5.8058,-5.8701,-5.9094,-5.9363,-5.9979,-6.0292,-6.0482,-6.0208,-5.9885,-5.9432,-5.8925,-5.8428,-5.7943,-5.7569,-5.7394,0.0,-5.6356,-5.5933,-5.5731,-5.5504,-5.534,-5.5311,-5.5685,-5.6129,-5.6804,-5.7629,-5.8592,0.0,0.0,-6.0563,-6.1744,-6.2271,-6.349,-6.4637,-6.521,-6.635,-6.7417,-6.7841,-6.8747,-6.9691,0.0,-7.1487,-7.2482,-7.3199,-7.3938,-7.4516,-7.4857,-7.4895,-7.4895,-7.4895,-7.4895,-7.4895,-7.4895,-7.4895,-7.5122,-7.5577,-7.5615,-7.5994,-7.6828,-7.6865,-7.7244,-7.8078,-7.8116,-7.8533,-7.9367,-7.9457,-7.973,-8.0154,-8.0313,-8.043,-8.0431,-8.0506,-8.0506,-8.0506,-8.0506,-8.0506,-8.0506,-8.0506,-8.0506,-8.0506,-8.0506,-8.0506,-8.0506,0.0,0.0,0.0,0.0,0.0,-3.4921,-3.5429,-3.5424,-3.577,-3.6704,-3.6781,-3.7227,-3.8318,-3.945,-4.0379,-4.1047,-4.2121,-4.3021,-4.366,-4.4298,-4.4937,-4.5576,-4.7128,-4.8165,-4.8617,-4.9897,-5.1255,-5.2567,-5.3364,-5.4443,-5.565,-5.6683,-5.7402,-5.7778,-5.8518,-5.8914,-5.9094,-5.9716,-6.0022,-6.005,-5.9944,-5.9591,-5.9165,-5.8782,-5.8558,-5.8422,-5.7841,-5.7979,-5.8263,-5.7115,-5.6939,-5.7141,-5.6692,-5.6801,-5.708,-5.7406,-5.8067,-5.8906,-5.9844,0.0,0.0,-6.1245,-6.2096,-6.3086,-6.3947,-6.4948,-6.5919,-6.6605,-6.7523,-6.8253,-6.834,-6.9504,-7.0555,-7.078,-7.2197,-7.3344,-7.3576,-7.4313,-7.4854,-7.4895,-7.4895,-7.4895,-7.4895,-7.4895,-7.4895,-7.4895,-7.5122,-7.5501,-7.6069,-7.6335,-7.6865,-7.7699,-7.7737,-7.8116,-7.895,-7.895,-7.9253,-7.9903,-8.003,-8.0154,-8.0235,-8.0354,-8.0431,-8.0506,-8.0506,-8.0506,-8.0506,-8.0506,-8.0506,-8.0506,-8.0506,-8.0506,-8.0506,-8.0506,-8.0506,-8.0506,0.0,0.0,0.0,0.0,0.0,-3.5489,-3.5519,-3.5359,-3.5607,-3.6674,-3.667,-3.7259,-3.8957,-3.9741,-4.0379,-4.1047,-4.1715,-4.2382,-4.2992,-4.366,-4.4298,-4.4879,-4.6427,-4.7695,-4.8617,-4.9482,-5.0837,-5.2567,-5.291,-5.3891,-5.5459,-5.6217,-5.684,-5.759,-5.8303,-5.8792,-5.9004,-5.954,-5.9556,-5.9329,-5.9547,-5.9179,-5.8428,-5.8428,-5.8484,-5.849,-5.8456,-5.8462,-5.8403,-5.8368,-5.8164,-5.7998,-5.8178,-5.8436,-5.8688,-5.9059,-5.9542,-5.9953,-6.0139,-6.097,-6.2019,-6.2899,-6.3807,-6.48,-6.5784,-6.6797,-6.7539,-6.7576,-6.8428,-6.9166,-6.9166,-6.9917,-7.0743,-7.1531,-7.2485,-7.3408,-7.4325,-7.4568,-7.4733,-7.4895,-7.4895,-7.4895,0.0,-7.4895,-7.4895,-7.4895,-7.5615,-7.6069,-7.6107,-7.6903,-7.7737,-7.8533,-7.8571,-7.8988,-7.986,-7.986,-7.9903,-7.9992,-8.0154,-8.0235,-8.0392,-8.0468,-8.0506,-8.0506,-8.0506,-8.0506,-8.0506,-8.0506,-8.0506,-8.0506,-8.0506,-8.0506,-8.0506,-8.0506,-8.0506,-8.0506,0.0,0.0,0.0,0.0,0.0,0.0,-3.5519,-3.5359,-3.5607,-3.6674,-3.7331,0.0,0.0,0.0,0.0,0.0,-4.1047,-4.1889,-4.2934,-4.3631,-4.4269,-4.485,-4.6218,-4.7186,-4.7695,-4.8938,-4.9986,-5.0807,-5.2269,-5.331,-5.3861,-5.5039,-5.5751,-5.6154,-5.6794,-5.7242,-5.7596,-5.7946,-5.8215,-5.851,-5.8101,-5.8124,-5.8361,-5.7859,-5.8045,-5.849,0.0,-5.8806,-5.9133,-5.8611,-5.8612,-5.8885,-5.845,-5.8623,-5.9202,-6.0124,-6.0586,-6.0952,-6.1702,-6.2684,-6.359,-6.4029,-6.4874,-6.5821,-6.6722,-6.7244,-6.7763,-6.8361,-6.8878,-6.9391,-6.9954,-7.0743,-7.1569,-7.2357,-7.3312,-7.4086,-7.4438,-7.4606,-7.4733,-7.4895,-7.4895,0.0,0.0,0.0,-7.5122,-7.5653,-7.5956,-7.66,-7.7699,-7.804,-7.8571,-7.9443,-7.9443,-7.9594,-7.9898,-7.9898,-7.9903,-7.9992,-8.0235,-8.0392,-8.0468,-8.0506,-8.0506,-8.0506,-8.0506,-8.0506,-8.0506,-8.0506,-8.0506,-8.0506,-8.0506,-8.0506,-8.0506,-8.0506,-8.0506,-8.0506,0.0,0.0,0.0,0.0,0.0,0.0,0.0,0.0,0.0,0.0,0.0,0.0,0.0,0.0,0.0,0.0,0.0,-4.1541,-4.2615,-4.3282,-4.3921,-4.4531,-4.5576,-4.6421,-4.7161,-4.8257,-4.9212,-4.9902,-5.1482,-5.2518,-5.3004,-5.4176,-5.4976,-5.5499,-5.592,-5.6366,-5.6893,-5.7034,-5.7385,-5.7757,-5.7298,-5.745,-5.7959,-5.7457,-5.7808,0.0,-5.8183,-5.8737,-5.9516,-5.906,-5.9334,-5.976,-5.9384,-5.9674,-6.0395,-6.1224,-6.1579,-6.1967,-6.3025,-6.3861,-6.4609,-6.5297,-6.6034,-6.676,-6.7577,-6.7868,-6.8203,-6.8772,-6.902,-6.9347,-6.9917,-7.0968,-7.1869,-7.2395,-7.3492,-7.438,-7.4432,-7.4563,-7.4691,-7.4812,-7.4854,-7.4895,0.0,0.0,0.0,-7.6069,-7.6411,-7.7169,-7.8533,-7.8912,-7.9329,-7.986,-7.9898,-7.9898,-7.9898,-7.9898,-7.9946,-8.0075,-8.0314,-8.0431,-8.0506,-8.0506,-8.0506,-8.0506,-8.0506,-8.0506,-8.0506,-8.0506,-8.0506,-8.0506,-8.0506,-8.0506,-8.0506,-8.0506,-8.0506,-8.0506,0.0,0.0,0.0,0.0,0.0,0.0,0.0,0.0,0.0,0.0,0.0,0.0,0.0,0.0,0.0,0.0,0.0,0.0,-4.2005,-4.2644,-4.3282,-4.3921,-4.456,-4.5549,-4.7044,-4.7433,-4.8354,-4.9783,-5.0577,-5.1607,-5.2882,-5.3622,-5.4448,-5.5374,-5.5615,-5.6062,-5.6765,-5.6765,-5.686,-5.7069,-5.7069,-5.7086,-5.7222,-5.7222,-5.7741,-5.8285,-5.7533,-5.822,-5.9482,-5.9679,-6.01,-6.0671,-6.1034,-6.1559,-6.2024,-6.2291,-6.2537,-6.2874,-6.402,-6.439,-6.4942,-6.6679,-6.7221,-6.7577,-6.8357,-6.8602,-6.8782,-6.8875,-6.8975,-6.9027,0.0,0.0,-7.1719,-7.1757,-7.3146,-7.4243,-7.438,-7.4432,-7.4563,0.0,0.0,0.0,0.0,0.0,0.0,-7.6183,-7.6979,-7.7813,-7.8609,-7.9443,-7.9898,-7.9898,-7.9898,-7.9898,-7.9898,-7.9898,-7.9988,-8.0195,-8.0392,-8.0506,-8.0506,-8.0506,-8.0506,-8.0506,-8.0506,-8.0506,-8.0506,-8.0506,-8.0506,-8.0506,-8.0506,-8.0506,-8.0506,-8.0506,-8.0506,-8.0506,0.0,0.0,0.0,0.0,0.0,0.0,0.0,0.0,0.0,0.0,0.0,0.0,0.0,0.0,0.0,0.0,0.0,0.0,-4.1308,-4.2382,-4.3079,-4.3224,-4.4298,-4.5112,-4.5461,-4.6872,-4.782,-4.8145,-4.9554,-5.0697,-5.1516,-5.2027,-5.2931,-5.3908,-5.3996,-5.4522,-5.5357,-5.5357,-5.5698,-5.6348,-5.6348,-5.6393,-5.6486,-5.6486,-5.666,-5.6782,-5.6577,-5.7118,-5.7985,-5.8701,-5.9867,0.0,0.0,-6.1728,-6.2024,0.0,0.0,-6.3606,-6.423,-6.5337,-6.6421,-6.7109,-6.7714,-6.8246,-6.8468,-6.8602,-6.8697,-6.8744,-6.8838,-6.9162,0.0,0.0,0.0,-7.2507,-7.3521,0.0,-7.438,-7.4425,0.0,-7.4691,0.0,-7.4812,-7.4895,-7.5653,0.0,0.0,-7.7813,-7.8685,-7.9519,-7.9784,-7.9898,-7.9898,-7.9898,-7.9898,-7.9898,-8.003,-8.0154,-8.0195,-8.0392,-8.0506,-8.0506,-8.0506,-8.0506,-8.0506,-8.0506,-8.0506,-8.0506,-8.0506,-8.0506,-8.0506,-8.0506,-8.0506,-8.0506,-8.0506,-8.0506,-8.0506,0.0,0.0,0.0,0.0,0.0,0.0,0.0,0.0,0.0,0.0,0.0,0.0,0.0,0.0,0.0,0.0,0.0,0.0,0.0,-4.1773,-4.2411,-4.2963,-4.366,-4.4414,-4.5055,-4.6138,-4.7052,-4.7732,-4.901,-4.9877,-5.0575,-5.0988,-5.1698,-5.2473,-5.2473,-5.3017,-5.3885,-5.3885,-5.4342,0.0,0.0,-5.5336,-5.5716,-5.5716,-5.5879,-5.6167,-5.5859,-5.6253,-5.7192,-5.8527,0.0,-6.1328,-6.1537,-6.184,-6.2222,-6.2381,0.0,-6.4075,-6.4758,-6.5891,-6.7012,-6.7677,-6.8171,-6.8506,-6.8506,-6.8554,-6.8602,-6.8697,-6.8744,0.0,-6.9611,-7.0321,0.0,0.0,0.0,0.0,-7.4252,-7.4335,-7.4425,0.0,-7.4649,0.0,-7.4812,-7.5914,-7.6865,0.0,-7.8154,-7.8988,-7.986,-7.9898,-7.9898,-7.9898,-7.9898,-7.9898,-7.9898,-8.003,-8.0154,-8.0195,-8.0354,-8.0468,-8.0506,-8.0506,-8.0506,-8.0506,-8.0506,-8.0506,-8.0506,-8.0506,-8.0506,-8.0506,-8.0506,-8.0506,-8.0506,-8.0506,-8.0506,-8.0506,0.0,0.0,0.0,0.0,0.0,0.0,0.0,0.0,0.0,0.0,-3.6809,-3.7447,0.0,0.0,0.0,0.0,0.0,0.0,0.0,0.0,-4.1628,-4.2818,-4.2963,-4.36,-4.4966,-4.5402,-4.6225,-4.7644,-4.8437,-4.9179,-4.9877,-5.0401,-5.0832,-5.1318,-5.1318,-5.1852,-5.2701,-5.2701,-5.3147,-5.3891,-5.3891,-5.4278,-5.4946,0.0,-5.5376,-5.5859,-5.5277,-5.5721,-5.6867,-5.8648,-6.0214,-6.1451,-6.1559,-6.195,-6.2433,-6.2433,-6.3298,-6.4471,-6.5422,-6.6371,-6.7271,-6.8222,-6.8457,-6.8506,-6.8506,-6.8506,-6.8506,-6.865,-6.865,-6.8697,-6.8875,-6.9556,-7.0341,-7.1303,0.0,-7.3119,-7.4038,-7.4289,-7.438,-7.438,-7.4563,-7.4691,-7.4691,-7.6327,-7.7396,-7.7396,-7.8268,-7.9102,-7.986,-7.9898,-7.9898,-7.9898,-7.9898,-7.9898,-7.9898,-7.9988,-8.0034,-8.0195,-8.0353,-8.0469,-8.0506,-8.0506,-8.0506,-8.0506,-8.0506,-8.0506,-8.0506,-8.0506,-8.0506,-8.0506,-8.0506,-8.0506,-8.0506,-8.0506,-8.0506,-8.0506,0.0,0.0,0.0,0.0,0.0,0.0,0.0,0.0,0.0,0.0,-3.6402,-3.6925,0.0,0.0,0.0,0.0,0.0,0.0,0.0,0.0,0.0,-4.2208,-4.2731,-4.3193,-4.3679,-4.4961,-4.5811,-4.6337,-4.7533,-4.848,-4.9148,-4.9665,-5.0399,-5.1318,-5.1318,-5.1852,-5.2701,-5.2701,-5.3147,-5.3891,-5.3891,-5.4014,-5.4209,-5.4209,0.0,0.0,-5.4862,-5.5706,-5.6796,-5.8072,-5.9452,-6.0696,-6.1379,-6.195,-6.2433,-6.2433,-6.3701,-6.5169,-6.5469,-6.6676,-6.7973,-6.8272,-6.8408,-6.8506,-6.8506,-6.8506,0.0,0.0,-6.8506,-6.8554,-6.8697,-6.9415,-7.0246,-7.1162,0.0,0.0,0.0,0.0,-7.4289,0.0,0.0,0.0,0.0,0.0,0.0,0.0,-7.8798,-7.9746,-7.9898,-7.9898,-7.9898,-7.9898,-7.9898,-7.9898,-7.9898,-7.9988,-8.0034,-8.0195,-8.0353,-8.0469,-8.0506,-8.0506,-8.0506,-8.0506,-8.0506,-8.0506,-8.0506,-8.0506,-8.0506,-8.0506,-8.0506,-8.0506,-8.0506,-8.0506,-8.0506,-8.0506,0.0,0.0,0.0,0.0,0.0,0.0,0.0,-3.4935,-3.5272,-3.6212,-3.6315,-3.678,-3.8057,-3.8202,-3.8202,0.0,0.0,0.0,0.0,0.0,0.0,-4.1541,-4.2179,-4.284,-4.3495,-4.4251,-4.4921,-4.5645,0.0,-4.76,-4.8019,-4.889,-4.9646,-5.0258,-5.034,-5.083,-5.1613,-5.1613,-5.2049,-5.281,-5.281,-5.3023,-5.3439,-5.3439,0.0,0.0,-5.4745,-5.5383,-5.6044,-5.727,-5.8516,-5.9773,-6.1142,-6.195,-6.2291,-6.2381,-6.3429,-6.4699,-6.5345,-6.6404,-6.7502,-6.8047,-6.8309,-6.8408,-6.8408,0.0,0.0,0.0,-6.8506,-6.8506,-6.8554,-6.8937,0.0,0.0,0.0,0.0,0.0,0.0,0.0,0.0,0.0,0.0,0.0,0.0,-7.7354,-7.7396,-7.895,-7.9898,-7.9898,-7.9898,-7.9898,-7.9898,-7.9898,-7.9898,-7.9898,-7.9903,-7.9988,-8.0113,-8.0235,-8.0314,-8.0431,-8.0468,-8.0506,-8.0506,-8.0506,-8.0506,-8.0506,-8.0506,-8.0506,-8.0506,-8.0506,-8.0506,-8.0506,-8.0506,-8.0506,-8.0506,0.0,0.0,0.0,0.0,0.0,0.0,-3.4935,-3.5053,-3.5419,-3.6241,-3.6431,-3.6954,-3.8086,-3.8202,-3.8202,0.0,0.0,0.0,0.0,0.0,0.0,0.0,0.0,0.0,-4.3455,0.0,0.0,-4.5147,-4.6252,0.0,0.0,0.0,0.0,0.0,-4.9533,-5.001,-5.0589,-5.0666,-5.1124,0.0,0.0,-5.2269,-5.2903,0.0,0.0,0.0,0.0,-5.5079,-5.5364,-5.6705,-5.7832,-5.9009,-6.0819,-6.1696,-6.2185,-6.2344,-6.3085,-6.4009,-6.4963,-6.5948,-6.6883,-6.7613,-6.801,-6.8259,-6.8259,-6.8358,0.0,-6.8408,-6.8408,-6.8408,-6.8457,-6.8457,-6.8766,0.0,-7.056,0.0,0.0,0.0,0.0,0.0,0.0,0.0,0.0,0.0,0.0,-7.7354,-7.895,-7.9898,-7.9898,-7.9898,-7.9898,-7.9898,-7.9898,-7.9898,-7.9898,-7.9898,-7.9903,-7.9992,-8.0154,-8.0275,-8.0392,-8.0468,-8.0506,-8.0506,-8.0506,-8.0506,-8.0506,-8.0506,-8.0506,-8.0506,-8.0506,-8.0506,-8.0506,-8.0506,-8.0506,-8.0506,0.0,0.0,0.0,0.0,0.0,0.0,-3.4935,-3.5436,-3.5918,-3.6299,-3.6838,-3.7476,-3.8144,-3.8202,-3.8202,0.0,0.0,0.0,0.0,0.0,0.0,0.0,0.0,0.0,0.0,0.0,0.0,-4.4619,-4.5637,0.0,0.0,0.0,0.0,0.0,0.0,-5.0168,-5.0589,-5.082,0.0,0.0,0.0,0.0,0.0,0.0,0.0,0.0,0.0,-5.5079,-5.5364,-5.6705,0.0,-5.8902,-6.0136,-6.1207,-6.2078,-6.2291,0.0,0.0,-6.4163,-6.5404,-6.6721,-6.6795,-6.7502,-6.8121,-6.8121,0.0,-6.8158,-6.8158,-6.8158,-6.8208,-6.8309,-6.8309,-6.8618,-6.9583,-7.0462,-7.1466,0.0,0.0,0.0,0.0,0.0,0.0,0.0,-7.6073,-7.7187,-7.723,-7.8869,-7.9898,-7.9898,-7.9898,-7.9898,-7.9898,-7.9898,-7.9898,-7.9898,-7.9898,-7.9903,-7.9992,-8.0154,-8.0275,-8.0392,-8.0468,-8.0506,-8.0506,-8.0506,-8.0506,-8.0506,-8.0506,-8.0506,-8.0506,-8.0506,-8.0506,-8.0506,-8.0506,-8.0506,-8.0506,0.0,0.0,0.0,0.0,0.0,0.0,-3.5133,-3.5562,-3.6075,-3.6441,-3.6968,-3.7535,-3.8144,-3.8202,-3.8202,-3.8202,-3.8202,0.0,0.0,0.0,0.0,0.0,0.0,0.0,0.0,0.0,-4.3638,-4.4067,-4.497,0.0,0.0,0.0,0.0,0.0,0.0,-5.0324,-5.0589,-5.0972,0.0,0.0,0.0,0.0,0.0,0.0,0.0,0.0,0.0,0.0,-5.5209,-5.6082,0.0,0.0,-5.9179,-6.0284,0.0,0.0,-6.2599,-6.3121,-6.3753,-6.453,-6.5257,-6.5772,-6.6206,-6.6676,-6.7156,0.0,-6.7516,-6.7996,-6.807,-6.8158,-6.8158,-6.8259,-6.842,-6.8803,-7.0066,-7.1132,-7.1615,0.0,0.0,0.0,0.0,0.0,0.0,0.0,-7.7559,-7.8712,-7.9519,-7.9898,-7.9898,-7.9898,-7.9898,-7.9898,-7.9898,-7.9898,-7.9898,-7.9898,-7.9941,-7.9946,-8.003,-8.0154,-8.0275,-8.0354,-8.0468,-8.0506,-8.0506,-8.0506,-8.0506,-8.0506,-8.0506,-8.0506,-8.0506,-8.0506,-8.0506,-8.0506,-8.0506,-8.0506,0.0,0.0,0.0,0.0,0.0,-3.5424,-3.5228,-3.5777,-3.635,-3.6611,-3.7259,-3.7886,-3.8294,-3.8352,-3.8352,-3.8352,-3.8352,0.0,0.0,0.0,0.0,0.0,0.0,0.0,0.0,0.0,-4.3409,-4.3754,-4.4443,-4.5013,0.0,0.0,-4.7793,-4.809,0.0,0.0,0.0,0.0,0.0,0.0,0.0,0.0,0.0,0.0,0.0,0.0,0.0,0.0,0.0,0.0,0.0,0.0,0.0,0.0,-6.0572,0.0,-6.2275,-6.249,-6.3195,-6.3716,-6.4149,-6.4736,-6.5169,-6.5602,0.0,0.0,-6.6676,-6.7451,-6.7635,-6.7709,-6.7982,-6.8158,-6.8259,-6.8309,-6.9743,-7.0971,-7.1082,-7.2634,0.0,0.0,0.0,0.0,0.0,-7.5939,-7.7779,-7.9746,-7.9898,-7.9898,-7.9898,-7.9898,-7.9898,-7.9898,-7.9898,-7.9898,-7.9898,-7.9898,-7.9898,-7.9898,-7.9988,-8.0034,-8.0195,-8.0353,-8.0469,-8.0506,-8.0506,-8.0506,-8.0506,-8.0506,-8.0506,-8.0506,-8.0506,-8.0506,-8.0506,-8.0506,-8.0506,-8.0506,0.0,0.0,0.0,0.0,0.0,-3.5424,-3.5228,-3.623,-3.702,-3.691,-3.8001,-3.8767,-3.8797,-3.8797,-3.8797,-3.8797,-3.8575,0.0,0.0,0.0,0.0,0.0,0.0,0.0,0.0,0.0,-4.3754,-4.3988,-4.422,-4.4864,-4.5897,-4.6126,-4.6653,-4.7572,0.0,0.0,0.0,0.0,0.0,0.0,0.0,0.0,0.0,0.0,0.0,0.0,0.0,0.0,0.0,0.0,0.0,0.0,0.0,-5.8744,-6.0367,-6.1642,-6.2078,-6.2238,-6.2381,-6.3121,-6.3811,-6.3811,-6.4574,-6.5301,0.0,0.0,-6.5558,-6.6329,-6.6512,-6.6786,-6.7752,-6.7967,-6.8158,-6.8259,-6.9743,-7.0971,-7.1082,-7.2634,0.0,0.0,0.0,0.0,0.0,-7.5894,-7.7779,-7.9746,-7.9898,-7.9898,-7.9898,-7.9898,-7.9898,-7.9898,-7.9898,-7.9898,-7.9898,-7.9898,-7.9898,-7.9898,-7.9988,-8.0034,-8.0195,-8.0353,-8.0469,-8.0506,-8.0506,-8.0506,-8.0506,-8.0506,-8.0506,-8.0506,-8.0506,-8.0506,-8.0506,-8.0506,-8.0506,-8.0506,0.0,0.0,0.0,0.0,0.0,0.0,-3.6022,-3.6692,-3.7238,-3.7641,-3.8339,-3.8797,-3.8797,-3.8797,-3.8797,-3.8797,-3.8723,0.0,0.0,0.0,0.0,0.0,0.0,0.0,0.0,-4.3596,-4.3832,-4.422,-4.4419,-4.4771,-4.5215,-4.6059,-4.6598,-4.7076,-4.8254,-4.8743,0.0,0.0,0.0,0.0,0.0,0.0,0.0,0.0,0.0,0.0,0.0,0.0,0.0,0.0,0.0,0.0,0.0,0.0,0.0,-6.0447,-6.1462,-6.2078,-6.2238,-6.2563,-6.285,-6.285,-6.3137,-6.3606,-6.4155,0.0,-6.4861,-6.6219,-6.6512,-6.6733,-6.7594,-6.7899,-6.8004,-6.8158,-6.9642,-7.0782,-7.0971,0.0,0.0,0.0,0.0,0.0,0.0,0.0,-7.7779,-7.9614,-7.9854,-7.9898,-7.9898,-7.9898,-7.9898,-7.9898,-7.9898,-7.9898,-7.9898,-7.9898,-7.9898,-7.9898,-7.9903,-7.9988,-8.0034,-8.0195,-8.0314,-8.043,-8.0468,-8.0506,-8.0506,-8.0506,-8.0506,-8.0506,-8.0506,-8.0506,-8.0506,-8.0506,-8.0506,-8.0506,0.0,0.0,0.0,0.0,0.0,0.0,-3.6387,-3.688,-3.7436,-3.8121,-3.8703,-3.9017,-3.9017,-3.9017,-3.9017,-3.9017,-3.9017,0.0,0.0,0.0,0.0,0.0,0.0,0.0,-4.3832,-4.391,-4.4065,-4.4419,-4.4572,-4.4874,-4.5129,-4.579,-4.6276,-4.6602,-4.7595,-4.8047,0.0,0.0,0.0,0.0,0.0,0.0,-5.0913,0.0,0.0,0.0,0.0,0.0,0.0,0.0,0.0,0.0,0.0,0.0,0.0,0.0,-6.0375,-6.1498,-6.1951,-6.2185,-6.2291,-6.2291,-6.2397,-6.2698,-6.3225,0.0,-6.4002,-6.5705,-6.6035,-6.6402,-6.7504,-6.7794,-6.7915,-6.8107,-6.9591,-7.0731,-7.087,0.0,0.0,0.0,0.0,0.0,0.0,-7.7229,-7.8074,-7.9607,-7.9854,-7.9898,-7.9898,-7.9898,-7.9898,-7.9898,-7.9898,-7.9898,-7.9898,-7.9898,-7.9898,-7.9898,-7.9898,-7.9946,-7.9992,-8.0113,-8.0235,-8.0392,-8.0431,-8.0468,0.0,-8.0506,-8.0506,-8.0506,-8.0506,-8.0506,-8.0506,-8.0506,-8.0506,-8.0506,0.0,0.0,0.0,0.0,0.0,0.0,0.0,-3.7075,-3.7704,-3.8362,-3.902,-3.9409,-3.9409,-3.9409,-3.9409,-3.9409,-3.9409,0.0,0.0,0.0,0.0,0.0,0.0,0.0,-4.3957,-4.422,-4.4419,-4.4648,-4.4799,-4.5129,-4.5499,-4.5562,-4.5813,-4.6207,-4.7093,-4.7284,0.0,0.0,0.0,0.0,-4.8547,-4.9236,0.0,0.0,0.0,0.0,0.0,0.0,0.0,0.0,0.0,0.0,0.0,0.0,0.0,0.0,0.0,0.0,0.0,-6.2024,-6.2222,-6.2222,-6.2328,-6.2397,-6.2552,0.0,0.0,-6.4919,-6.5301,-6.5778,-6.7393,-6.7794,-6.7952,-6.8107,-6.954,-7.0731,-7.087,0.0,0.0,0.0,0.0,0.0,-7.6667,-7.7673,-7.8678,-7.9645,-7.981,-7.9898,-7.9898,-7.9898,-7.9898,-7.9898,-7.9898,-7.9898,-7.9898,-7.9898,-7.9898,-7.9898,-7.9898,-7.9903,-7.9992,-7.9992,-8.0154,-8.0392,-8.0392,-8.0469,-8.0506,-8.0506,-8.0506,-8.0506,-8.0506,-8.0506,-8.0506,-8.0506,-8.0506,-8.0506,0.0,0.0,0.0,0.0,0.0,0.0,0.0,0.0,0.0,0.0,-3.932,-3.9409,-3.9409,-3.9409,-3.9409,0.0,0.0,0.0,0.0,0.0,0.0,0.0,0.0,0.0,-4.4189,-4.4419,-4.4648,-4.4799,-4.5204,-4.5426,-4.5531,-4.6329,-4.6875,-4.7125,-4.8047,-4.8311,0.0,0.0,0.0,0.0,-4.8707,-4.9058,0.0,0.0,0.0,0.0,-5.3723,-5.4504,0.0,0.0,0.0,0.0,0.0,0.0,0.0,0.0,-5.8609,-5.9708,-6.0666,0.0,-6.206,-6.206,-6.2168,-6.2291,0.0,-6.25,0.0,0.0,0.0,-6.5778,-6.7393,-6.7741,-6.7847,-6.8018,-6.9488,-7.0628,-7.087,0.0,0.0,0.0,0.0,0.0,-7.6573,-7.758,-7.854,-7.9471,-7.9638,-7.981,-7.9898,-7.9898,-7.9898,-7.9898,-7.9898,-7.9898,-7.9898,-7.9898,-7.9898,-7.9898,-7.9898,-7.9898,-7.9941,-7.9988,-8.0034,-8.0113,-8.0313,-8.0392,-8.043,-8.0468,-8.0506,-8.0506,-8.0506,-8.0506,-8.0506,-8.0506,-8.0506,-8.0582,0.0,0.0,0.0,0.0,0.0,0.0,0.0,0.0,0.0,0.0,-3.9409,-3.9409,-3.9409,-3.9481,-3.9553,0.0,0.0,0.0,0.0,0.0,0.0,0.0,-4.3153,-4.3899,-4.4572,-4.4648,-4.4874,-4.5204,-4.5352,-4.573,-4.6266,-4.6866,-4.7435,-4.8079,-4.8796,-4.8996,-4.8655,-4.9061,-4.8893,-4.8547,-4.8707,0.0,0.0,0.0,0.0,0.0,-5.3341,-5.4122,0.0,-5.5249,-5.5683,-5.5822,0.0,0.0,0.0,0.0,-5.7872,-5.888,-5.9727,-6.0973,-6.2005,-6.2005,-6.206,-6.2168,-6.2381,0.0,0.0,0.0,0.0,-6.6219,-6.7467,-6.7741,-6.7957,-6.8587,-6.971,-7.0939,0.0,0.0,0.0,0.0,0.0,-7.6112,0.0,-7.7823,-7.8869,-7.9462,-7.9592,-7.9766,-7.9898,-7.9898,-7.9898,-7.9898,-7.9898,-7.9898,-7.9898,-7.9898,-7.9898,-7.9898,-7.9898,-7.9898,-7.9898,-7.9946,-7.9988,-7.9992,-8.0154,-8.0313,-8.0392,-8.0469,-8.0468,-8.0506,-8.0506,-8.0506,-8.0506,-8.0506,-8.0735,-8.1156,0.0,0.0,0.0,0.0,0.0,0.0,0.0,0.0,0.0,0.0,0.0,0.0,0.0,0.0,0.0,0.0,0.0,0.0,0.0,0.0,0.0,-4.3485,-4.4067,-4.4572,-4.4874,-4.4949,-4.5204,-4.5499,-4.5699,-4.6192,-4.7098,-4.7394,-4.8093,-4.924,-4.9714,-4.9674,-4.9189,-4.9393,-4.9191,-4.8714,-4.8803,0.0,0.0,0.0,0.0,0.0,0.0,0.0,0.0,-5.5003,-5.5519,-5.5706,-5.5879,0.0,0.0,0.0,0.0,0.0,-5.897,-6.0485,-6.186,-6.2005,-6.2005,-6.206,-6.2328,0.0,0.0,0.0,0.0,0.0,0.0,0.0,0.0,-6.9141,-7.0221,-7.1524,0.0,0.0,0.0,0.0,0.0,0.0,-7.66,-7.8237,-7.9311,-7.9453,-7.9592,-7.9728,-7.9854,-7.9898,-7.9898,-7.9898,-7.9898,-7.9898,-7.9898,-7.9898,-7.9898,-7.9898,-7.9898,-7.9898,-7.9898,-7.9898,-7.9903,-7.9988,-7.9992,-8.0154,-8.0353,-8.0392,-8.043,-8.0506,-8.0506,-8.0506,-8.0506,-8.0659,-8.1156,-8.1843,0.0,0.0,0.0,0.0,0.0,0.0,0.0,0.0,0.0,0.0,0.0,0.0,0.0,0.0,0.0,0.0,0.0,0.0,0.0,0.0,0.0,-4.4582,-4.4737,-4.4874,-4.4874,-4.5204,-4.5426,-4.5499,-4.6434,-4.6929,-4.713,-4.8679,-5.0015,-5.1099,-5.154,-5.1399,-5.085,-5.0593,-5.019,-4.9678,-4.9317,0.0,0.0,0.0,0.0,0.0,0.0,0.0,0.0,-5.4338,-5.5062,-5.5706,-5.5879,0.0,0.0,0.0,0.0,0.0,-5.897,-6.0088,-6.1172,-6.186,-6.2005,-6.206,-6.2328,-6.3017,0.0,0.0,0.0,0.0,0.0,0.0,0.0,0.0,0.0,-7.2346,0.0,0.0,0.0,0.0,0.0,-7.6675,-7.66,-7.8102,-7.9214,-7.9311,-7.9453,-7.9592,-7.9728,-7.9854,-7.9898,-7.9898,-7.9898,-7.9898,-7.9898,-7.9898,-7.9898,-7.9898,-7.9898,-7.9898,-7.9898,-7.9898,-7.9898,-7.9941,-7.9988,-7.9992,-8.0075,-8.0313,-8.0392,-8.043,-8.0468,-8.0506,-8.0582,-8.1347,-8.169,-8.1996,0.0,0.0,0.0,0.0,0.0,0.0,0.0,0.0,0.0,0.0,0.0,0.0,0.0,0.0,0.0,0.0,0.0,0.0,0.0,-4.2747,-4.3406,-4.4993,-4.5204,-4.5204,-4.5204,-4.5426,-4.5761,-4.6329,-4.6866,-4.7627,-4.8615,-5.0047,-5.1099,-5.1647,-5.1941,-5.1801,-5.132,-5.0894,-5.0357,-4.9846,0.0,0.0,0.0,0.0,0.0,0.0,0.0,0.0,0.0,0.0,-5.4957,-5.5706,-5.5879,0.0,0.0,0.0,0.0,0.0,-5.8862,-5.9655,-6.0448,-6.1716,-6.206,-6.2277,-6.2891,-6.3726,0.0,0.0,0.0,0.0,0.0,0.0,0.0,0.0,0.0,0.0,0.0,0.0,0.0,0.0,0.0,-7.6638,-7.66,-7.814,-7.9165,-7.9311,-7.9359,-7.95,-7.9683,-7.9766,-7.9854,-7.9898,-7.9898,-7.9898,-7.9898,-7.9898,-7.9898,-7.9898,-7.9898,-7.9898,-7.9898,-7.9898,-7.9898,-7.9898,-7.9903,-7.9988,-7.9992,-8.0154,-8.0235,-8.0392,-8.043,-8.0468,-8.0659,-8.1958,-8.276,-8.3333,0.0,0.0,0.0,0.0,0.0,0.0,0.0,0.0,0.0,0.0,0.0,0.0,0.0,0.0,0.0,0.0,0.0,0.0,0.0,-4.3117,-4.3811,-4.5247,-4.5457,-4.5499,-4.5499,-4.5604,-4.6139,-4.7098,-4.733,-4.8423,-5.0209,-5.1164,-5.1647,-5.1868,-5.2086,-5.2042,-5.1794,-5.1095,-5.0589,-5.021,0.0,0.0,0.0,0.0,0.0,0.0,0.0,0.0,0.0,0.0,0.0,0.0,0.0,0.0,0.0,-5.6328,-5.6743,-5.7388,-5.879,-5.9547,-6.0231,-6.1697,-6.2114,-6.2457,-6.3364,0.0,0.0,0.0,0.0,0.0,0.0,0.0,0.0,0.0,0.0,0.0,0.0,-7.3765,-7.3864,-7.4056,-7.5577,-7.6638,-7.66,-7.814,-7.9165,-7.9263,-7.9311,-7.9406,-7.9592,-7.9638,-7.9766,-7.9854,-7.9898,-7.9898,-7.9898,-7.9898,-7.9898,-7.9898,-7.9898,-7.9898,-7.9898,-7.9898,-7.9898,-7.9898,-7.9898,-7.9903,-7.9988,-7.9992,-8.0113,-8.0313,-8.0392,-8.0698,-8.127,-8.276,-8.383,-8.4671,0.0,0.0,0.0,0.0,0.0,0.0,0.0,0.0,0.0,0.0,0.0,0.0,0.0,0.0,0.0,0.0,0.0,0.0,0.0,-4.3625,-4.4528,-4.5426,-4.5499,-4.5499,-4.5499,-4.5896,-4.643,-4.7098,-4.8134,-4.9563,-5.1359,-5.1688,-5.1868,-5.2086,-5.2445,-5.2661,-5.2736,-5.153,-5.1153,-5.1269,-4.9991,0.0,0.0,0.0,0.0,0.0,0.0,0.0,0.0,0.0,0.0,0.0,0.0,0.0,-5.6253,-5.6328,-5.7137,-5.8107,-5.897,-5.9944,-6.0919,-6.195,-6.2185,0.0,-6.3364,-6.4363,0.0,0.0,0.0,0.0,0.0,0.0,0.0,0.0,0.0,0.0,-7.3765,0.0,-7.3912,-7.4151,-7.5662,-7.6675,-7.66,-7.814,-7.9116,-7.9116,-7.9263,-7.9311,-7.9359,-7.9546,-7.9683,-7.9683,-7.9854,-7.9898,-7.9898,-7.9898,-7.9898,-7.9898,-7.9898,-7.9898,-7.9898,-7.9898,-7.9898,-7.9898,-7.9898,-7.9898,-7.9941,-7.995,-7.9992,-8.0034,-8.0275,-8.1385,-8.2913,-8.3868,-8.4709,-8.5435,0.0,0.0,0.0,0.0,0.0,0.0,0.0,0.0,0.0,0.0,0.0,-4.0222,-4.0261,0.0,0.0,0.0,0.0,0.0,-4.3153,-4.3944,-4.4809,-4.5646,-4.5823,-4.5896,-4.5896,-4.604,-4.6797,-4.8134,-4.9766,-5.083,-5.1499,-5.1794,-5.2086,-5.2269,-5.2483,-5.2764,-5.3009,-5.1597,-5.1153,-5.1337,-5.0025,-4.959,0.0,0.0,0.0,0.0,0.0,0.0,0.0,0.0,-5.3852,-5.4853,-5.5688,-5.6106,-5.6328,-5.6418,-5.7173,-5.8179,-5.897,-5.998,-6.1045,-6.195,-6.2639,0.0,0.0,-6.5291,0.0,0.0,0.0,0.0,0.0,0.0,0.0,0.0,0.0,0.0,-7.3765,-7.3815,-7.3912,-7.4151,-7.5662,-7.6638,-7.6675,-7.814,-7.9116,-7.9116,-7.9165,-7.9214,-7.9311,-7.9406,-7.9546,-7.9683,-7.9766,-7.981,-7.9898,-7.9898,-7.9898,-7.9898,-7.9898,-7.9898,-7.9898,-7.9898,-7.9898,-7.9898,-7.9898,-7.9898,-7.9898,-7.9941,-7.9988,-8.011,-8.0847,-8.2224,-8.3752,-8.4135,-8.4824,-8.5511,0.0,0.0,0.0,0.0,0.0,0.0,0.0,0.0,-3.991,0.0,0.0,0.0,0.0,-4.0539,0.0,0.0,0.0,0.0,-4.3364,-4.4346,-4.5173,-4.5864,-4.604,-4.6184,-4.6223,-4.6223,-4.7069,-4.8771,-5.0561,-5.1573,-5.1721,-5.1941,-5.223,-5.2378,-5.2624,-5.2903,-5.3078,-5.1729,-5.1282,-5.1464,-5.0086,-4.9649,0.0,0.0,0.0,0.0,0.0,0.0,0.0,0.0,-5.3732,-5.4591,-5.5582,-5.6162,-5.6383,-5.6383,-5.7352,-5.8502,-5.9042,-6.016,-6.1371,-6.2076,-6.3146,0.0,-6.4998,-6.5873,-6.6733,0.0,0.0,0.0,0.0,0.0,0.0,0.0,-7.3372,-7.3476,-7.3765,-7.3815,-7.3912,-7.4151,-7.5624,-7.6638,-7.6675,-7.814,-7.9116,-7.9116,-7.9116,-7.9165,-7.9263,-7.9263,-7.9406,-7.9546,-7.9638,-7.9728,-7.9854,-7.9898,-7.9898,-7.9898,-7.9898,-7.9898,-7.9898,-7.9898,-7.9898,-7.9898,-7.9898,-7.9898,-7.9898,-7.9898,-8.0098,-8.0524,-8.1794,-8.3018,-8.4129,-8.4515,-8.5013,-8.5511,0.0,0.0,0.0,0.0,0.0,0.0,0.0,0.0,-4.0261,-4.0261,-4.0401,0.0,0.0,0.0,0.0,0.0,0.0,0.0,-4.3396,-4.493,-4.5896,-4.6112,-4.6112,-4.6294,-4.6582,-4.6582,-4.7323,-4.8771,-5.0635,-5.1721,-5.2119,-5.2086,-5.2302,-5.2624,-5.2834,-5.3041,-5.3146,-5.199,-5.16,-5.1589,-5.0266,-4.9801,-5.0011,0.0,0.0,0.0,0.0,0.0,0.0,0.0,-5.3379,-5.3883,-5.5405,-5.6162,-5.6383,-5.6383,-5.7746,-5.9185,-5.9185,-6.0557,-6.206,-6.2328,0.0,0.0,-6.5249,-6.5925,-6.6786,-6.7752,0.0,0.0,0.0,0.0,0.0,-7.3261,-7.3372,-7.3476,-7.3765,-7.3815,-7.3912,-7.4151,-7.5624,-7.66,-7.66,-7.8102,-7.9079,-7.9116,-7.9116,-7.9116,-7.9116,-7.9214,-7.9311,-7.9311,-7.9546,-7.9683,-7.9683,-7.9854,-7.9898,-7.9898,-7.9898,-7.9898,-7.9898,-7.9898,-7.9898,-7.9898,-7.9898,-7.9898,-7.9898,-7.9898,-8.0477,-8.1474,-8.3145,-8.3921,-8.4243,-8.5082,-8.5431,-8.5511,0.0,0.0,0.0,0.0,0.0,0.0,0.0,0.0,-4.0331,-4.0401,-4.047,0.0,0.0,0.0,0.0,0.0,0.0,0.0,-4.3567,-4.5104,-4.604,-4.6112,-4.6365,-4.6545,-4.6582,-4.7346,-4.8199,-4.9174,-5.0478,-5.1448,-5.2119,-5.2373,-5.2553,-5.2834,-5.3041,-5.3179,-5.3315,-5.2055,-5.16,-5.1589,-5.0266,-4.9801,-5.0011,0.0,0.0,0.0,0.0,0.0,0.0,0.0,0.0,0.0,-5.5405,-5.6162,-5.6383,-5.6383,-5.7746,-5.9185,-5.9185,-6.0557,0.0,0.0,0.0,0.0,0.0,0.0,0.0,0.0,0.0,0.0,0.0,0.0,0.0,-7.3335,-7.3372,-7.3424,-7.3665,-7.3765,-7.3864,-7.4056,-7.5051,-7.5962,-7.6563,-7.7614,-7.8478,-7.9079,-7.9116,-7.9116,-7.9116,-7.9165,-7.9214,-7.9311,-7.9406,-7.95,-7.9683,-7.9728,-7.981,-7.9898,-7.9898,-7.9898,-7.9898,-7.9898,-7.9898,-7.9898,-7.9898,-7.9898,-7.9936,-8.0504,-8.1306,-8.2222,-8.3329,-8.422,-8.4919,-8.527,-8.5431,-8.5511,0.0,0.0,0.0,0.0,0.0,0.0,-4.0331,-4.0401,-4.0401,-4.047,-4.0539,-4.0539,0.0,0.0,0.0,-4.156,-4.2768,0.0,-4.4186,-4.5405,-4.6152,-4.6294,-4.6474,-4.6652,-4.6823,-4.759,-4.8282,-4.9071,-5.0364,-5.1465,-5.2302,-5.2483,-5.2764,-5.3041,-5.311,-5.3348,-5.3416,-5.2119,-5.16,-5.1589,-5.0326,-4.986,-5.0011,0.0,0.0,0.0,0.0,0.0,0.0,0.0,0.0,0.0,-5.5405,-5.6162,-5.6383,-5.6383,-5.7746,-5.9185,-5.9185,0.0,0.0,0.0,0.0,0.0,0.0,0.0,0.0,0.0,0.0,0.0,-7.2444,-7.3038,0.0,-7.3372,-7.3372,-7.3424,-7.3615,-7.3665,-7.3815,-7.4009,-7.4768,-7.5689,-7.6563,-7.7389,-7.8215,-7.9041,-7.9116,-7.9116,-7.9116,-7.9116,-7.9165,-7.9214,-7.9263,-7.9406,-7.9546,-7.9638,-7.9728,-7.981,-7.9898,-7.9898,-7.9898,-7.9898,-7.9898,-7.9898,-7.9898,-8.0087,-8.0428,-8.1262,-8.2096,-8.2968,-8.3892,-8.4588,-8.5138,-8.5262,-8.5388,-8.5471,0.0,0.0,-4.0081,-4.0261,0.0,0.0,-4.047,-4.0539,-4.0539,-4.0539,-4.0539,-4.0608,0.0,0.0,0.0,-4.2359,-4.3189,-4.4091,-4.4967,-4.5698,-4.6294,-4.6582,-4.6652,-4.6823,-4.7235,-4.7403,-4.7965,-4.8824,-5.0208,-5.1475,-5.2524,-5.259,-5.2834,-5.3179,-5.3247,-5.3348,-5.3483,-5.2316,-5.1794,-5.1651,-5.0548,-5.008,-5.0011,-5.0149,0.0,0.0,0.0,0.0,0.0,0.0,0.0,0.0,-5.544,-5.6106,-5.6383,-5.6383,-5.7746,-5.9185,0.0,0.0,0.0,0.0,0.0,0.0,0.0,0.0,0.0,0.0,0.0,0.0,-7.3075,-7.3372,-7.3372,-7.3372,-7.3372,-7.3424,-7.3527,-7.3578,-7.3715,-7.3923,-7.4645,-7.5481,-7.644,-7.7314,-7.8102,-7.8928,-7.9079,-7.9116,-7.9116,-7.9116,-7.9116,-7.9116,-7.9214,-7.9311,-7.9311,-7.9546,-7.9683,-7.9683,-7.9854,-7.9898,-7.9898,-7.9898,-7.9898,-7.9898,-7.9973,-8.0428,-8.1148,-8.2096,-8.293,-8.3688,-8.456,-8.4954,-8.5006,-8.5138,-8.5262,-8.5388,0.0,0.0,-4.0401,-4.047,0.0,0.0,-4.0539,-4.0539,-4.0539,-4.0539,-4.0677,-4.0715,-4.0814,-4.1055,0.0,-4.2359,-4.3189,-4.4091,-4.4967,-4.5808,-4.6333,-4.6582,-4.6892,-4.7199,-4.7403,-4.7571,-4.8067,-4.9027,-4.992,-5.0886,-5.1758,-5.2497,-5.2972,-5.3179,-5.3348,-5.3551,-5.3583,-5.2861,-5.2301,-5.1843,-5.1158,-5.0528,-5.0011,-5.0263,-5.0341,0.0,0.0,0.0,0.0,0.0,0.0,0.0,-5.5349,-5.6049,-5.6253,-5.6328,-5.7746,-5.9185,0.0,0.0,0.0,0.0,0.0,0.0,0.0,0.0,0.0,0.0,0.0,0.0,-7.3187,-7.3372,-7.3372,-7.3372,-7.3372,-7.3372,-7.3424,-7.3527,-7.3615,-7.3715,-7.4013,-7.4571,-7.5443,-7.6402,-7.7276,-7.8102,-7.8741,-7.9116,-7.9116,-7.9116,-7.9116,-7.9116,-7.9116,-7.9214,-7.9311,-7.9359,-7.95,-7.9683,-7.9728,-7.981,-7.9898,-7.9898,-7.9898,-7.9936,-8.058,-8.0921,-8.1224,-8.2702,-8.3422,-8.3688,-8.456,-8.4954,-8.5006,-8.5051,-8.5181,-8.5388,0.0,0.0,0.0,0.0,0.0,0.0,0.0,0.0,-4.0509,-4.0677,-4.0715,-4.0851,-4.0987,-4.1502,0.0,0.0,-4.3801,-4.4706,-4.5617,-4.6109,-4.6615,-4.6892,-4.7098,-4.7302,-4.7604,-4.7638,-4.7968,-4.8564,-4.936,-5.0391,-5.1662,-5.2268,-5.2774,-5.3348,-5.3416,-5.3551,-5.3649,-5.3096,-5.2677,-5.2454,-5.1882,-5.1425,-5.108,-5.128,-5.1454,-5.1511,-5.1794,0.0,0.0,0.0,0.0,0.0,0.0,0.0,-5.6253,-5.6328,-5.7405,-5.8663,0.0,0.0,0.0,0.0,0.0,0.0,0.0,0.0,0.0,0.0,0.0,-7.2161,-7.3119,-7.3357,-7.3372,-7.3372,-7.3372,-7.3372,-7.3372,-7.3424,-7.3564,-7.3578,-7.3728,-7.4163,-7.5035,-7.6043,-7.6916,-7.7741,-7.8579,-7.9116,-7.9116,-7.9116,-7.9116,-7.9116,-7.9116,-7.9165,-7.9214,-7.9263,-7.9359,-7.95,-7.9592,-7.9683,-7.981,-7.9898,-7.9898,-7.9936,-8.0731,-8.1338,-8.1831,-8.3081,-8.3839,-8.4256,-8.4711,-8.4947,-8.4954,-8.5006,-8.5094,-8.5262,0.0,0.0,0.0,0.0,0.0,0.0,0.0,0.0,0.0,-4.0969,-4.1038,-4.1236,-4.1601,-4.2234,-4.3,0.0,0.0,0.0,-4.6269,-4.6512,-4.6823,-4.7167,-4.7267,-4.737,-4.7704,-4.7704,-4.7836,-4.8001,-4.8761,-4.9959,-5.143,-5.19,-5.2505,-5.3315,-5.345,-5.3618,-5.3749,-5.3232,-5.3083,-5.3101,-5.2605,-5.2321,-5.2218,-5.2433,-5.2612,-5.2729,-5.2869,-5.3041,-5.3296,-5.4033,0.0,0.0,0.0,0.0,-5.6197,-5.6328,-5.7064,-5.8016,0.0,0.0,0.0,0.0,0.0,0.0,0.0,0.0,0.0,0.0,-7.1082,-7.2108,-7.2997,-7.3305,-7.341,-7.341,-7.3372,-7.3372,-7.3372,-7.3372,-7.3424,-7.3527,-7.3615,-7.3926,-7.4661,-7.567,-7.6593,-7.7417,-7.8341,-7.8916,-7.9079,-7.9116,-7.9116,-7.9116,-7.9116,-7.9116,-7.9116,-7.9214,-7.9263,-7.9311,-7.9453,-7.9546,-7.9683,-7.981,-7.9973,-8.0163,-8.0959,-8.1793,-8.2664,-8.3498,-8.4256,-8.4901,-8.4901,-8.4901,-8.4901,-8.4954,-8.5006,-8.5051,0.0,0.0,0.0,0.0,0.0,0.0,0.0,0.0,0.0,0.0,-4.1991,-4.2416,-4.305,-4.3378,-4.3864,-4.4738,-4.4935,-4.5426,-4.648,0.0,0.0,-4.7167,-4.7403,-4.7537,-4.7704,-4.7869,-4.8001,-4.8001,-4.8392,-4.9053,-4.9923,-5.1429,-5.2202,-5.2503,-5.3179,-5.3685,-5.398,-5.3878,-5.3661,-5.3329,-5.3287,-5.2839,-5.2218,-5.2433,-5.2612,-5.2729,-5.2869,-5.3041,-5.3296,-5.4033,-5.4314,0.0,0.0,0.0,-5.5993,-5.6328,-5.7064,0.0,0.0,0.0,0.0,0.0,0.0,0.0,0.0,0.0,0.0,0.0,-7.0901,-7.1876,-7.2834,-7.3145,-7.3252,-7.3252,-7.3357,-7.3372,-7.3372,-7.3372,-7.3372,-7.3424,-7.3527,-7.3652,-7.3777,-7.4624,-7.5633,-7.6593,-7.7429,-7.8266,-7.9079,-7.9116,-7.9116,-7.9116,-7.9116,-7.9116,-7.9116,-7.9116,-7.9214,-7.9311,-7.9453,-7.9546,-7.9683,-7.9683,-8.0189,-8.0997,-8.1831,-8.2664,-8.3498,-8.437,-8.4787,-8.4901,-8.4901,-8.4901,-8.4901,-8.4901,-8.4954,-8.5006,0.0,0.0,0.0,0.0,0.0,0.0,0.0,0.0,0.0,0.0,0.0,-4.3151,-4.3535,-4.3983,-4.4471,-4.4967,-4.5451,-4.5981,-4.6722,-4.6892,-4.703,-4.7335,-4.747,-4.7604,-4.7869,-4.7935,-4.8001,-4.8001,-4.8356,-4.8651,-4.9019,-5.0755,-5.1862,-5.2334,-5.3145,-5.3685,-5.398,-5.398,-5.4004,-5.4011,-5.4011,-5.3804,-5.3494,-5.3591,-5.374,-5.3982,-5.4042,-5.422,-5.4524,-5.4875,-5.4981,-5.5109,-5.5601,0.0,0.0,0.0,-5.6633,0.0,0.0,0.0,0.0,0.0,0.0,0.0,0.0,0.0,0.0,-6.9741,-7.0367,-7.1158,-7.2558,-7.2982,-7.3091,-7.3091,-7.3145,-7.3199,-7.3305,-7.3305,-7.3305,-7.3372,-7.3424,-7.3513,-7.3513,-7.4323,-7.5058,-7.5533,-7.6817,-7.7816,-7.8304,-7.8754,-7.9016,-7.9116,-7.9116,-7.9116,-7.9116,-7.9116,-7.9116,-7.9214,-7.9311,-7.9406,-7.95,-7.9638,-8.0226,-8.1148,-8.202,-8.2854,-8.365,-8.456,-8.4901,-8.4901,-8.4901,-8.4901,-8.4901,-8.4901,-8.4947,-8.4954,0.0,0.0,0.0,0.0,0.0,0.0,0.0,0.0,0.0,0.0,0.0,-4.3882,-4.4243,0.0,0.0,0.0,-4.5872,-4.6474,-4.6892,-4.6892,-4.7098,-4.747,-4.747,-4.7671,-4.8001,-4.8001,-4.8001,-4.8001,-4.8356,-4.8483,-4.8517,-5.0315,-5.1488,-5.2063,-5.3078,-5.3685,-5.398,-5.398,-5.4175,-5.4494,-5.4494,-5.4494,-5.4494,-5.4494,-5.4683,-5.493,-5.4992,-5.5174,-5.5448,-5.5507,-5.5507,-5.5507,-5.5648,-5.5764,0.0,0.0,0.0,-5.7421,0.0,0.0,0.0,0.0,0.0,0.0,0.0,0.0,0.0,0.0,-6.9758,-7.0457,-7.2002,-7.2669,-7.2927,-7.2927,-7.2982,-7.3037,-7.3145,-7.3145,-7.3199,-7.332,-7.3357,-7.332,-7.3372,-7.4034,-7.4532,-7.477,-7.6252,-7.7251,-7.7629,-7.8466,-7.8966,-7.9066,-7.9116,-7.9116,-7.9116,-7.9116,-7.9116,-7.9116,-7.9214,-7.9263,-7.9311,-7.95,-8.025,-8.1407,-8.2096,-8.2968,-8.3991,-8.4635,-8.4901,-8.4901,-8.4901,-8.4901,-8.4901,-8.4901,-8.4901,-8.4901,0.0,0.0,0.0,0.0,0.0,0.0,0.0,0.0,0.0,0.0,0.0,-4.4938,-4.5634,-4.5728,-4.5873,-4.6198,-4.623,-4.6474,-4.6892,-4.6892,-4.7098,-4.747,-4.747,0.0,-4.8001,-4.8001,-4.8001,-4.8001,-4.8356,-4.8483,-4.8517,-5.0315,-5.1251,-5.1352,-5.2841,-5.3685,-5.398,-5.398,-5.4175,-5.4494,-5.4494,-5.4494,-5.4494,-5.4494,-5.4655,-5.4842,-5.493,-5.5079,-5.5259,-5.5448,-5.5507,-5.5507,-5.5648,-5.5706,-5.5764,0.0,0.0,0.0,0.0,0.0,0.0,0.0,0.0,0.0,0.0,0.0,0.0,-6.8268,-6.9128,-6.9931,-7.0982,-7.2039,-7.2723,-7.2723,-7.2872,-7.2982,-7.2982,-7.2982,-7.3037,-7.3199,-7.3199,-7.3252,-7.3372,-7.341,-7.3833,-7.4732,-7.5589,-7.6499,-7.7475,-7.8364,-7.8915,-7.8915,-7.9066,-7.9116,-7.9116,-7.9116,-7.9116,-7.9116,-7.9116,-7.9165,-7.9311,-7.9311,-8.0321,-8.2149,-8.2316,-8.3309,-8.4863,-8.4901,-8.4901,-8.4901,-8.4901,-8.4901,-8.4901,-8.4901,-8.4901,-8.4901,0.0,0.0,0.0,0.0,0.0,0.0,0.0,0.0,0.0,0.0,0.0,0.0,0.0,-4.5896,-4.608,-4.6262,-4.6545,-4.6754,-4.6892,-4.6892,-4.7098,-4.747,-4.747,-4.7671,-4.8001,-4.8001,-4.8001,-4.8001,-4.8356,-4.8483,-4.8517,-5.0315,-5.1217,-5.1285,-5.2807,-5.3685,-5.398,-5.398,-5.4175,-5.4494,-5.4494,-5.4494,-5.4494,-5.4494,-5.4655,-5.4842,-5.493,-5.5079,-5.5259,-5.5448,-5.5507,-5.5507,-5.5566,-5.559,-5.587,-5.6709,-5.7769,-5.8881,-5.9838,0.0,0.0,0.0,0.0,0.0,0.0,0.0,-6.7258,-6.8117,-6.8575,-6.9216,-7.0624,-7.1714,-7.2438,-7.2553,-7.261,-7.2667,-7.2779,-7.2779,-7.2835,-7.3037,-7.3145,-7.3199,-7.3252,-7.3357,-7.3573,-7.3885,-7.4666,-7.5537,-7.6499,-7.7371,-7.8185,-7.8878,-7.8966,-7.9016,-7.9116,-7.9116,-7.9116,-7.9116,-7.9116,-7.9116,-7.9165,-7.979,-8.0752,-8.198,-8.2652,-8.3663,-8.4901,-8.4901,-8.4901,-8.4901,-8.4901,-8.4901,-8.4901,-8.4901,-8.4901,-8.4901,0.0,0.0,0.0,-4.4572,0.0,-4.4949,-4.5129,-4.5352,-4.5573,-4.575,0.0,0.0,0.0,0.0,-4.6152,-4.6404,-4.6684,-4.6892,-4.6892,-4.6892,-4.7098,-4.747,-4.747,-4.7671,-4.8001,-4.8001,-4.8001,-4.8001,-4.8356,-4.8483,-4.8517,-5.0315,-5.1217,-5.1285,-5.2807,-5.3685,-5.398,-5.398,-5.4175,-5.4494,-5.4494,-5.4667,-5.4874,-5.4874,-5.511,-5.5479,-5.5633,-5.5757,-5.5942,-5.6124,-5.622,-5.628,-5.628,-5.6399,-5.6682,-5.7635,-5.8414,-5.9099,-6.0058,-6.0782,0.0,0.0,0.0,0.0,0.0,0.0,-6.6895,-6.7497,-6.7905,-6.8531,-6.9682,-7.0675,-7.1523,-7.2212,-7.238,-7.2438,-7.2553,-7.261,-7.2667,-7.2872,-7.2982,-7.3091,-7.3145,-7.3252,-7.332,-7.332,-7.4153,-7.4986,-7.5909,-7.6766,-7.7782,-7.8775,-7.8864,-7.8966,-7.9066,-7.9066,-7.9116,-7.9116,-7.9116,-7.9116,-7.9116,-8.0042,-8.0956,-8.1833,-8.276,-8.3785,-8.4854,-8.4854,-8.4854,-8.4901,-8.4901,-8.4901,-8.4901,-8.4901,-8.4901,-8.4901,-4.4572,-4.4572,-4.4572,-4.4572,-4.4799,-4.4949,-4.5129,-4.5383,-4.5573,-4.5792,0.0,0.0,0.0,0.0,0.0,-4.6582,-4.6823,-4.6892,-4.6892,-4.6892,-4.7098,-4.747,-4.747,-4.7671,-4.8001,-4.8001,-4.8001,-4.8001,-4.8356,-4.8483,-4.855,-5.0315,-5.1217,-5.1319,-5.2841,-5.3685,-5.398,-5.398,-5.4175,-5.4494,-5.4529,-5.4977,-5.5598,-5.5632,-5.6115,-5.6805,-5.6967,-5.7161,-5.7289,-5.7444,-5.7666,-5.779,-5.779,-5.7912,-5.8174,-5.895,-5.9441,-5.9858,0.0,0.0,0.0,0.0,0.0,0.0,-6.4806,0.0,-6.633,-6.6452,-6.7125,-6.7788,-6.8123,-6.88,-6.9914,-7.1659,-7.2108,-7.2263,-7.2263,-7.238,-7.2553,-7.2667,-7.2723,-7.2779,-7.2982,-7.3091,-7.3199,-7.3199,-7.4063,-7.4896,-7.5713,-7.6766,-7.7729,-7.8671,-7.8812,-7.8915,-7.8915,-7.9016,-7.9116,-7.9116,-7.9116,-7.9116,-7.9154,-8.0017,-8.0944,-8.1833,-8.2661,-8.3677,-8.4713,-8.4713,-8.476,-8.4901,-8.4901,-8.4901,-8.4901,-8.4901,-8.4901,-8.4901,-4.4572,-4.4572,-4.4572,-4.4572,-4.4905,-4.5129,-4.5204,-4.5499,-4.575,0.0,0.0,0.0,-4.5823,-4.608,-4.6404,-4.6791,-4.6892,-4.6892,-4.6892,-4.6892,-4.7098,-4.747,-4.747,-4.7671,-4.8001,-4.8001,-4.8001,-4.8001,-4.8356,-4.8751,-4.932,-5.0584,-5.1488,-5.2063,-5.3044,-5.3618,-5.3783,-5.3915,-5.411,-5.4338,-5.5017,-5.5426,-5.5667,-5.6253,-5.6598,-5.6805,-5.6967,-5.7032,-5.7161,-5.7381,-5.7506,-5.7604,-5.7728,-5.779,-5.7991,-5.895,-5.9258,-5.9557,-6.0397,0.0,0.0,0.0,0.0,0.0,-6.404,-6.5238,-6.6269,-6.633,-6.651,-6.6895,-6.7716,-6.8066,-6.8536,-6.9769,-7.0665,-7.1267,-7.1421,-7.1955,-7.2416,-7.2553,-7.2667,-7.2723,-7.2779,-7.2982,-7.3091,-7.3199,-7.3474,-7.3972,-7.4858,-7.6468,-7.7676,-7.8512,-7.8708,-7.8812,-7.8915,-7.8966,-7.9016,-7.9116,-7.9116,-7.9116,-7.9154,-8.0618,-8.1369,-8.172,-8.3148,-8.4041,-8.4419,-8.4616,-8.4713,-8.476,-8.4854,-8.4901,-8.4901,-8.4901,-8.4901,-8.4901,-4.4572,-4.4572,-4.4572,-4.4572,-4.4905,-4.5204,-4.5204,-4.5499,-4.5823,0.0,0.0,0.0,-4.6866,-4.7084,-4.7373,-4.7696,-4.7767,-4.7767,-4.7767,-4.7767,-4.7777,-4.7929,-4.7896,-4.7967,-4.8001,-4.8001,-4.8001,-4.8001,-4.8592,-4.9187,-4.9622,-5.0989,-5.1894,-5.2334,-5.3145,-5.3551,-5.3618,-5.4256,-5.459,-5.4754,-5.5396,-5.6012,-5.6633,-5.7081,-5.746,-5.7736,-5.7835,-5.7901,-5.7967,-5.8293,-5.8485,-5.8612,-5.8675,-5.8773,-5.8843,-5.9425,-5.9628,-5.9796,-6.0379,-6.0609,-6.0696,-6.0696,0.0,0.0,-6.351,-6.4849,-6.6083,-6.6146,-6.6146,-6.6351,-6.7004,-6.7137,-6.7317,-6.7969,-6.8875,-6.9732,-7.0332,-7.0829,-7.1326,-7.1867,-7.1982,-7.2186,-7.2573,-7.2779,-7.2927,-7.2982,-7.3145,-7.3585,-7.4561,-7.6266,-7.7419,-7.792,-7.8363,-7.8655,-7.876,-7.8864,-7.8966,-7.9016,-7.9066,-7.9116,-7.9154,-8.0843,-8.1594,-8.1707,-8.3359,-8.4125,-8.4266,-8.4469,-8.4568,-8.4665,-8.476,-8.4808,-8.4808,-8.4854,-8.4901,-8.4901,0.0,-4.4572,-4.4572,-4.4572,-4.4905,-4.5235,-4.5329,-4.5625,-4.595,0.0,-4.655,-4.7299,-4.8381,-4.8477,-4.8593,-4.8957,-4.903,-4.903,-4.903,-4.903,-4.8881,-4.8649,-4.8617,-4.8458,-4.8266,-4.8233,-4.8233,-4.8233,-4.9192,-4.9756,-4.9856,-5.1494,-5.2334,-5.2469,-5.3179,-5.3551,-5.3653,-5.4701,-5.5277,-5.5647,-5.5809,-5.6702,-5.7909,-5.8081,-5.8564,-5.915,-5.9254,-5.9357,-5.9561,-5.9731,-6.0028,-6.0352,-6.0352,-6.0282,-6.0212,-6.0212,-6.0304,-6.0396,-6.0396,-6.0458,-6.0583,-6.0653,-6.1911,0.0,-6.3306,-6.4607,-6.5804,-6.5958,-6.5958,-6.6021,-6.6207,-6.6269,-6.633,-6.6452,-6.7089,-6.7969,-6.9067,-6.9427,-6.9931,-7.0836,-7.1019,-7.1406,-7.2255,-7.2573,-7.2667,-7.2723,-7.3037,-7.3585,-7.4561,-7.6084,-7.6976,-7.7087,-7.8031,-7.8495,-7.8495,-7.876,-7.8864,-7.8915,-7.9016,-7.9116,-7.9154,-8.0843,-8.1594,-8.1707,-8.3359,-8.411,-8.411,-8.4266,-8.4368,-8.4481,-8.4665,-8.4713,-8.4713,-8.4808,-8.4854,-8.4854,-4.4572,-4.4572,-4.4572,-4.4572,-4.4905,-4.5391,-4.5921,-4.6391,-4.6834,-4.7403,-4.7593,-4.787,-4.8445,-4.8477,-4.8593,-4.8957,-4.903,-4.903,-4.903,-4.903,-4.9109,-4.937,-4.937,-4.9477,-4.979,-4.979,-4.979,-4.979,-5.0092,-5.0627,-5.1363,-5.1866,-5.2539,-5.3281,-5.345,-5.3822,-5.4397,-5.4703,-5.5656,-5.7021,-5.7327,-5.7633,-5.8047,-5.9288,-5.984,-6.0047,-6.0634,-6.0875,-6.0945,-6.1155,-6.1431,-6.1733,-6.1733,-6.1415,-6.1055,-6.1055,-6.0598,-6.0171,-6.0171,-6.0297,-6.0599,-6.1136,-6.2174,0.0,-6.3789,-6.4805,-6.5575,-6.5575,-6.5704,-6.5895,-6.6021,-6.6083,-6.6146,-6.6269,-6.6474,-6.7017,-6.8232,-6.9041,-6.9536,-6.9894,-7.0595,-7.1186,-7.1369,-7.2071,-7.2553,-7.2723,-7.3037,-7.3532,-7.4401,-7.5473,-7.6382,-7.705,-7.7923,-7.8386,-7.8495,-7.8549,-7.8708,-7.8915,-7.8915,-7.9016,-7.9154,-8.0843,-8.1594,-8.1707,-8.3359,-8.411,-8.411,-8.4163,-8.4215,-8.4331,-8.4481,-8.453,-8.453,-8.4713,-8.476,-8.476,-4.4572,-4.4572,-4.4572,-4.4572,-4.5259,-4.5828,-4.614,-4.6894,-4.7466,-4.7846,-4.8193,-4.8663,-4.9317,-4.9533,-4.9684,-4.9876,-5.0025,-5.0098,-5.0098,-5.0098,-5.0083,-5.0014,-5.0085,-5.0134,-5.005,-5.0152,-5.022,-5.022,-5.0656,-5.1227,-5.1798,-5.2404,-5.291,-5.3518,-5.389,-5.4262,-5.4634,-5.5552,-5.6542,-5.7397,-5.7638,-5.8289,-5.9116,-5.9909,-6.0427,-6.0806,-6.1185,-6.136,-6.1465,-6.1535,-6.1745,-6.202,-6.2053,-6.1943,-6.1695,-6.1827,-6.1546,-6.123,-6.123,-6.133,-6.1501,-6.1852,-6.2652,0.0,0.0,-6.468,-6.5415,-6.5415,-6.5545,-6.564,-6.5768,-6.5832,-6.5958,-6.6146,-6.6146,-6.6413,-6.7174,-6.7632,-6.8209,-6.8845,-6.9362,-6.9916,-7.0433,-7.1259,-7.2055,-7.263,-7.2835,-7.3185,-7.3791,-7.4623,-7.5548,-7.6419,-7.7236,-7.7923,-7.8386,-7.8495,-7.8602,-7.8708,-7.8864,-7.8966,-7.9054,-8.0793,-8.1594,-8.1707,-8.3359,-8.411,-8.411,-8.411,-8.4163,-8.4215,-8.4368,-8.4381,-8.4419,-8.453,-8.4579,-8.4579,-4.4572,-4.4572,-4.4603,-4.4756,-4.5525,-4.6296,-4.6545,-4.7415,-4.8054,-4.8256,-4.8889,-4.9599,-5.0405,-5.0831,-5.1083,-5.1315,-5.1512,-5.1588,-5.1588,-5.1459,-5.121,-5.0847,-5.0903,-5.0719,-5.034,-5.0549,-5.0618,-5.0618,-5.132,-5.1724,-5.1931,-5.2773,-5.3348,-5.3653,-5.4329,-5.4735,-5.5108,-5.6433,-5.7323,-5.7807,-5.7912,-5.8875,-6.022,-6.053,-6.1013,-6.1565,-6.1703,-6.1843,-6.1985,-6.1985,-6.2126,-6.2266,-6.237,-6.2402,-6.2331,-6.2466,-6.2427,-6.2322,-6.2389,-6.2389,-6.2424,-6.2564,-6.3225,-6.3784,0.0,0.0,0.0,-6.5216,-6.5349,-6.5445,-6.5445,-6.5611,-6.5804,-6.5895,-6.5958,-6.6021,-6.6207,-6.633,-6.6765,-6.7738,-6.8073,-6.8553,-6.9477,-7.0506,-7.1464,-7.2372,-7.2593,-7.2835,-7.3091,-7.3922,-7.4809,-7.5733,-7.6642,-7.7459,-7.8276,-7.8386,-7.8495,-7.8495,-7.8708,-7.8864,-7.8901,-8.0742,-8.1543,-8.1656,-8.3359,-8.411,-8.411,-8.411,-8.411,-8.411,-8.4215,-8.4266,-8.4317,-8.4381,-8.4431,-8.4481,-4.4572,-4.4572,-4.4756,-4.5372,-4.5758,-4.6377,-4.7856,-4.8294,-4.8781,-4.9537,-5.0311,-5.0865,-5.1168,-5.1901,-5.2525,-5.2763,-5.2921,-5.3078,-5.3078,-5.2462,-5.2118,-5.2281,-5.1917,-5.1704,-5.1855,-5.207,-5.2142,-5.2142,-5.2279,-5.2383,-5.2524,-5.28,-5.3411,-5.4188,-5.4464,-5.531,-5.6562,-5.6731,-5.7831,-5.9344,-5.9416,-5.9732,-6.0358,-6.1703,-6.2289,-6.2427,-6.3082,-6.3324,-6.3324,-6.3324,-6.3505,-6.365,-6.3722,-6.3308,-6.2962,-6.317,-6.268,-6.2188,-6.2322,-6.2389,-6.2564,-6.3267,-6.3512,-6.3758,-6.4425,0.0,-6.5046,-6.5046,0.0,-6.5349,-6.5349,0.0,0.0,-6.5575,-6.574,-6.5832,-6.6021,-6.6083,-6.6243,-6.662,-6.757,-6.8277,-6.8386,-7.0062,-7.1244,-7.1431,-7.2206,-7.2723,-7.2779,-7.3776,-7.4791,-7.5569,-7.6587,-7.7459,-7.8276,-7.8332,-7.8386,-7.8495,-7.8549,-7.8602,-7.8746,-8.0586,-8.144,-8.1552,-8.3307,-8.411,-8.411,-8.411,-8.411,-8.411,-8.411,-8.4163,-8.4163,-8.4229,-8.4317,-8.4368,-4.5017,-4.508,-4.5372,-4.6049,-4.6669,-4.737,-4.8199,-4.9299,-5.0136,-5.05,-5.1132,-5.1575,-5.1656,-5.2186,-5.2507,-5.2749,0.0,-5.3147,0.0,-5.3013,-5.2851,-5.2929,-5.2867,-5.2735,-5.2532,-5.2679,-5.2627,-5.2373,-5.2373,-5.2445,-5.2624,-5.3268,-5.3777,-5.4357,-5.541,-5.6224,-5.6867,-5.7712,-5.8676,-5.9652,-6.0574,-6.117,-6.1599,-6.2255,-6.3013,-6.3876,-6.4634,-6.491,-6.491,-6.491,-6.4985,-6.506,-6.5135,-6.4966,-6.4766,-6.4565,-6.4182,-6.3904,-6.3623,-6.3587,-6.3657,-6.4144,-6.425,-6.432,-6.4636,-6.4775,-6.4878,-6.4878,0.0,0.0,0.0,0.0,0.0,0.0,-6.5575,-6.5675,-6.5832,-6.5958,-6.6146,-6.6452,-6.6921,-6.7497,-6.8146,-6.9091,-7.0124,-7.1134,-7.1615,-7.2132,-7.2686,-7.3167,-7.3887,-7.4866,-7.5773,-7.6698,-7.757,-7.8053,-7.8332,-7.8386,-7.8495,-7.8549,-7.864,-8.048,-8.1334,-8.1499,-8.3164,-8.402,-8.411,-8.411,-8.411,-8.411,-8.411,-8.411,-8.411,-8.4163,-8.4215,-8.4215,-4.5807,-4.583,-4.608,-4.6757,-4.7472,-4.8097,-4.8711,-5.0021,-5.0956,-5.1227,-5.1859,-5.2302,-5.2302,-5.2625,0.0,0.0,-5.3488,-5.3648,0.0,-5.3725,-5.3628,-5.3628,-5.3558,-5.3432,-5.3105,-5.3288,-5.3247,-5.297,-5.297,-5.3042,-5.3185,-5.3899,-5.4481,-5.4892,-5.6183,-5.7036,-5.7476,-5.8558,-5.9457,-6.0262,-6.1667,-6.2678,-6.3393,-6.3186,-6.391,-6.5117,-6.5669,-6.5876,-6.5876,-6.5876,-6.5876,-6.5876,-6.5994,-6.6069,-6.5965,-6.5634,-6.5534,-6.543,-6.5055,-6.4952,-6.4917,-6.4883,-6.4883,-6.4918,-6.4672,-6.4637,-6.4706,-6.4706,-6.481,0.0,0.0,0.0,-6.5282,-6.5313,0.0,-6.551,-6.5675,-6.5832,-6.6083,-6.633,-6.6452,-6.6848,-6.7782,-6.8304,-6.9133,-7.0323,-7.0951,-7.1578,-7.2299,-7.2556,-7.3204,-7.4275,-7.5144,-7.6069,-7.6995,-7.7868,-7.8276,-7.8276,-7.8386,-7.8441,-7.8478,-8.0318,-8.1211,-8.1393,-8.3056,-8.3822,-8.402,-8.402,-8.402,-8.411,-8.411,-8.411,-8.411,-8.411,-8.411,-8.411,-4.678,-4.6793,-4.6788,-4.7465,-4.7588,-4.8213,-4.9957,-5.0485,-5.1014,-5.1891,-5.2618,-5.306,0.0,0.0,0.0,0.0,0.0,-5.5131,-5.5345,-5.4729,-5.4373,-5.4373,-5.3851,-5.3661,-5.3858,-5.4043,-5.427,-5.446,-5.446,-5.446,-5.446,-5.4828,-5.5448,-5.6151,-5.6622,-5.7611,-5.893,-5.8998,-5.9994,-6.1647,-6.2582,-6.4084,-6.5704,-6.491,-6.5117,-6.5842,-6.5876,-6.5876,-6.5876,-6.5876,-6.5876,-6.5876,-6.5876,-6.5876,-6.5952,-6.6035,-6.611,-6.6075,-6.6299,-6.6338,-6.6199,-6.5468,-6.5404,-6.5372,-6.4568,-6.4568,-6.4706,-6.4706,-6.4706,-6.4706,-6.4706,-6.4843,-6.5014,-6.5014,-6.5247,0.0,0.0,-6.5675,-6.5867,-6.6021,-6.633,-6.6632,-6.6961,-6.7746,-6.8393,-6.8787,-7.0214,-7.1207,-7.1358,-7.2206,-7.3091,-7.3975,-7.5033,-7.5977,-7.6792,-7.7812,-7.8276,-7.8276,-7.8276,-7.8276,-7.8351,-8.0191,-8.0991,-8.1121,-8.2837,-8.3712,-8.3784,-8.3784,-8.3929,-8.411,-8.411,-8.411,-8.411,-8.411,-8.411,-8.411,-4.7317,-4.7615,-4.7855,-4.8235,-4.8666,-4.9449,-5.0767,-5.1549,-5.2209,-5.2712,-5.3724,0.0,0.0,-5.5138,-5.5637,0.0,0.0,-5.6328,-5.6582,-5.6556,-5.651,-5.651,-5.588,-5.5458,-5.5398,-5.4951,-5.4612,-5.4527,-5.4527,-5.4527,-5.4527,-5.5395,-5.5984,-5.6251,-5.7594,-5.8558,-5.9099,-6.0114,-6.0977,-6.1749,-6.3315,-6.5027,-6.66,-6.6324,-6.6393,-6.6669,-6.7187,-6.7359,-6.7359,-6.7359,-6.7359,-6.7359,-6.7359,-6.7359,-6.7256,-6.6816,-6.6677,-6.665,-6.6283,-6.6219,-6.615,-6.6056,-6.606,-6.6136,-6.5929,-6.5618,-6.5338,-6.5478,-6.5092,-6.4706,-6.4706,-6.4775,-6.4878,-6.5014,-6.5082,-6.5247,0.0,-6.5675,-6.5867,-6.5985,-6.633,-6.6608,-6.6845,-6.7179,-6.7716,-6.8434,-6.9608,-7.06,-7.1284,-7.2112,-7.2757,-7.3128,-7.4568,-7.5531,-7.6014,-7.7404,-7.8165,-7.8276,-7.8276,-7.8276,-7.8351,-8.0042,-8.0842,-8.1066,-8.2762,-8.3546,-8.3657,-8.3657,-8.3767,-8.3876,-8.3876,-8.402,-8.411,-8.411,-8.411,-8.411,-4.7985,-4.8425,-4.8858,-4.8867,-4.9474,-5.0437,-5.1429,-5.2371,-5.3161,0.0,-5.4711,0.0,-5.5493,0.0,-5.6278,0.0,-5.6774,-5.6979,-5.7152,-5.7494,0.0,-5.7579,-5.7126,-5.6839,-5.6711,-5.6301,-5.5949,-5.5534,-5.561,-5.5554,-5.5289,-5.6088,-5.6679,-5.7022,-5.8294,-5.9227,-5.9877,-6.0892,-6.168,-6.2445,-6.4332,-6.6058,-6.7428,-6.7704,-6.7807,-6.7876,-6.8359,-6.8704,-6.8911,-6.8911,-6.8911,-6.8911,-6.8911,-6.8911,-6.8773,-6.8014,-6.7807,-6.7635,-6.6996,-6.6789,-6.6796,-6.663,-6.6711,-6.6716,-6.6477,-6.6206,-6.5929,-6.6144,-6.5584,-6.5058,-6.5127,-6.4917,-6.4706,-6.4843,-6.4911,-6.5114,0.0,-6.5675,-6.5867,-6.5985,-6.6269,-6.6512,-6.6668,-6.6845,-6.7201,-6.7883,-6.8799,-6.9811,-7.0731,-7.1594,-7.2259,-7.261,-7.4049,-7.5011,-7.5439,-7.6847,-7.7774,-7.8221,-7.8276,-7.8276,-7.8313,-7.9651,-8.0488,-8.0973,-8.235,-8.3115,-8.3489,-8.3489,-8.3602,-8.3767,-8.3784,-8.3876,-8.402,-8.4073,-8.411,-8.411,-4.8591,-4.9398,-4.9934,-4.9555,-5.0156,-5.1061,-5.2002,0.0,-5.3778,0.0,-5.5721,-5.6252,-5.6283,-5.6315,-5.6436,-5.6702,-5.691,-5.7172,-5.7377,-5.7603,0.0,-5.7741,-5.7709,-5.7729,-5.7948,-5.8165,-5.797,-5.7522,-5.776,-5.7475,-5.6779,-5.701,-5.764,-5.8461,-5.8724,-5.9717,-6.1298,-6.14,-6.2279,-6.3848,-6.571,-6.7102,-6.8256,-6.9049,-6.936,-6.9394,-6.936,-6.9773,-7.0394,-7.0394,-7.0394,-7.0394,-7.0394,-7.0394,-7.0256,-6.9532,-6.9325,-6.9187,-6.8428,-6.8221,-6.8049,-6.729,-6.7273,-6.7219,-6.6422,-6.6364,-6.6477,-6.6698,-6.6176,-6.5723,-6.59,-6.5268,-6.4776,-6.4741,-6.4843,-6.5114,-6.5445,-6.5675,-6.5867,-6.5958,-6.6146,-6.633,-6.6452,-6.6668,-6.6845,-6.7019,-6.7883,-6.8799,-6.9848,-7.0767,-7.1688,-7.2459,-7.3456,-7.438,-7.519,-7.6252,-7.7199,-7.8014,-7.8221,-7.8276,-7.8313,-7.9131,-7.9948,-8.0728,-8.162,-8.2553,-8.3413,-8.3413,-8.347,-8.3602,-8.3767,-8.3784,-8.3784,-8.402,-8.411,-8.411,-4.9104,-5.0004,-5.0938,-5.1481,-5.1475,-5.1924,-5.3365,-5.3854,0.0,0.0,-5.6325,-5.7168,-5.7674,-5.8211,-5.8717,-5.9285,-5.9535,0.0,0.0,-6.0302,-6.0347,-5.9976,-5.9457,-5.8993,-5.873,-5.8427,-5.8199,-5.8312,-5.8521,-5.8502,-5.8336,-5.8574,-5.8831,-5.9265,-6.0035,-6.0661,-6.1366,-6.2482,-6.3962,-6.5744,-6.6826,-6.789,-6.9049,-6.9808,-7.0429,-7.0843,-7.0291,-7.0222,-7.0394,-7.0394,-7.0394,-7.0394,-7.0394,-7.0394,-7.036,-7.0153,-7.0118,-7.0049,-6.9842,-6.9808,-6.9635,-6.8877,-6.8784,-6.8656,-6.7938,-6.7392,-6.7162,-6.7536,-6.698,-6.6318,-6.597,-6.5724,-6.5408,-6.4811,-6.4843,-6.5082,-6.5349,-6.548,-6.5675,-6.5832,-6.5958,-6.6207,-6.6452,-6.6548,-6.6691,-6.7019,-6.7804,-6.8721,-6.9848,-7.071,-7.1574,-7.2459,-7.3361,-7.4228,-7.519,-7.608,-7.7008,-7.8014,-7.8071,-7.8165,-7.8313,-7.9131,-7.9948,-8.0728,-8.162,-8.2495,-8.3239,-8.3239,-8.3355,-8.3433,-8.3489,-8.3657,-8.3784,-8.402,-8.411,-8.411,-4.9703,-5.0757,-5.197,-5.2978,-5.2979,-5.3161,-5.4236,-5.4851,-5.547,-5.6432,-5.7306,-5.8308,-5.9064,-5.9507,-5.9886,-6.0265,-6.0487,-6.0803,-6.1116,-6.1302,-6.1418,-6.1271,-6.085,-6.0388,-5.9794,-5.9683,-5.9413,-5.8873,-5.9201,-5.9231,-5.8899,-5.9059,-5.9385,-6.0035,-6.0897,-6.1593,-6.2381,-6.3835,-6.54,-6.6929,-6.768,-6.8679,0.0,-7.0601,-7.1118,-7.1498,-7.1429,-7.1394,-7.1394,-7.1394,-7.1394,-7.1394,-7.1394,-7.1394,-7.1325,-7.0981,-7.0877,-7.0808,-7.0463,-7.0394,-7.0291,-6.9877,-6.9773,-6.9647,-6.8932,-6.8448,-6.8146,-6.8107,-6.7561,-6.7047,-6.6845,-6.6285,-6.5619,-6.4846,-6.4843,-6.5082,-6.5282,-6.5415,-6.5575,-6.5804,-6.5832,-6.6021,-6.6269,-6.6391,-6.6572,-6.6903,-6.7361,-6.8117,-6.9185,-7.0104,-7.0967,-7.1982,-7.2753,-7.3802,-7.5037,-7.5632,-7.656,-7.782,-7.7957,-7.8071,-7.8165,-7.8759,-7.9614,-8.0728,-8.1211,-8.2103,-8.318,-8.318,-8.3239,-8.3297,-8.3413,-8.3546,-8.3767,-8.3876,-8.402,-8.411,-5.0538,-5.1747,-5.3054,-5.4229,-5.4507,-5.4724,-5.5005,-5.5719,-5.6559,-5.7432,-5.8435,-5.938,-6.0264,-6.0423,-6.0487,-6.0581,-6.0773,-6.109,-6.1372,-6.1591,-6.1805,-6.1951,-6.1951,-6.1627,-6.0947,-6.1359,-6.1,-5.9722,-6.0076,-5.996,-5.933,-5.933,-5.9904,-6.0906,-6.1642,-6.2656,-6.3903,-6.5256,-6.652,-6.7715,-6.8534,-6.9536,-7.0601,-7.136,-7.1636,-7.1739,-7.2533,-7.274,-7.2671,-7.2671,-7.2671,-7.2671,-7.2671,-7.2671,-7.2533,-7.1843,-7.1636,-7.1498,-7.0877,-7.067,-7.067,-7.0567,-7.0532,-7.0325,-6.9601,-6.9428,-6.9267,-6.8709,-6.8204,-6.7945,-6.7885,-6.688,-6.5759,-6.4987,-6.5019,-6.512,-6.5216,-6.5379,-6.5545,-6.574,-6.5804,0.0,-6.6021,-6.6269,-6.6512,-6.6727,-6.6903,-6.7404,-6.8341,-6.9295,-7.0307,-7.1228,-7.2092,-7.3266,-7.4882,-7.5037,-7.6,-7.762,-7.7842,-7.7957,-7.8014,-7.8221,-7.9168,-8.0691,-8.0691,-8.1657,-8.318,-8.318,-8.318,-8.318,-8.3355,-8.347,-8.3602,-8.3712,-8.3876,-8.402,-5.2665,-5.3068,0.0,0.0,-5.5542,-5.6286,-5.7161,-5.7047,-5.7146,-5.7925,-5.9027,-6.0038,-6.0827,-6.1085,-6.1435,-6.2003,-6.2067,-6.236,-6.2748,-6.2844,-6.2874,-6.2728,-6.2696,-6.2372,-6.166,-6.211,-6.2245,-6.1983,-6.191,-6.1715,-6.1583,-6.1583,-6.19,-6.2446,-6.3182,-6.4169,-6.5358,-6.6237,-6.7301,-6.8534,-6.9935,-7.0805,-7.1394,-7.2188,-7.2464,-7.2567,-7.3326,-7.3188,-7.2671,-7.2671,-7.2671,-7.2671,-7.2671,-7.2671,-7.2636,-7.2498,-7.2464,-7.2429,-7.2326,-7.2291,-7.2119,-7.1463,-7.1291,-7.1118,-7.036,-7.0187,-7.0061,-6.954,-6.942,-6.9199,-6.8094,-6.73,-6.6567,-6.5794,-6.5759,-6.5582,-6.5085,-6.5216,-6.5415,-6.5545,-6.574,-6.5832,-6.6021,-6.6207,-6.6427,-6.6512,-6.6727,-6.723,-6.8168,-6.9122,-7.0098,-7.1113,-7.2034,-7.3266,-7.4882,-7.4918,-7.5845,-7.762,-7.7643,-7.782,-7.8014,-7.8071,-7.9018,-8.0691,-8.0691,-8.1657,-8.318,-8.318,-8.318,-8.318,-8.3239,-8.3297,-8.347,-8.3433,-8.3546,-8.375,-5.3653,0.0,0.0,0.0,-5.6555,-5.7403,-5.804,-5.83,-5.8622,-5.916,-5.9768,-6.0689,-6.1953,-6.2279,-6.2762,-6.3457,-6.352,-6.3621,-6.4119,-6.4186,-6.4159,-6.3835,-6.3897,-6.3473,-6.2404,-6.2827,-6.2933,-6.2573,-6.2736,-6.2742,-6.2742,-6.2742,-6.2997,-6.3383,-6.4404,-6.5597,-6.6846,-6.7218,-6.8286,-6.9867,-7.0584,-7.1353,-7.2188,-7.2946,-7.3257,-7.336,-7.4119,-7.4154,-7.3843,-7.3843,-7.3843,-7.3843,-7.3843,-7.3843,-7.3843,-7.3843,-7.3843,-7.3774,-7.336,-7.3257,-7.3084,-7.2291,-7.2119,-7.1912,-7.1153,-7.0946,-7.0821,-7.0177,-6.9931,-6.9513,-6.8278,-6.7829,-6.7374,-6.6602,-6.6145,-6.5829,-6.5684,-6.5396,-6.5349,-6.5445,-6.5675,-6.5867,-6.5895,-6.6146,-6.633,-6.6452,-6.6668,-6.7026,-6.7564,-6.8786,-6.98,-7.0433,-7.1699,-7.3025,-7.4258,-7.4698,-7.5565,-7.6838,-7.734,-7.7643,-7.782,-7.7957,-7.8738,-7.9982,-8.0448,-8.1397,-8.2586,-8.3032,-8.318,-8.318,-8.318,-8.3239,-8.3297,-8.3355,-8.347,-8.3546,-5.463,-5.5239,0.0,-5.6696,-5.7535,-5.8195,-5.8573,-5.9481,-6.0178,-6.033,-6.0726,-6.1489,-6.3076,-6.3507,-6.383,-6.4468,-6.4532,-6.4602,-6.4906,-6.5176,-6.5151,-6.4802,-6.5062,-6.4736,-6.3603,-6.3871,-6.3817,-6.3261,-6.3496,-6.3504,-6.3504,-6.3504,-6.3929,-6.4622,-6.5732,-6.6914,-6.8166,-6.8335,-6.9338,-7.0926,-7.1234,-7.197,-7.2981,-7.374,-7.4016,-7.4119,-7.4912,-7.5188,-7.5223,-7.5361,-7.5188,-7.4947,-7.4947,-7.4947,-7.4947,-7.4947,-7.4947,-7.4809,-7.4188,-7.4016,-7.3878,-7.3291,-7.3015,-7.274,-7.2119,-7.1843,-7.1532,-7.0856,-7.0417,-6.9903,-6.8881,-6.8708,-6.8392,-6.7409,-6.6777,-6.6356,-6.6179,-6.5785,-6.5526,-6.548,-6.5675,-6.5804,-6.5804,-6.6021,-6.6269,-6.6452,-6.6668,-6.6845,-6.6961,-6.8509,-6.95,-6.9827,-7.1458,-7.2724,-7.367,-7.4515,-7.5322,-7.6093,-7.7095,-7.756,-7.762,-7.7783,-7.8438,-7.9253,-8.0242,-8.1285,-8.2288,-8.292,-8.318,-8.318,-8.318,-8.318,-8.318,-8.3297,-8.3355,-8.3413,-5.6436,-5.6706,-5.7049,-5.7346,-5.8022,-5.8684,-5.9173,-6.0377,-6.1094,-6.0794,-6.1567,-6.2426,-6.3516,-6.3891,-6.4129,-6.45,-6.4532,-6.4602,-6.4906,-6.5176,-6.5376,-6.5608,-6.5804,-6.5934,-6.5805,-6.5633,-6.5554,-6.5488,-6.4718,-6.4266,-6.4266,-6.4266,-6.5226,-6.6899,-6.7487,-6.8166,-6.9045,-6.9688,-7.0323,-7.1029,-7.2361,-7.3205,-7.3774,-7.4533,-7.4809,-7.4912,-7.5706,-7.6016,-7.612,-7.6775,-7.6085,-7.4947,-7.4947,-7.4947,-7.4947,-7.4947,-7.4947,-7.4912,-7.4843,-7.4809,-7.4809,-7.474,-7.4188,-7.3671,-7.3602,-7.305,-7.2444,-7.1849,-7.1489,-7.1112,-7.0389,-7.0288,-6.9797,-6.8357,-6.8041,-6.7515,-6.6075,-6.6141,-6.6061,-6.5419,-6.5611,-6.5804,-6.5804,-6.5958,-6.6146,-6.6269,-6.6608,-6.6822,-6.6786,-6.8486,-6.95,-6.9581,-7.1363,-7.2724,-7.367,-7.4515,-7.5322,-7.6093,-7.6937,-7.7402,-7.762,-7.762,-7.8145,-7.9098,-8.0067,-8.1503,-8.3069,-8.3143,-8.318,-8.318,-8.318,-8.318,-8.318,-8.318,-8.3239,-8.3239,-5.6627,-5.7136,-5.7511,-5.7828,-5.8911,-5.9848,-6.0274,-6.1279,-6.2166,-6.2503,-6.273,-6.3202,-6.4203,-6.4507,-6.4978,-6.5732,-6.5764,-6.5764,-6.5868,-6.6352,-6.6364,-6.6049,-6.6547,-6.655,-6.6129,-6.6318,-6.6438,-6.6438,-6.6344,-6.632,-6.632,-6.632,-6.6889,-6.787,-6.8432,-6.9045,-6.9755,-7.006,-7.0968,-7.2258,-7.2839,-7.3616,-7.4568,-7.5326,-7.5637,-7.574,-7.6499,-7.6775,-7.6809,-7.712,-7.6809,-7.6292,-7.6292,-7.6292,-7.6292,-7.6292,-7.6292,-7.6223,-7.5775,-7.5637,-7.5533,-7.505,-7.4705,-7.4464,-7.4636,-7.4048,-7.351,-7.3448,-7.2683,-7.1917,-7.1301,-7.085,-7.0288,-6.9691,-6.8814,-6.8006,-6.7374,-6.706,-6.6703,-6.6061,-6.6155,-6.6174,-6.5839,-6.5895,-6.6083,-6.6269,-6.6488,-6.6668,-6.6786,-6.8367,-6.9322,-6.95,-7.1185,-7.2386,-7.2856,-7.4198,-7.5065,-7.5395,-7.668,-7.7341,-7.7402,-7.7524,-7.8344,-7.9741,-8.0289,-8.1482,-8.3024,-8.3121,-8.318,-8.318,-8.318,-8.318,-8.318,-8.318,-8.318,-8.318,-5.7084,-5.7724,-5.8386,-5.8602,-5.9747,-6.0826,-6.1122,-6.1947,-6.2884,-6.3561,-6.3703,-6.4026,-6.4813,-6.5089,-6.5627,-6.6448,-6.6512,-6.6617,-6.6617,-6.7109,-6.7164,-6.6684,-6.7157,-6.723,-6.6744,-6.7003,-6.7192,-6.7192,-6.7433,-6.7612,-6.7612,-6.7704,-6.8111,-6.8674,-6.9242,-6.9958,-7.0838,-7.0838,-7.1817,-7.342,-7.3659,-7.4336,-7.5361,-7.6154,-7.643,-7.6499,-7.7016,-7.7223,-7.7223,-7.7223,-7.7223,-7.7223,-7.7223,-7.7223,-7.7223,-7.7223,-7.7223,-7.7209,-7.6691,-7.6607,-7.6468,-7.5915,-7.5604,-7.5552,-7.5724,-7.51,-7.4559,-7.46,-7.3682,-7.2766,-7.2184,-7.1552,-7.1026,-7.0569,-6.9586,-6.8744,-6.8287,-6.7869,-6.7446,-6.684,-6.6904,-6.682,-6.6232,-6.6253,-6.6272,-6.6243,-6.6546,-6.6873,-6.7148,-6.8452,-6.9407,-6.9745,-7.1211,-7.2024,-7.2299,-7.3992,-7.4859,-7.4918,-7.6533,-7.7304,-7.7304,-7.7463,-7.832,-7.9792,-8.0267,-8.1215,-8.2571,-8.301,-8.318,-8.318,-8.318,-8.318,-8.318,-8.318,-8.318,-8.318,-5.8195,-5.8948,-5.9725,-6.0057,-6.0625,-6.1186,-6.1489,-6.2314,-6.3072,-6.3403,-6.4206,-6.4967,-6.5297,-6.5483,-6.5808,-6.6192,-6.6406,-6.6617,-6.6617,-6.7109,-6.7388,-6.7388,-6.7899,-6.8169,-6.8169,-6.7981,-6.788,-6.788,-6.7664,-6.7612,-6.7612,-6.8069,-6.8741,-6.9568,-6.9984,-7.1007,-7.236,-7.236,-7.3074,-7.424,-7.5026,-7.5639,-7.6189,-7.6913,-7.7223,-7.7223,-7.7223,-7.7223,-7.7223,-7.7223,-7.7223,-7.7223,-7.7223,-7.7223,-7.7223,-7.7223,-7.7402,-7.7613,-7.7579,-7.7754,-7.7893,-7.7893,-7.7336,-7.678,-7.678,-7.6153,-7.5436,-7.4869,-7.4342,-7.3729,-7.2922,-7.2781,-7.2254,-7.0745,-7.0499,-6.9937,-6.8428,-6.8361,-6.8258,-6.769,-6.7756,-6.7674,-6.7053,-6.6981,-6.6689,-6.6057,-6.6962,-6.7678,-6.7981,-6.8742,-6.96,-7.0544,-7.138,-7.2,-7.2299,-7.3873,-7.4738,-7.4918,-7.6533,-7.7304,-7.7304,-7.7304,-7.7843,-7.8872,-7.9865,-8.0859,-8.1756,-8.2787,-8.318,-8.318,-8.318,-8.318,-8.318,-8.318,-8.318,-8.318,-5.9182,-5.9728,-6.0102,-6.041,-6.1201,-6.1875,-6.2182,-6.301,-6.3923,-6.4687,-6.5187,-6.575,-6.6324,-6.6399,-6.6745,-6.7543,-6.7792,-6.8039,-6.8039,-6.8543,-6.8828,-6.8828,-6.9382,-6.9691,-6.9691,-6.9971,-6.9878,-6.9387,-6.9676,-6.996,-7.0115,-7.049,-7.1077,-7.1968,-7.2337,-7.2699,-7.3138,-7.3138,-7.3855,-7.4992,-7.5265,-7.5948,-7.6913,-7.712,-7.7223,-7.7292,-7.7844,-7.8017,-7.8085,-7.8603,-7.8775,-7.8775,-7.8957,-7.8321,-7.749,-7.749,-7.7667,-7.7841,-7.7841,-7.7807,-7.7893,-7.7893,-7.7719,-7.7631,-7.7752,-7.7293,-7.6514,-7.5299,-7.4843,-7.4501,-7.3764,-7.3167,-7.2641,-7.2149,-7.1201,-7.0323,-6.9832,-6.9414,-6.8926,-6.8434,-6.8503,-6.8321,-6.7838,-6.7731,-6.7725,-6.7669,-6.8076,-6.8192,-6.78,-6.9188,-7.018,-7.0434,-7.1319,-7.2133,-7.274,-7.4044,-7.497,-7.558,-7.6766,-7.7304,-7.7304,-7.7304,-7.7781,-7.8688,-7.9646,-8.064,-8.1673,-8.2571,-8.3121,-8.318,-8.318,-8.318,-8.318,-8.318,-8.318,-8.318,-5.9712,-6.0118,-6.0668,-6.0867,-6.1774,-6.2655,-6.2979,-6.3827,-6.4714,-6.5467,-6.6046,-6.655,-6.7227,-6.7454,-6.7714,-6.7981,-6.8453,-6.8703,-6.8703,-6.9212,-6.9532,-6.9532,-7.0091,-7.0403,-7.0403,-7.0884,-7.0959,-7.0501,-7.0996,-7.1419,-7.1579,-7.1866,-7.2384,-7.301,-7.3291,-7.3646,-7.3916,-7.3916,-7.4636,-7.5777,-7.5777,-7.6531,-7.7672,-7.7672,-7.7844,-7.8154,-7.8637,-7.881,-7.8879,-7.9362,-7.9592,-7.9683,-7.9865,-7.9386,-7.871,-7.8622,-7.8763,-7.8938,-7.8938,-7.8728,-7.8605,-7.8605,-7.8396,-7.8237,-7.8357,-7.7894,-7.7135,-7.6152,-7.573,-7.5309,-7.4537,-7.401,-7.3448,-7.2886,-7.1974,-7.1166,-7.0569,-7.0187,-6.9736,-6.9248,-6.9282,-6.9102,-6.8623,-6.8551,-6.8511,-6.8291,-6.8802,-6.8922,-6.8543,-6.9668,-7.0517,-7.0806,-7.1402,-7.2118,-7.3016,-7.403,-7.5019,-7.5921,-7.6814,-7.7304,-7.7304,-7.7304,-7.7598,-7.8185,-7.9437,-8.0333,-8.1046,-8.2362,-8.2964,-8.3121,-8.318,-8.318,-8.318,-8.318,-8.318,-8.318,-5.9713,-6.0558,-6.1348,-6.1608,-6.249,-6.3348,-6.3977,-6.4563,-6.5298,-6.5966,-6.6637,-6.7227,-6.7904,-6.8541,-6.8601,-6.7977,-6.8501,-6.8829,-6.8829,-6.9371,-6.966,-6.966,-7.022,-7.0565,-7.0565,-7.1048,-7.132,-7.1355,-7.1821,-7.2018,-7.2084,-7.2601,-7.2826,-7.2859,-7.346,-7.4018,-7.4695,-7.4762,-7.5451,-7.6563,-7.6632,-7.7354,-7.8499,-7.8499,-7.8913,-7.9534,-7.9569,-7.9603,-7.9603,-7.9638,-7.9856,-8.0004,-8.0129,-8.0364,-8.0719,-8.0314,-8.0456,-8.0666,-8.0666,-8.0228,-7.9873,-7.9873,-7.9276,-7.8644,-7.8609,-7.8012,-7.7486,-7.7415,-7.6854,-7.6116,-7.5309,-7.5133,-7.4607,-7.3202,-7.2851,-7.229,-7.085,-7.0789,-7.0658,-7.0097,-7.0133,-7.0058,-6.9412,-6.9408,-6.9087,-6.8302,-6.9275,-6.9865,-6.9865,-7.0256,-7.077,-7.1494,-7.1494,-7.1992,-7.3026,-7.3968,-7.4895,-7.5995,-7.6851,-7.7304,-7.7304,-7.7304,-7.7304,-7.7414,-7.9216,-7.9977,-8.0186,-8.2116,-8.2904,-8.2904,-8.3121,-8.318,-8.318,-8.318,-8.318,-8.318,-6.0848,-6.1173,-6.1792,-6.2647,-6.312,-6.3801,-6.4695,-6.5139,-6.5732,-6.6634,-6.7077,-6.7672,-6.8581,-6.9224,-6.9506,-6.935,-6.9916,-7.0283,-7.0283,-7.0804,-7.1132,-7.1132,-7.1671,-7.199,-7.199,-7.2483,-7.2737,-7.2647,-7.2184,-7.2381,-7.3109,-7.3532,-7.3994,-7.469,-7.5073,-7.527,-7.5473,-7.6082,-7.6741,-7.7383,-7.793,-7.8588,-7.9258,-7.9258,-7.9362,-7.9569,-8.0155,-8.0362,-8.0431,-8.1204,-8.1505,-8.169,-8.2056,-8.2237,-8.2117,-8.0893,-8.0666,-8.084,-8.084,-8.07,-8.0646,-8.0646,-8.0084,-7.9346,-7.8715,-7.8434,-7.8153,-7.7556,-7.7275,-7.6924,-7.6152,-7.552,-7.4958,-7.4607,-7.3553,-7.2676,-7.229,-7.1915,-7.147,-7.0911,-7.0949,-7.0876,-7.03,-7.0229,-7.0157,-6.9943,-7.0422,-7.0692,-7.0692,-7.1051,-7.1313,-7.1494,-7.1494,-7.2183,-7.3696,-7.407,-7.5124,-7.68,-7.7169,-7.7304,-7.7304,-7.7304,-7.7304,-7.7414,-7.9129,-7.9889,-8.0124,-8.2031,-8.2782,-8.2904,-8.3121,-8.318,-8.318,-8.318,-8.318,-8.318,-6.2006,-6.2307,-6.2758,-6.3472,-6.3771,-6.4338,-6.5263,-6.5712,-6.631,-6.7332,-6.763,-6.8107,-6.8828,-6.9472,-6.9787,-6.9787,-7.0419,-7.0789,-7.0789,-7.1314,-7.1644,-7.1644,-7.2187,-7.2508,-7.2508,-7.3005,-7.3431,-7.3575,-7.3541,-7.3807,-7.4306,-7.5038,-7.5704,-7.6171,-7.6564,-7.6724,-7.6758,-7.7198,-7.7658,-7.8135,-7.8545,-7.9205,-8.0017,-8.0017,-8.0258,-8.0603,-8.1017,-8.1155,-8.1224,-8.1886,-8.2211,-8.2396,-8.2796,-8.2976,-8.289,-8.205,-8.1892,-8.1945,-8.1945,-8.1734,-8.1348,-8.0997,-8.061,-8.0084,-7.9311,-7.9136,-7.8925,-7.8118,-7.7942,-7.7696,-7.6959,-7.6468,-7.5906,-7.5204,-7.4396,-7.3589,-7.2886,-7.2695,-7.2356,-7.1761,-7.1552,-7.1444,-7.1085,-7.0728,-7.0514,-7.0514,-7.0817,-7.0979,-7.0979,-7.1304,-7.1494,-7.1494,-7.1857,-7.2653,-7.3885,-7.4906,-7.5963,-7.7092,-7.7279,-7.7304,-7.7304,-7.7304,-7.7524,-7.7965,-7.925,-8.0047,-8.0551,-8.2054,-8.2758,-8.2843,-8.3121,-8.318,-8.318,-8.318,-8.318,-8.318,-6.2993,-6.3356,-6.3632,-6.4087,-6.4422,-6.4872,-6.592,-6.6403,-6.6974,-6.7879,-6.8179,-6.8566,-6.9012,-6.9627,-7.0005,-7.0099,-7.0734,-7.1042,-7.0947,-7.1569,-7.1932,-7.1932,-7.2477,-7.2832,-7.2832,-7.3331,-7.3957,-7.4502,-7.5132,-7.543,-7.5463,-7.6708,-7.7212,-7.7212,-7.7779,-7.7976,-7.801,-7.8111,-7.8439,-7.8791,-7.8989,-7.972,-8.0716,-8.081,-8.1224,-8.181,-8.181,-8.181,-8.181,-8.2024,-8.2303,-8.2579,-8.2886,-8.3031,-8.3208,-8.3208,-8.3208,-8.3208,-8.3208,-8.2752,-8.2085,-8.1277,-8.1102,-8.0891,-8.0154,-7.9873,-7.9592,-7.889,-7.8679,-7.8363,-7.7731,-7.7486,-7.6959,-7.552,-7.5168,-7.4607,-7.3245,-7.3376,-7.3319,-7.2613,-7.2228,-7.1977,-7.187,-7.1264,-7.08,-7.0693,-7.1103,-7.1303,-7.1159,-7.1593,-7.1857,-7.1857,-7.2436,-7.316,-7.4102,-7.5879,-7.6902,-7.7092,-7.7217,-7.7243,-7.7304,-7.7304,-7.7781,-7.8626,-7.9433,-8.0241,-8.1085,-8.2239,-8.2696,-8.2696,-8.3061,-8.318,-8.318,-8.318,-8.318,-8.318,-6.308,-6.308,-6.3502,-6.4646,-6.4858,-6.531,-6.6607,-6.6849,-6.7123,-6.797,-6.809,-6.8542,-6.969,-7.0341,-7.0941,-7.1534,-7.2149,-7.2243,-7.1705,-7.2715,-7.3372,-7.3372,-7.3928,-7.4257,-7.4257,-7.4832,-7.547,-7.596,-7.6092,-7.6159,-7.6159,-7.6806,-7.7212,-7.7212,-7.7779,-7.7976,-7.8044,-7.8653,-7.9121,-7.9484,-8.0292,-8.0926,-8.1318,-8.1509,-8.1707,-8.181,-8.181,-8.181,-8.1905,-8.2303,-8.2488,-8.2579,-8.3031,-8.3208,-8.3208,-8.3208,-8.3208,-8.3208,-8.3208,-8.3138,-8.2857,-8.2085,-8.1909,-8.1699,-8.0926,-8.0259,-7.9768,-7.9627,-7.9066,-7.8539,-7.8434,-7.7872,-7.7135,-7.6257,-7.552,-7.4862,-7.4139,-7.4264,-7.4208,-7.3541,-7.3582,-7.3405,-7.2691,-7.2513,-7.2191,-7.1549,-7.2466,-7.2741,-7.2022,-7.2965,-7.3559,-7.3559,-7.3016,-7.3414,-7.4935,-7.6076,-7.6708,-7.6866,-7.7029,-7.7217,-7.7304,-7.7304,-7.7781,-7.8626,-7.9433,-8.0241,-8.1085,-8.2239,-8.2696,-8.2696,-8.3061,-8.318,-8.318,-8.318,-8.318,-8.318,-6.4038,-6.4125,-6.4464,-6.5352,-6.5536,-6.5902,-6.6816,-6.7298,-6.7754,-6.8516,-6.882,-6.9397,-7.0277,-7.1055,-7.1565,-7.1877,-7.2841,-7.3254,-7.2969,-7.3416,-7.3692,-7.3692,-7.425,-7.469,-7.505,-7.5373,-7.5799,-7.6324,-7.6722,-7.692,-7.692,-7.7874,-7.8384,-7.8384,-7.8994,-7.916,-7.9194,-7.9566,-7.9901,-8.0134,-8.077,-8.12,-8.1393,-8.1715,-8.181,-8.1845,-8.2259,-8.2397,-8.2561,-8.3415,-8.374,-8.3833,-8.4257,-8.4437,-8.4437,-8.4437,-8.384,-8.3208,-8.3208,-8.3208,-8.3138,-8.2787,-8.2682,-8.2471,-8.1734,-8.1277,-8.0786,-7.9943,-7.9487,-7.9101,-7.8679,-7.8293,-7.7802,-7.7029,-7.6338,-7.5724,-7.4992,-7.4841,-7.4677,-7.4396,-7.4116,-7.3869,-7.3476,-7.3048,-7.2655,-7.2298,-7.3004,-7.3245,-7.2885,-7.3507,-7.4102,-7.4537,-7.4211,-7.4573,-7.5732,-7.633,-7.6643,-7.6801,-7.7029,-7.7155,-7.7341,-7.7818,-7.8479,-7.9286,-8.0094,-8.0901,-8.1672,-8.2423,-8.2696,-8.2696,-8.3061,-8.318,-8.318,-8.318,-8.318,-8.318,-6.4752,-6.4996,-6.5251,-6.5882,-6.6125,-6.6494,-6.7085,-6.7777,-6.8445,-6.9184,-6.9639,-7.025,-7.1015,-7.1769,-7.2189,-7.2345,-7.347,-7.4139,-7.4139,-7.4065,-7.409,-7.4203,-7.4766,-7.5319,-7.5864,-7.5972,-7.6186,-7.6716,-7.7384,-7.7682,-7.7682,-7.8808,-7.9388,-7.9388,-8.0006,-8.0209,-8.0209,-8.0209,-8.0411,-8.0748,-8.1145,-8.1444,-8.1811,-8.2232,-8.2328,-8.2397,-8.2949,-8.3156,-8.3355,-8.4422,-8.4785,-8.4879,-8.5308,-8.5491,-8.5491,-8.5491,-8.4648,-8.3665,-8.3314,-8.3208,-8.3208,-8.3208,-8.3208,-8.3068,-8.2471,-8.219,-8.1734,-8.0575,-8.0049,-7.9592,-7.8995,-7.8715,-7.8328,-7.7638,-7.7122,-7.6543,-7.5713,-7.5307,-7.5107,-7.5004,-7.4581,-7.4297,-7.4297,-7.3726,-7.3262,-7.3154,-7.3649,-7.3892,-7.378,-7.4194,-7.4754,-7.537,-7.5406,-7.5696,-7.6275,-7.6512,-7.6643,-7.6801,-7.7029,-7.7265,-7.7635,-7.8295,-7.914,-8.0094,-8.0718,-8.1452,-8.2186,-8.2571,-8.2696,-8.2696,-8.3061,-8.318,-8.318,-8.318,-8.318,-8.318,-6.4839,-6.4996,-6.5251,-6.5882,-6.6509,-6.7145,-6.7772,-6.8495,-6.9166,-6.9882,-6.9943,-7.0433,-7.1813,-7.2483,-7.3062,-7.3718,-7.4414,-7.4834,-7.4834,-7.5156,-7.5359,-7.5643,-7.6281,-7.6734,-7.7037,-7.7336,-7.7555,-7.8023,-7.8304,-7.8444,-7.8444,-7.9041,-7.9388,-7.9388,-8.0006,-8.0209,-8.0209,-8.0209,-8.0581,-8.1292,-8.1796,-8.244,-8.3121,-8.365,-8.3845,-8.388,-8.3914,-8.3949,-8.4046,-8.4595,-8.4785,-8.4879,-8.5308,-8.5491,-8.5491,-8.5491,-8.542,-8.5034,-8.3595,-8.3208,-8.3208,-8.3208,-8.3208,-8.3208,-8.3138,-8.2577,-8.205,-8.1945,-8.0786,-7.9768,-7.9698,-7.9101,-7.8411,-7.7837,-7.7742,-7.7338,-7.624,-7.6067,-7.5822,-7.5223,-7.5153,-7.5118,-7.5118,-7.5082,-7.4797,-7.426,-7.5046,-7.5364,-7.4849,-7.5665,-7.613,-7.6203,-7.6203,-7.6239,-7.6275,-7.6512,-7.6643,-7.6801,-7.7029,-7.762,-7.8516,-7.8552,-7.9433,-8.0901,-8.0975,-8.1452,-8.2186,-8.2571,-8.2696,-8.2696,-8.3061,-8.318,-8.318,-8.318,-8.318,-8.318,-6.4868,-6.4996,-6.5367,-6.6412,-6.6803,-6.7382,-6.8429,-6.9436,-7.0109,-7.058,-7.1195,-7.181,-7.2552,-7.3166,-7.3624,-7.3874,-7.4508,-7.4897,-7.4897,-7.5546,-7.605,-7.6066,-7.6556,-7.6896,-7.7199,-7.7499,-7.7949,-7.8738,-7.9098,-7.9438,-7.9869,-8.0301,-8.0515,-8.0761,-8.1148,-8.1356,-8.1562,-8.1562,-8.1731,-8.1968,-8.258,-8.2952,-8.3292,-8.3822,-8.4018,-8.4087,-8.457,-8.4742,-8.4909,-8.588,-8.6246,-8.6342,-8.6779,-8.6965,-8.686,-8.6403,-8.6228,-8.6017,-8.4929,-8.4297,-8.384,-8.3314,-8.3208,-8.3208,-8.3208,-8.2998,-8.2647,-8.219,-8.1629,-8.0926,-7.9978,-7.9606,-7.9316,-7.8588,-7.8337,-7.8043,-7.7595,-7.7174,-7.672,-7.6045,-7.5938,-7.576,-7.526,-7.5225,-7.5155,-7.5048,-7.5477,-7.5724,-7.5606,-7.6063,-7.6275,-7.6275,-7.6275,-7.6275,-7.6275,-7.6512,-7.6643,-7.6801,-7.7541,-7.8071,-7.8626,-7.9617,-8.0424,-8.1048,-8.1525,-8.1929,-8.2186,-8.2571,-8.2696,-8.2696,-8.3061,-8.318,-8.318,-8.318,-8.318,-8.318,-6.51,-6.5414,-6.5874,-6.703,-6.758,-6.8131,-6.9116,-7.0127,-7.0899,-7.1279,-7.2052,-7.2608,-7.2983,-7.3756,-7.4248,-7.4248,-7.5043,-7.5561,-7.5561,-7.6331,-7.687,-7.6972,-7.7317,-7.7577,-7.7771,-7.8075,-7.8638,-7.9385,-7.9749,-8.02,-8.0697,-8.0992,-8.1242,-8.1598,-8.1884,-8.2094,-8.2408,-8.2408,-8.2543,-8.2746,-8.3262,-8.3602,-8.401,-8.4411,-8.4644,-8.4811,-8.5363,-8.5535,-8.5738,-8.6748,-8.7117,-8.7213,-8.7784,-8.7878,-8.7773,-8.7211,-8.707,-8.6895,-8.6087,-8.5526,-8.4894,-8.384,-8.3595,-8.3524,-8.3279,-8.3208,-8.3068,-8.2541,-8.2261,-8.1769,-8.0766,-8.0338,-7.9976,-7.9493,-7.9108,-7.8697,-7.8491,-7.8146,-7.758,-7.683,-7.6545,-7.6188,-7.5617,-7.544,-7.5334,-7.5585,-7.5798,-7.5901,-7.6072,-7.6208,-7.6275,-7.6275,-7.6275,-7.6275,-7.6275,-7.6512,-7.6708,-7.6801,-7.7897,-7.8573,-7.9029,-8.0388,-8.1158,-8.1415,-8.1966,-8.2186,-8.2186,-8.2571,-8.2696,-8.2696,-8.3061,-8.318,-8.318,-8.318,-8.318,-8.318,-6.5679,-6.6212,-6.6803,-6.7706,-6.8773,-6.9605,-6.9991,-7.0757,-7.1564,-7.1977,-7.2357,-7.2608,-7.2983,-7.4222,-7.4997,-7.4997,-7.6206,-7.6983,-7.6983,-7.7588,-7.8066,-7.8421,-7.8772,-7.8888,-7.8888,-7.9464,-7.9805,-7.9805,-8.0365,-8.0697,-8.0697,-8.1025,-8.1242,-8.1598,-8.1917,-8.2128,-8.2441,-8.2441,-8.2847,-8.349,-8.3804,-8.4591,-8.5514,-8.5788,-8.6093,-8.6294,-8.6294,-8.6294,-8.6394,-8.6922,-8.7117,-8.7213,-8.7784,-8.7878,-8.7878,-8.7878,-8.7878,-8.7702,-8.693,-8.6719,-8.6333,-8.4788,-8.4402,-8.4192,-8.3384,-8.3208,-8.3208,-8.3208,-8.2612,-8.2172,-8.2396,-8.1127,-8.027,-8.0643,-8.0084,-7.938,-7.8793,-7.8686,-7.8401,-7.7615,-7.6866,-7.6402,-7.6402,-7.5907,-7.5585,-7.5798,-7.5901,-7.6072,-7.6275,-7.6275,-7.6275,-7.6275,-7.6275,-7.6275,-7.6311,-7.6607,-7.6801,-7.6838,-7.7997,-7.9029,-7.9837,-8.0645,-8.1452,-8.2186,-8.2186,-8.2186,-8.2251,-8.2571,-8.2696,-8.2696,-8.3061,-8.318,-8.318,-8.318,-8.318,-8.318,-6.5766,-6.6533,-6.7448,-6.8383,-6.9039,-6.9724,-7.056,-7.1315,-7.185,-7.2007,-7.2911,-7.3565,-7.3691,-7.4936,-7.5714,-7.5714,-7.6489,-7.7172,-7.7678,-7.8321,-7.8907,-7.9572,-7.9204,-7.8888,-7.8888,-7.9464,-8.0034,-8.0558,-8.1124,-8.1724,-8.2254,-8.2366,-8.2666,-8.3138,-8.3247,-8.3537,-8.3964,-8.3964,-8.4099,-8.4302,-8.4619,-8.5068,-8.5514,-8.5788,-8.6093,-8.6294,-8.6294,-8.6294,-8.6394,-8.6922,-8.7117,-8.7213,-8.7784,-8.7878,-8.7878,-8.7878,-8.7878,-8.7808,-8.7597,-8.7527,-8.7141,-8.5561,-8.4788,-8.4367,-8.4121,-8.363,-8.3208,-8.3208,-8.3121,-8.2979,-8.2502,-8.1803,-8.1201,-8.0794,-8.0163,-7.975,-7.9578,-7.9543,-7.9257,-7.8436,-7.8151,-7.7794,-7.7223,-7.6695,-7.641,-7.6589,-7.6328,-7.6208,-7.6311,-7.6275,-7.6275,-7.6275,-7.6275,-7.6632,-7.7347,-7.7509,-7.764,-7.764,-7.9425,-8.0424,-8.0681,-8.1489,-8.1966,-8.2186,-8.2186,-8.2251,-8.2343,-8.2571,-8.2758,-8.2843,-8.3121,-8.318,-8.318,-8.318,-8.318,-8.318,-6.6651,-6.7392,-6.8253,-6.9162,-6.9673,-7.0181,-7.0859,-7.1805,-7.2402,-7.2402,-7.3588,-7.4399,-7.4399,-7.5619,-7.6401,-7.6401,-7.7276,-7.7994,-7.8437,-7.9053,-7.9643,-8.0091,-7.986,-7.973,-7.973,-8.0312,-8.0886,-8.1312,-8.1883,-8.2453,-8.2883,-8.2883,-8.3108,-8.3665,-8.3775,-8.3993,-8.4426,-8.45,-8.464,-8.464,-8.4853,-8.5168,-8.5514,-8.5686,-8.5992,-8.6294,-8.6294,-8.6294,-8.6394,-8.6789,-8.7082,-8.7309,-8.7784,-8.7878,-8.7878,-8.7878,-8.7878,-8.7878,-8.7878,-8.7878,-8.7632,-8.6684,-8.5877,-8.5175,-8.4543,-8.4016,-8.3595,-8.3367,-8.3508,-8.354,-8.3217,-8.2726,-8.211,-8.1373,-8.0784,-8.0256,-7.9935,-7.9899,-7.9721,-7.9221,-7.8864,-7.8584,-7.8159,-7.7592,-7.7344,-7.7593,-7.7369,-7.7253,-7.7253,-7.7253,-7.7253,-7.7253,-7.7253,-7.7538,-7.8249,-7.8741,-7.8873,-7.861,-8.0223,-8.1012,-8.1048,-8.1819,-8.2186,-8.2186,-8.2186,-8.2316,-8.2407,-8.2633,-8.2819,-8.2904,-8.3121,-8.318,-8.318,-8.318,-8.318,-8.318,-6.7754,-6.843,-6.9162,-6.9752,-7.0498,-7.0919,-7.0979,-7.2168,-7.3009,-7.307,-7.4293,-7.5076,-7.5076,-7.6301,-7.7087,-7.7087,-7.8345,-7.91,-7.91,-7.9722,-8.0091,-8.0091,-8.0698,-8.1025,-8.1025,-8.1617,-8.1967,-8.1967,-8.2543,-8.2883,-8.2883,-8.2883,-8.2996,-8.3332,-8.3665,-8.3993,-8.4211,-8.4533,-8.464,-8.464,-8.464,-8.4958,-8.5514,-8.5514,-8.5788,-8.6329,-8.6398,-8.6398,-8.6398,-8.6696,-8.7186,-8.7666,-8.7784,-8.7878,-8.7878,-8.7878,-8.7878,-8.7878,-8.7878,-8.7878,-8.7878,-8.7878,-8.7351,-8.6403,-8.4859,-8.4437,-8.4281,-8.3684,-8.3595,-8.3768,-8.4194,-8.3638,-8.2938,-8.2433,-8.1612,-8.0827,-8.0113,-7.9971,-7.9899,-7.9899,-7.9257,-7.8869,-7.9096,-7.8601,-7.8351,-7.8702,-7.8702,-7.8702,-7.8702,-7.8702,-7.8702,-7.8702,-7.8702,-7.8876,-7.9085,-7.998,-8.018,-7.9617,-8.0654,-8.1122,-8.1122,-8.1856,-8.2186,-8.2186,-8.2186,-8.2316,-8.2407,-8.2633,-8.2819,-8.2964,-8.3121,-8.318,-8.318,-8.318,-8.318,-8.318,-6.7841,-6.8781,-6.9693,-6.984,-7.0498,-7.1068,-7.1577,-7.247,-7.3191,-7.3707,-7.4997,-7.5784,-7.5784,-7.7046,-7.7836,-7.7836,-7.8628,-7.91,-7.91,-7.9722,-8.0091,-8.0091,-8.0698,-8.1025,-8.1025,-8.1381,-8.1734,-8.1967,-8.2313,-8.2656,-8.2883,-8.2883,-8.2996,-8.3332,-8.3665,-8.3993,-8.4211,-8.4533,-8.464,-8.464,-8.464,-8.4853,-8.5202,-8.5411,-8.5686,-8.6061,-8.6848,-8.7156,-8.7257,-8.7691,-8.8084,-8.827,-8.796,-8.7878,-8.7878,-8.7878,-8.7878,-8.7878,-8.7878,-8.7878,-8.7878,-8.7878,-8.7738,-8.7211,-8.5631,-8.4968,-8.4423,-8.3771,-8.3854,-8.4194,-8.4278,-8.3804,-8.3244,-8.3147,-8.1969,-8.1041,-8.0863,-8.0292,-7.9899,-7.9899,-7.9757,-7.9727,-7.9956,-7.9537,-7.9107,-7.8738,-7.8702,-7.8702,-7.8702,-7.8702,-7.8702,-7.8702,-7.884,-7.9267,-8.0089,-8.0473,-8.0605,-8.0422,-8.1461,-8.1929,-8.1929,-8.2113,-8.2186,-8.2186,-8.2186,-8.238,-8.2633,-8.2696,-8.288,-8.3121,-8.318,-8.318,-8.318,-8.318,-8.318,-8.318,-6.8602,-6.9236,-7.0002,-7.0134,-7.0766,-7.1487,-7.1846,-7.3104,-7.4072,-7.4405,-7.5671,-7.6492,-7.6492,-7.745,-7.8182,-7.8596,-7.8849,-7.91,-7.91,-7.9722,-8.0091,-8.0091,-8.0698,-8.1025,-8.1025,-8.1144,-8.1499,-8.1967,-8.2313,-8.2543,-8.2883,-8.2883,-8.2996,-8.3108,-8.3554,-8.3884,-8.4027,-8.4797,-8.5182,-8.5215,-8.5587,-8.5938,-8.6151,-8.6434,-8.6748,-8.7023,-8.7744,-8.7984,-8.8086,-8.8489,-8.8787,-8.8942,-8.8365,-8.831,-8.8334,-8.7983,-8.7878,-8.7878,-8.7878,-8.7878,-8.7878,-8.7878,-8.7878,-8.7562,-8.6333,-8.5672,-8.5076,-8.4475,-8.4308,-8.4278,-8.4445,-8.4171,-8.386,-8.3432,-8.2718,-8.1933,-8.1184,-8.0756,-8.0328,-7.9971,-7.9977,-8.013,-8.0433,-8.0369,-8.0153,-7.9897,-7.9861,-7.9861,-7.9861,-7.9861,-7.9861,-7.9861,-8.007,-8.039,-8.0959,-8.1197,-8.133,-8.1395,-8.1901,-8.2186,-8.2186,-8.2186,-8.2186,-8.2186,-8.2251,-8.2444,-8.2696,-8.2758,-8.2941,-8.318,-8.318,-8.318,-8.318,-8.318,-8.318,-8.318,-6.9203,-6.9604,-7.0002,-7.0397,-7.1195,-7.1936,-7.2056,-7.3768,-7.5013,-7.5134,-7.6283,-7.7016,-7.7016,-7.7636,-7.831,-7.8975,-7.9227,-7.929,-7.929,-7.9885,-8.0352,-8.0475,-8.1053,-8.1294,-8.1382,-8.1414,-8.1641,-8.1967,-8.233,-8.2707,-8.3082,-8.3215,-8.3281,-8.3281,-8.381,-8.4143,-8.421,-8.5363,-8.596,-8.6027,-8.667,-8.7016,-8.7307,-8.7595,-8.7807,-8.8156,-8.864,-8.8881,-8.895,-8.9119,-8.9388,-8.9548,-8.8977,-8.8916,-8.8861,-8.8264,-8.7983,-8.7878,-8.7878,-8.7878,-8.7878,-8.7878,-8.7878,-8.7702,-8.707,-8.6375,-8.5764,-8.5162,-8.4642,-8.4361,-8.4527,-8.461,-8.4396,-8.3718,-8.3468,-8.2897,-8.147,-8.1184,-8.0791,-8.0006,-8.013,-8.0358,-8.073,-8.0948,-8.1128,-8.1128,-8.1128,-8.1128,-8.1128,-8.1128,-8.1128,-8.1163,-8.1305,-8.1478,-8.1647,-8.1818,-8.2055,-8.2186,-8.2186,-8.2186,-8.2186,-8.2186,-8.2186,-8.2186,-8.2343,-8.2471,-8.2696,-8.2843,-8.3024,-8.318,-8.318,-8.318,-8.318,-8.318,-8.318,-8.3239,-6.9203,-6.9604,-7.0002,-7.0397,-7.1195,-7.2086,-7.2684,-7.41,-7.5195,-7.5772,-7.6589,-7.7016,-7.7016,-7.7667,-7.8182,-7.8564,-7.9479,-7.9953,-7.9953,-8.0903,-8.1506,-8.1883,-8.2257,-8.2659,-8.2904,-8.2904,-8.265,-8.1967,-8.2739,-8.3267,-8.3877,-8.4506,-8.4805,-8.4805,-8.5116,-8.5458,-8.5717,-8.6119,-8.6518,-8.6771,-8.6873,-8.6907,-8.7016,-8.7488,-8.7701,-8.7875,-8.9087,-8.995,-9.0398,-9.0054,-9.0152,-9.0314,-8.978,-8.9372,-8.8966,-8.8861,-8.837,-8.7878,-8.7878,-8.7878,-8.7878,-8.7878,-8.7878,-8.7843,-8.7738,-8.6944,-8.5941,-8.5285,-8.4811,-8.4527,-8.461,-8.461,-8.4574,-8.4467,-8.386,-8.3075,-8.2183,-8.1505,-8.0791,-8.0006,-8.0207,-8.0508,-8.0803,-8.0948,-8.1128,-8.1128,-8.1128,-8.1128,-8.1128,-8.1128,-8.1163,-8.1375,-8.1478,-8.1683,-8.1885,-8.2055,-8.2186,-8.2186,-8.2186,-8.2186,-8.2186,-8.2186,-8.2186,-8.2186,-8.2343,-8.2471,-8.2696,-8.2843,-8.3024,-8.318,-8.318,-8.318,-8.318,-8.318,-8.3297,-8.3355,-6.947,-6.9737,-7.0252,-7.1135,-7.1864,-7.2684,-7.3373,-7.4674,-7.562,-7.5923,-7.662,-7.7016,-7.7016,-7.8009,-7.8776,-7.9161,-8.0046,-8.0712,-8.0712,-8.1221,-8.1793,-8.2171,-8.2546,-8.2826,-8.3195,-8.3195,-8.3114,-8.2942,-8.3355,-8.4024,-8.4639,-8.497,-8.5103,-8.5103,-8.5416,-8.5644,-8.6018,-8.6758,-8.7149,-8.755,-8.7955,-8.8125,-8.8125,-8.8531,-8.8857,-8.9141,-8.9981,-9.0536,-9.0743,-9.0538,-9.0745,-9.0846,-9.0349,-9.0157,-8.9897,-8.9247,-8.8756,-8.8405,-8.7983,-8.7878,-8.7878,-8.7878,-8.7878,-8.7878,-8.7878,-8.7367,-8.6665,-8.5887,-8.5486,-8.5145,-8.4681,-8.461,-8.461,-8.461,-8.4289,-8.3789,-8.2968,-8.2183,-8.1334,-8.035,-8.0508,-8.073,-8.0948,-8.1021,-8.1128,-8.1128,-8.1128,-8.1128,-8.1128,-8.1163,-8.1305,-8.1375,-8.1615,-8.1818,-8.1885,-8.2121,-8.2186,-8.2186,-8.2186,-8.2186,-8.2186,-8.2186,-8.2251,-8.2279,-8.2508,-8.2696,-8.2843,-8.2964,-8.3121,-8.318,-8.318,-8.318,-8.318,-8.318,-8.3297,-8.3413]}]]